<?xml version="1.0" encoding="UTF-8" standalone="no" ?>
<gpx xmlns="http://www.topografix.com/GPX/1/1" xmlns:xsi="http://www.w3.org/2001/XMLSchema-instance" xsi:schemaLocation="http://www.topografix.com/GPX/1/1 http://www.topografix.com/GPX/1/1/gpx.xsd" version="1.1" creator="VisuGPX - https://www.visugpx.com">
  <metadata>
    <name>circuits 3</name>
    <desc><![CDATA[
Les Mathes les Ronces]]></desc>
  </metadata>
  <wpt lat="45.7161" lon="-1.15946">
    <ele>3</ele>
  </wpt>
  <wpt lat="45.71613" lon="-1.15977">
    <ele>4</ele>
  </wpt>
  <wpt lat="45.71617" lon="-1.15982">
    <ele>4</ele>
  </wpt>
  <wpt lat="45.7162" lon="-1.15988">
    <ele>4</ele>
  </wpt>
  <wpt lat="45.71617" lon="-1.15971">
    <ele>4</ele>
  </wpt>
  <wpt lat="45.71613" lon="-1.15972">
    <ele>4</ele>
  </wpt>
  <wpt lat="45.71611" lon="-1.15975">
    <ele>4</ele>
  </wpt>
  <wpt lat="45.71629" lon="-1.15991">
    <ele>4</ele>
  </wpt>
  <wpt lat="45.71608" lon="-1.15981">
    <ele>3.9</ele>
  </wpt>
  <wpt lat="45.71611" lon="-1.15988">
    <ele>4</ele>
  </wpt>
  <wpt lat="45.71605" lon="-1.15969">
    <ele>3.7</ele>
  </wpt>
  <wpt lat="45.71619" lon="-1.15978">
    <ele>4</ele>
  </wpt>
  <wpt lat="45.71618" lon="-1.15982">
    <ele>4</ele>
  </wpt>
  <wpt lat="45.71619" lon="-1.15985">
    <ele>4</ele>
  </wpt>
  <trk>
    <name><![CDATA[circuits 3_1]]></name>
    <desc><![CDATA[Les Mathes les Ronces]]></desc>
    <trkseg>
      <trkpt lat="45.71902" lon="-1.15932">
        <ele>3</ele>
      </trkpt>
      <trkpt lat="45.71917" lon="-1.15877">
        <ele>3</ele>
      </trkpt>
      <trkpt lat="45.71902" lon="-1.15932">
        <ele>3</ele>
      </trkpt>
      <trkpt lat="45.7189" lon="-1.16031">
        <ele>3</ele>
      </trkpt>
      <trkpt lat="45.71944" lon="-1.16053">
        <ele>3</ele>
      </trkpt>
      <trkpt lat="45.71968" lon="-1.16113">
        <ele>2.2</ele>
      </trkpt>
      <trkpt lat="45.71953" lon="-1.16156">
        <ele>3</ele>
      </trkpt>
      <trkpt lat="45.71848" lon="-1.16117">
        <ele>3</ele>
      </trkpt>
      <trkpt lat="45.71762" lon="-1.1613">
        <ele>3</ele>
      </trkpt>
      <trkpt lat="45.71657" lon="-1.16199">
        <ele>3.9</ele>
      </trkpt>
      <trkpt lat="45.7157" lon="-1.1613">
        <ele>4</ele>
      </trkpt>
      <trkpt lat="45.7139" lon="-1.15928">
        <ele>4</ele>
      </trkpt>
      <trkpt lat="45.71258" lon="-1.16007">
        <ele>11.4</ele>
        <time>2021-09-26T14:53:02.000Z</time>
      </trkpt>
      <trkpt lat="45.71267" lon="-1.16014">
        <ele>11.5</ele>
        <time>2021-09-26T14:52:56.000Z</time>
      </trkpt>
      <trkpt lat="45.71277" lon="-1.16016">
        <ele>11.5</ele>
        <time>2021-09-26T14:52:50.000Z</time>
      </trkpt>
      <trkpt lat="45.71287" lon="-1.16018">
        <ele>11.4</ele>
        <time>2021-09-26T14:52:45.000Z</time>
      </trkpt>
      <trkpt lat="45.71296" lon="-1.16021">
        <ele>11.4</ele>
        <time>2021-09-26T14:52:38.000Z</time>
      </trkpt>
      <trkpt lat="45.71299" lon="-1.16034">
        <ele>11.4</ele>
        <time>2021-09-26T14:52:31.000Z</time>
      </trkpt>
      <trkpt lat="45.71295" lon="-1.16047">
        <ele>11.4</ele>
        <time>2021-09-26T14:52:28.000Z</time>
      </trkpt>
      <trkpt lat="45.71289" lon="-1.16057">
        <ele>11.4</ele>
        <time>2021-09-26T14:52:23.000Z</time>
      </trkpt>
      <trkpt lat="45.71284" lon="-1.1607">
        <ele>12</ele>
        <time>2021-09-26T14:52:11.000Z</time>
      </trkpt>
      <trkpt lat="45.71288" lon="-1.16081">
        <ele>12.2</ele>
        <time>2021-09-26T14:52:03.000Z</time>
      </trkpt>
      <trkpt lat="45.71292" lon="-1.16093">
        <ele>12.3</ele>
        <time>2021-09-26T14:51:57.000Z</time>
      </trkpt>
      <trkpt lat="45.71297" lon="-1.16105">
        <ele>12.7</ele>
        <time>2021-09-26T14:51:51.000Z</time>
      </trkpt>
      <trkpt lat="45.71303" lon="-1.16117">
        <ele>12.9</ele>
        <time>2021-09-26T14:51:45.000Z</time>
      </trkpt>
      <trkpt lat="45.71308" lon="-1.16129">
        <ele>12.9</ele>
        <time>2021-09-26T14:51:38.000Z</time>
      </trkpt>
      <trkpt lat="45.71316" lon="-1.16137">
        <ele>12.9</ele>
        <time>2021-09-26T14:51:33.000Z</time>
      </trkpt>
      <trkpt lat="45.71323" lon="-1.16147">
        <ele>12.9</ele>
        <time>2021-09-26T14:51:27.000Z</time>
      </trkpt>
      <trkpt lat="45.71329" lon="-1.16158">
        <ele>12.9</ele>
        <time>2021-09-26T14:51:22.000Z</time>
      </trkpt>
      <trkpt lat="45.71333" lon="-1.1617">
        <ele>13.2</ele>
        <time>2021-09-26T14:51:13.000Z</time>
      </trkpt>
      <trkpt lat="45.71337" lon="-1.16183">
        <ele>13.2</ele>
        <time>2021-09-26T14:51:07.000Z</time>
      </trkpt>
      <trkpt lat="45.71338" lon="-1.16197">
        <ele>13.4</ele>
        <time>2021-09-26T14:51:01.000Z</time>
      </trkpt>
      <trkpt lat="45.7134" lon="-1.16211">
        <ele>13.6</ele>
        <time>2021-09-26T14:50:55.000Z</time>
      </trkpt>
      <trkpt lat="45.71339" lon="-1.16225">
        <ele>13.7</ele>
        <time>2021-09-26T14:50:49.000Z</time>
      </trkpt>
      <trkpt lat="45.71341" lon="-1.16239">
        <ele>13.6</ele>
        <time>2021-09-26T14:50:44.000Z</time>
      </trkpt>
      <trkpt lat="45.71341" lon="-1.16252">
        <ele>13.6</ele>
        <time>2021-09-26T14:50:40.000Z</time>
      </trkpt>
      <trkpt lat="45.71342" lon="-1.16266">
        <ele>13.5</ele>
        <time>2021-09-26T14:50:31.000Z</time>
      </trkpt>
      <trkpt lat="45.71345" lon="-1.1628">
        <ele>12.9</ele>
        <time>2021-09-26T14:50:21.000Z</time>
      </trkpt>
      <trkpt lat="45.71345" lon="-1.16292">
        <ele>12.9</ele>
        <time>2021-09-26T14:50:15.000Z</time>
      </trkpt>
      <trkpt lat="45.71344" lon="-1.16308">
        <ele>13.3</ele>
        <time>2021-09-26T14:50:09.000Z</time>
      </trkpt>
      <trkpt lat="45.71341" lon="-1.16322">
        <ele>13.5</ele>
        <time>2021-09-26T14:50:03.000Z</time>
      </trkpt>
      <trkpt lat="45.71337" lon="-1.16336">
        <ele>13.5</ele>
        <time>2021-09-26T14:49:58.000Z</time>
      </trkpt>
      <trkpt lat="45.71334" lon="-1.16351">
        <ele>13.5</ele>
        <time>2021-09-26T14:49:51.000Z</time>
      </trkpt>
      <trkpt lat="45.71332" lon="-1.16366">
        <ele>13.7</ele>
        <time>2021-09-26T14:49:44.000Z</time>
      </trkpt>
      <trkpt lat="45.71333" lon="-1.1638">
        <ele>14.5</ele>
        <time>2021-09-26T14:49:36.000Z</time>
      </trkpt>
      <trkpt lat="45.71377" lon="-1.16789">
        <ele>15.4</ele>
        <time>2021-09-26T14:46:51.000Z</time>
      </trkpt>
      <trkpt lat="45.71381" lon="-1.16804">
        <ele>15.3</ele>
        <time>2021-09-26T14:46:47.000Z</time>
      </trkpt>
      <trkpt lat="45.71382" lon="-1.16817">
        <ele>15</ele>
        <time>2021-09-26T14:46:44.000Z</time>
      </trkpt>
      <trkpt lat="45.71383" lon="-1.16835">
        <ele>15</ele>
        <time>2021-09-26T14:46:41.000Z</time>
      </trkpt>
      <trkpt lat="45.7138" lon="-1.1685">
        <ele>15.1</ele>
        <time>2021-09-26T14:46:38.000Z</time>
      </trkpt>
      <trkpt lat="45.71377" lon="-1.16862">
        <ele>15.2</ele>
        <time>2021-09-26T14:46:36.000Z</time>
      </trkpt>
      <trkpt lat="45.71374" lon="-1.1688">
        <ele>14.7</ele>
        <time>2021-09-26T14:46:33.000Z</time>
      </trkpt>
      <trkpt lat="45.71372" lon="-1.16894">
        <ele>14.3</ele>
        <time>2021-09-26T14:46:30.000Z</time>
      </trkpt>
      <trkpt lat="45.71371" lon="-1.1691">
        <ele>14.2</ele>
        <time>2021-09-26T14:46:27.000Z</time>
      </trkpt>
      <trkpt lat="45.71368" lon="-1.16922">
        <ele>14.3</ele>
        <time>2021-09-26T14:46:25.000Z</time>
      </trkpt>
      <trkpt lat="45.71364" lon="-1.16941">
        <ele>14.3</ele>
        <time>2021-09-26T14:46:22.000Z</time>
      </trkpt>
      <trkpt lat="45.71362" lon="-1.16956">
        <ele>14.3</ele>
        <time>2021-09-26T14:46:19.000Z</time>
      </trkpt>
      <trkpt lat="45.71357" lon="-1.16974">
        <ele>14.4</ele>
        <time>2021-09-26T14:46:15.000Z</time>
      </trkpt>
      <trkpt lat="45.71352" lon="-1.16985">
        <ele>14.8</ele>
        <time>2021-09-26T14:46:11.000Z</time>
      </trkpt>
      <trkpt lat="45.71345" lon="-1.16996">
        <ele>14.9</ele>
        <time>2021-09-26T14:46:04.000Z</time>
      </trkpt>
      <trkpt lat="45.71342" lon="-1.17008">
        <ele>15</ele>
        <time>2021-09-26T14:45:53.000Z</time>
      </trkpt>
      <trkpt lat="45.7134" lon="-1.17024">
        <ele>15</ele>
        <time>2021-09-26T14:45:49.000Z</time>
      </trkpt>
      <trkpt lat="45.71334" lon="-1.17035">
        <ele>15</ele>
        <time>2021-09-26T14:45:42.000Z</time>
      </trkpt>
      <trkpt lat="45.71331" lon="-1.17048">
        <ele>15.2</ele>
        <time>2021-09-26T14:45:34.000Z</time>
      </trkpt>
      <trkpt lat="45.71327" lon="-1.17062">
        <ele>15.1</ele>
        <time>2021-09-26T14:45:27.000Z</time>
      </trkpt>
      <trkpt lat="45.71323" lon="-1.17074">
        <ele>14.7</ele>
        <time>2021-09-26T14:45:22.000Z</time>
      </trkpt>
      <trkpt lat="45.71323" lon="-1.17087">
        <ele>14.8</ele>
        <time>2021-09-26T14:45:19.000Z</time>
      </trkpt>
      <trkpt lat="45.71322" lon="-1.17105">
        <ele>14.9</ele>
        <time>2021-09-26T14:45:16.000Z</time>
      </trkpt>
      <trkpt lat="45.71321" lon="-1.17121">
        <ele>14.9</ele>
        <time>2021-09-26T14:45:13.000Z</time>
      </trkpt>
      <trkpt lat="45.7132" lon="-1.17134">
        <ele>14.9</ele>
        <time>2021-09-26T14:45:10.000Z</time>
      </trkpt>
      <trkpt lat="45.71317" lon="-1.17148">
        <ele>14.9</ele>
        <time>2021-09-26T14:45:07.000Z</time>
      </trkpt>
      <trkpt lat="45.71314" lon="-1.17161">
        <ele>14.9</ele>
        <time>2021-09-26T14:45:05.000Z</time>
      </trkpt>
      <trkpt lat="45.7131" lon="-1.17174">
        <ele>15</ele>
        <time>2021-09-26T14:45:02.000Z</time>
      </trkpt>
      <trkpt lat="45.71306" lon="-1.17188">
        <ele>15</ele>
        <time>2021-09-26T14:44:59.000Z</time>
      </trkpt>
      <trkpt lat="45.71301" lon="-1.172">
        <ele>15.1</ele>
        <time>2021-09-26T14:44:56.000Z</time>
      </trkpt>
      <trkpt lat="45.71295" lon="-1.17213">
        <ele>15.4</ele>
        <time>2021-09-26T14:44:52.000Z</time>
      </trkpt>
      <trkpt lat="45.71293" lon="-1.17228">
        <ele>15.8</ele>
        <time>2021-09-26T14:44:45.000Z</time>
      </trkpt>
      <trkpt lat="45.71287" lon="-1.17241">
        <ele>15.8</ele>
        <time>2021-09-26T14:44:41.000Z</time>
      </trkpt>
      <trkpt lat="45.71283" lon="-1.17254">
        <ele>16</ele>
        <time>2021-09-26T14:44:33.000Z</time>
      </trkpt>
      <trkpt lat="45.71282" lon="-1.17268">
        <ele>16.3</ele>
        <time>2021-09-26T14:44:26.000Z</time>
      </trkpt>
      <trkpt lat="45.71276" lon="-1.17295">
        <ele>16.4</ele>
        <time>2021-09-26T14:44:17.000Z</time>
      </trkpt>
      <trkpt lat="45.71268" lon="-1.17348">
        <ele>15.6</ele>
        <time>2021-09-26T14:43:50.000Z</time>
      </trkpt>
      <trkpt lat="45.71259" lon="-1.17399">
        <ele>15.2</ele>
        <time>2021-09-26T14:43:23.000Z</time>
      </trkpt>
      <trkpt lat="45.712" lon="-1.17506">
        <ele>15.7</ele>
        <time>2021-09-26T14:42:09.000Z</time>
      </trkpt>
      <trkpt lat="45.71167" lon="-1.17531">
        <ele>14.5</ele>
        <time>2021-09-26T14:41:38.000Z</time>
      </trkpt>
      <trkpt lat="45.71161" lon="-1.17542">
        <ele>14.5</ele>
        <time>2021-09-26T14:41:32.000Z</time>
      </trkpt>
      <trkpt lat="45.71157" lon="-1.17554">
        <ele>14.5</ele>
        <time>2021-09-26T14:41:28.000Z</time>
      </trkpt>
      <trkpt lat="45.71149" lon="-1.1756">
        <ele>14.5</ele>
        <time>2021-09-26T14:41:23.000Z</time>
      </trkpt>
      <trkpt lat="45.71141" lon="-1.17569">
        <ele>14.6</ele>
        <time>2021-09-26T14:41:15.000Z</time>
      </trkpt>
      <trkpt lat="45.71137" lon="-1.17581">
        <ele>14.6</ele>
        <time>2021-09-26T14:41:09.000Z</time>
      </trkpt>
      <trkpt lat="45.71128" lon="-1.17587">
        <ele>14.6</ele>
        <time>2021-09-26T14:40:59.000Z</time>
      </trkpt>
      <trkpt lat="45.71126" lon="-1.17601">
        <ele>14.9</ele>
        <time>2021-09-26T14:40:52.000Z</time>
      </trkpt>
      <trkpt lat="45.71126" lon="-1.17615">
        <ele>15.4</ele>
        <time>2021-09-26T14:40:44.000Z</time>
      </trkpt>
      <trkpt lat="45.71124" lon="-1.17629">
        <ele>15.1</ele>
        <time>2021-09-26T14:40:37.000Z</time>
      </trkpt>
      <trkpt lat="45.71125" lon="-1.17642">
        <ele>13.9</ele>
        <time>2021-09-26T14:40:31.000Z</time>
      </trkpt>
      <trkpt lat="45.71125" lon="-1.17656">
        <ele>13.8</ele>
        <time>2021-09-26T14:40:26.000Z</time>
      </trkpt>
      <trkpt lat="45.71124" lon="-1.1767">
        <ele>13.8</ele>
        <time>2021-09-26T14:40:18.000Z</time>
      </trkpt>
      <trkpt lat="45.71125" lon="-1.17684">
        <ele>13.8</ele>
        <time>2021-09-26T14:40:12.000Z</time>
      </trkpt>
      <trkpt lat="45.71124" lon="-1.17698">
        <ele>13.8</ele>
        <time>2021-09-26T14:40:06.000Z</time>
      </trkpt>
      <trkpt lat="45.71122" lon="-1.17711">
        <ele>13.8</ele>
        <time>2021-09-26T14:39:58.000Z</time>
      </trkpt>
      <trkpt lat="45.71124" lon="-1.17725">
        <ele>13.8</ele>
        <time>2021-09-26T14:39:52.000Z</time>
      </trkpt>
      <trkpt lat="45.71123" lon="-1.1774">
        <ele>13.8</ele>
        <time>2021-09-26T14:39:46.000Z</time>
      </trkpt>
      <trkpt lat="45.71124" lon="-1.17753">
        <ele>13.7</ele>
        <time>2021-09-26T14:39:39.000Z</time>
      </trkpt>
      <trkpt lat="45.71125" lon="-1.17766">
        <ele>13.7</ele>
        <time>2021-09-26T14:39:34.000Z</time>
      </trkpt>
      <trkpt lat="45.71123" lon="-1.17779">
        <ele>13.7</ele>
        <time>2021-09-26T14:39:27.000Z</time>
      </trkpt>
      <trkpt lat="45.71124" lon="-1.17793">
        <ele>13.7</ele>
        <time>2021-09-26T14:39:20.000Z</time>
      </trkpt>
      <trkpt lat="45.71121" lon="-1.17806">
        <ele>13.7</ele>
        <time>2021-09-26T14:39:15.000Z</time>
      </trkpt>
      <trkpt lat="45.71121" lon="-1.17819">
        <ele>13.7</ele>
        <time>2021-09-26T14:39:10.000Z</time>
      </trkpt>
      <trkpt lat="45.71118" lon="-1.17837">
        <ele>13.7</ele>
        <time>2021-09-26T14:39:05.000Z</time>
      </trkpt>
      <trkpt lat="45.71109" lon="-1.17848">
        <ele>13.6</ele>
        <time>2021-09-26T14:38:58.000Z</time>
      </trkpt>
      <trkpt lat="45.71106" lon="-1.17862">
        <ele>13.6</ele>
        <time>2021-09-26T14:38:51.000Z</time>
      </trkpt>
      <trkpt lat="45.71109" lon="-1.17875">
        <ele>13.6</ele>
        <time>2021-09-26T14:38:43.000Z</time>
      </trkpt>
      <trkpt lat="45.71114" lon="-1.17887">
        <ele>13.6</ele>
        <time>2021-09-26T14:38:37.000Z</time>
      </trkpt>
      <trkpt lat="45.71111" lon="-1.17902">
        <ele>13.6</ele>
        <time>2021-09-26T14:38:34.000Z</time>
      </trkpt>
      <trkpt lat="45.71105" lon="-1.17913">
        <ele>13.6</ele>
        <time>2021-09-26T14:38:26.000Z</time>
      </trkpt>
      <trkpt lat="45.71106" lon="-1.17927">
        <ele>13.8</ele>
        <time>2021-09-26T14:38:19.000Z</time>
      </trkpt>
      <trkpt lat="45.71103" lon="-1.17942">
        <ele>14.1</ele>
        <time>2021-09-26T14:38:13.000Z</time>
      </trkpt>
      <trkpt lat="45.71099" lon="-1.17954">
        <ele>13.9</ele>
        <time>2021-09-26T14:38:08.000Z</time>
      </trkpt>
      <trkpt lat="45.71093" lon="-1.17968">
        <ele>13.7</ele>
        <time>2021-09-26T14:38:06.000Z</time>
      </trkpt>
      <trkpt lat="45.71088" lon="-1.1798">
        <ele>13.9</ele>
        <time>2021-09-26T14:37:58.000Z</time>
      </trkpt>
      <trkpt lat="45.71084" lon="-1.17993">
        <ele>13.9</ele>
        <time>2021-09-26T14:37:49.000Z</time>
      </trkpt>
      <trkpt lat="45.71078" lon="-1.18004">
        <ele>13.9</ele>
        <time>2021-09-26T14:37:42.000Z</time>
      </trkpt>
      <trkpt lat="45.71074" lon="-1.18017">
        <ele>13.9</ele>
        <time>2021-09-26T14:37:31.000Z</time>
      </trkpt>
      <trkpt lat="45.71075" lon="-1.18031">
        <ele>13.9</ele>
        <time>2021-09-26T14:37:25.000Z</time>
      </trkpt>
      <trkpt lat="45.71076" lon="-1.18044">
        <ele>13.8</ele>
        <time>2021-09-26T14:37:20.000Z</time>
      </trkpt>
      <trkpt lat="45.71075" lon="-1.18058">
        <ele>13.8</ele>
        <time>2021-09-26T14:37:14.000Z</time>
      </trkpt>
      <trkpt lat="45.71073" lon="-1.18071">
        <ele>13.7</ele>
        <time>2021-09-26T14:37:08.000Z</time>
      </trkpt>
      <trkpt lat="45.71066" lon="-1.18082">
        <ele>13.9</ele>
        <time>2021-09-26T14:37:02.000Z</time>
      </trkpt>
      <trkpt lat="45.7106" lon="-1.18094">
        <ele>13.9</ele>
        <time>2021-09-26T14:36:55.000Z</time>
      </trkpt>
      <trkpt lat="45.71058" lon="-1.18106">
        <ele>13.9</ele>
        <time>2021-09-26T14:36:49.000Z</time>
      </trkpt>
      <trkpt lat="45.71058" lon="-1.1812">
        <ele>13.9</ele>
        <time>2021-09-26T14:36:43.000Z</time>
      </trkpt>
      <trkpt lat="45.71059" lon="-1.18135">
        <ele>13.9</ele>
        <time>2021-09-26T14:36:38.000Z</time>
      </trkpt>
      <trkpt lat="45.71054" lon="-1.18146">
        <ele>13.9</ele>
        <time>2021-09-26T14:36:34.000Z</time>
      </trkpt>
      <trkpt lat="45.7105" lon="-1.18159">
        <ele>13.8</ele>
        <time>2021-09-26T14:36:30.000Z</time>
      </trkpt>
      <trkpt lat="45.71044" lon="-1.1817">
        <ele>13.7</ele>
        <time>2021-09-26T14:36:26.000Z</time>
      </trkpt>
      <trkpt lat="45.7104" lon="-1.18185">
        <ele>13.5</ele>
        <time>2021-09-26T14:36:21.000Z</time>
      </trkpt>
      <trkpt lat="45.71038" lon="-1.18199">
        <ele>13.4</ele>
        <time>2021-09-26T14:36:17.000Z</time>
      </trkpt>
      <trkpt lat="45.71038" lon="-1.18214">
        <ele>13.4</ele>
        <time>2021-09-26T14:36:14.000Z</time>
      </trkpt>
      <trkpt lat="45.71039" lon="-1.18231">
        <ele>13.3</ele>
        <time>2021-09-26T14:36:10.000Z</time>
      </trkpt>
      <trkpt lat="45.71038" lon="-1.18245">
        <ele>13.3</ele>
        <time>2021-09-26T14:36:06.000Z</time>
      </trkpt>
      <trkpt lat="45.71038" lon="-1.18262">
        <ele>13.2</ele>
        <time>2021-09-26T14:36:02.000Z</time>
      </trkpt>
      <trkpt lat="45.71037" lon="-1.18276">
        <ele>12.9</ele>
        <time>2021-09-26T14:35:58.000Z</time>
      </trkpt>
      <trkpt lat="45.71033" lon="-1.1829">
        <ele>12.8</ele>
        <time>2021-09-26T14:35:54.000Z</time>
      </trkpt>
      <trkpt lat="45.71028" lon="-1.18302">
        <ele>12.8</ele>
        <time>2021-09-26T14:35:52.000Z</time>
      </trkpt>
      <trkpt lat="45.7102" lon="-1.1831">
        <ele>12.8</ele>
        <time>2021-09-26T14:35:48.000Z</time>
      </trkpt>
      <trkpt lat="45.7101" lon="-1.18312">
        <ele>12.8</ele>
        <time>2021-09-26T14:35:37.000Z</time>
      </trkpt>
      <trkpt lat="45.71002" lon="-1.1832">
        <ele>12.8</ele>
        <time>2021-09-26T14:35:28.000Z</time>
      </trkpt>
      <trkpt lat="45.70994" lon="-1.18329">
        <ele>12.9</ele>
        <time>2021-09-26T14:35:22.000Z</time>
      </trkpt>
      <trkpt lat="45.70986" lon="-1.18337">
        <ele>13</ele>
        <time>2021-09-26T14:35:17.000Z</time>
      </trkpt>
      <trkpt lat="45.70978" lon="-1.18345">
        <ele>13</ele>
        <time>2021-09-26T14:35:11.000Z</time>
      </trkpt>
      <trkpt lat="45.70976" lon="-1.18359">
        <ele>13.1</ele>
        <time>2021-09-26T14:35:07.000Z</time>
      </trkpt>
      <trkpt lat="45.70978" lon="-1.18375">
        <ele>13.1</ele>
        <time>2021-09-26T14:35:03.000Z</time>
      </trkpt>
      <trkpt lat="45.7098" lon="-1.18388">
        <ele>13.1</ele>
        <time>2021-09-26T14:35:00.000Z</time>
      </trkpt>
      <trkpt lat="45.70979" lon="-1.18404">
        <ele>13.1</ele>
        <time>2021-09-26T14:34:56.000Z</time>
      </trkpt>
      <trkpt lat="45.70979" lon="-1.18417">
        <ele>13.1</ele>
        <time>2021-09-26T14:34:53.000Z</time>
      </trkpt>
      <trkpt lat="45.70982" lon="-1.18432">
        <ele>13.1</ele>
        <time>2021-09-26T14:34:50.000Z</time>
      </trkpt>
      <trkpt lat="45.70981" lon="-1.18446">
        <ele>13.2</ele>
        <time>2021-09-26T14:34:47.000Z</time>
      </trkpt>
      <trkpt lat="45.70981" lon="-1.18462">
        <ele>13.2</ele>
        <time>2021-09-26T14:34:44.000Z</time>
      </trkpt>
      <trkpt lat="45.70982" lon="-1.18477">
        <ele>13.2</ele>
        <time>2021-09-26T14:34:41.000Z</time>
      </trkpt>
      <trkpt lat="45.70983" lon="-1.18494">
        <ele>13.2</ele>
        <time>2021-09-26T14:34:38.000Z</time>
      </trkpt>
      <trkpt lat="45.70985" lon="-1.18511">
        <ele>13.2</ele>
        <time>2021-09-26T14:34:35.000Z</time>
      </trkpt>
      <trkpt lat="45.70987" lon="-1.18526">
        <ele>13.2</ele>
        <time>2021-09-26T14:34:32.000Z</time>
      </trkpt>
      <trkpt lat="45.70988" lon="-1.1854">
        <ele>13.2</ele>
        <time>2021-09-26T14:34:29.000Z</time>
      </trkpt>
      <trkpt lat="45.70987" lon="-1.18556">
        <ele>13.2</ele>
        <time>2021-09-26T14:34:26.000Z</time>
      </trkpt>
      <trkpt lat="45.70989" lon="-1.18569">
        <ele>13.2</ele>
        <time>2021-09-26T14:34:23.000Z</time>
      </trkpt>
      <trkpt lat="45.7099" lon="-1.18584">
        <ele>13.2</ele>
        <time>2021-09-26T14:34:20.000Z</time>
      </trkpt>
      <trkpt lat="45.7099" lon="-1.18598">
        <ele>13.2</ele>
        <time>2021-09-26T14:34:17.000Z</time>
      </trkpt>
      <trkpt lat="45.70989" lon="-1.18614">
        <ele>13.2</ele>
        <time>2021-09-26T14:34:14.000Z</time>
      </trkpt>
      <trkpt lat="45.70989" lon="-1.1863">
        <ele>13.2</ele>
        <time>2021-09-26T14:34:10.000Z</time>
      </trkpt>
      <trkpt lat="45.70989" lon="-1.18645">
        <ele>13.2</ele>
        <time>2021-09-26T14:34:06.000Z</time>
      </trkpt>
      <trkpt lat="45.70988" lon="-1.18659">
        <ele>13.3</ele>
        <time>2021-09-26T14:33:59.000Z</time>
      </trkpt>
      <trkpt lat="45.7099" lon="-1.18673">
        <ele>13.3</ele>
        <time>2021-09-26T14:33:53.000Z</time>
      </trkpt>
      <trkpt lat="45.70991" lon="-1.18687">
        <ele>13.4</ele>
        <time>2021-09-26T14:33:47.000Z</time>
      </trkpt>
      <trkpt lat="45.7099" lon="-1.187">
        <ele>13.8</ele>
        <time>2021-09-26T14:33:40.000Z</time>
      </trkpt>
      <trkpt lat="45.7099" lon="-1.18716">
        <ele>15.1</ele>
        <time>2021-09-26T14:33:33.000Z</time>
      </trkpt>
      <trkpt lat="45.70992" lon="-1.18729">
        <ele>16</ele>
        <time>2021-09-26T14:33:28.000Z</time>
      </trkpt>
      <trkpt lat="45.70991" lon="-1.18742">
        <ele>17.6</ele>
        <time>2021-09-26T14:33:22.000Z</time>
      </trkpt>
      <trkpt lat="45.70988" lon="-1.18755">
        <ele>18.9</ele>
        <time>2021-09-26T14:33:16.000Z</time>
      </trkpt>
      <trkpt lat="45.70992" lon="-1.18768">
        <ele>19.5</ele>
        <time>2021-09-26T14:33:10.000Z</time>
      </trkpt>
      <trkpt lat="45.70992" lon="-1.18781">
        <ele>20.6</ele>
        <time>2021-09-26T14:33:05.000Z</time>
      </trkpt>
      <trkpt lat="45.70991" lon="-1.18795">
        <ele>20.7</ele>
        <time>2021-09-26T14:32:58.000Z</time>
      </trkpt>
      <trkpt lat="45.70991" lon="-1.18809">
        <ele>20.7</ele>
        <time>2021-09-26T14:32:51.000Z</time>
      </trkpt>
      <trkpt lat="45.70992" lon="-1.18823">
        <ele>20.7</ele>
        <time>2021-09-26T14:32:45.000Z</time>
      </trkpt>
      <trkpt lat="45.70992" lon="-1.18836">
        <ele>20.6</ele>
        <time>2021-09-26T14:32:39.000Z</time>
      </trkpt>
      <trkpt lat="45.70992" lon="-1.18849">
        <ele>20.4</ele>
        <time>2021-09-26T14:32:33.000Z</time>
      </trkpt>
      <trkpt lat="45.70994" lon="-1.18863">
        <ele>19.3</ele>
        <time>2021-09-26T14:32:26.000Z</time>
      </trkpt>
      <trkpt lat="45.70995" lon="-1.18877">
        <ele>17.9</ele>
        <time>2021-09-26T14:32:22.000Z</time>
      </trkpt>
      <trkpt lat="45.70996" lon="-1.18892">
        <ele>17</ele>
        <time>2021-09-26T14:32:19.000Z</time>
      </trkpt>
      <trkpt lat="45.70995" lon="-1.18906">
        <ele>17.3</ele>
        <time>2021-09-26T14:32:15.000Z</time>
      </trkpt>
      <trkpt lat="45.70996" lon="-1.18923">
        <ele>19</ele>
        <time>2021-09-26T14:32:09.000Z</time>
      </trkpt>
      <trkpt lat="45.70996" lon="-1.18938">
        <ele>21.3</ele>
        <time>2021-09-26T14:32:02.000Z</time>
      </trkpt>
      <trkpt lat="45.70997" lon="-1.18951">
        <ele>22.9</ele>
        <time>2021-09-26T14:31:57.000Z</time>
      </trkpt>
      <trkpt lat="45.70997" lon="-1.18964">
        <ele>23.7</ele>
        <time>2021-09-26T14:31:51.000Z</time>
      </trkpt>
      <trkpt lat="45.71" lon="-1.18977">
        <ele>24.9</ele>
        <time>2021-09-26T14:31:45.000Z</time>
      </trkpt>
      <trkpt lat="45.71001" lon="-1.1899">
        <ele>25.3</ele>
        <time>2021-09-26T14:31:39.000Z</time>
      </trkpt>
      <trkpt lat="45.71001" lon="-1.19005">
        <ele>24.7</ele>
        <time>2021-09-26T14:31:32.000Z</time>
      </trkpt>
      <trkpt lat="45.71002" lon="-1.19019">
        <ele>23.1</ele>
        <time>2021-09-26T14:31:25.000Z</time>
      </trkpt>
      <trkpt lat="45.71001" lon="-1.19033">
        <ele>21.1</ele>
        <time>2021-09-26T14:31:21.000Z</time>
      </trkpt>
      <trkpt lat="45.71" lon="-1.19049">
        <ele>17.7</ele>
        <time>2021-09-26T14:31:17.000Z</time>
      </trkpt>
      <trkpt lat="45.71" lon="-1.19065">
        <ele>15.8</ele>
        <time>2021-09-26T14:31:14.000Z</time>
      </trkpt>
      <trkpt lat="45.71" lon="-1.19079">
        <ele>14.7</ele>
        <time>2021-09-26T14:31:12.000Z</time>
      </trkpt>
      <trkpt lat="45.71003" lon="-1.19096">
        <ele>14.2</ele>
        <time>2021-09-26T14:31:10.000Z</time>
      </trkpt>
      <trkpt lat="45.71003" lon="-1.1911">
        <ele>14.2</ele>
        <time>2021-09-26T14:31:08.000Z</time>
      </trkpt>
      <trkpt lat="45.71003" lon="-1.19123">
        <ele>14.2</ele>
        <time>2021-09-26T14:31:06.000Z</time>
      </trkpt>
      <trkpt lat="45.71004" lon="-1.19142">
        <ele>14.2</ele>
        <time>2021-09-26T14:31:03.000Z</time>
      </trkpt>
      <trkpt lat="45.71006" lon="-1.19155">
        <ele>14.4</ele>
        <time>2021-09-26T14:30:58.000Z</time>
      </trkpt>
      <trkpt lat="45.71005" lon="-1.19168">
        <ele>15</ele>
        <time>2021-09-26T14:30:52.000Z</time>
      </trkpt>
      <trkpt lat="45.71004" lon="-1.19183">
        <ele>15.1</ele>
        <time>2021-09-26T14:30:45.000Z</time>
      </trkpt>
      <trkpt lat="45.71009" lon="-1.19197">
        <ele>15.6</ele>
        <time>2021-09-26T14:30:40.000Z</time>
      </trkpt>
      <trkpt lat="45.71009" lon="-1.1921">
        <ele>15.6</ele>
        <time>2021-09-26T14:30:32.000Z</time>
      </trkpt>
      <trkpt lat="45.71007" lon="-1.19225">
        <ele>15.4</ele>
        <time>2021-09-26T14:30:25.000Z</time>
      </trkpt>
      <trkpt lat="45.71008" lon="-1.19237">
        <ele>14.7</ele>
        <time>2021-09-26T14:30:19.000Z</time>
      </trkpt>
      <trkpt lat="45.71012" lon="-1.1925">
        <ele>14.2</ele>
        <time>2021-09-26T14:30:13.000Z</time>
      </trkpt>
      <trkpt lat="45.71011" lon="-1.19265">
        <ele>14</ele>
        <time>2021-09-26T14:30:06.000Z</time>
      </trkpt>
      <trkpt lat="45.71011" lon="-1.19278">
        <ele>14.1</ele>
        <time>2021-09-26T14:30:00.000Z</time>
      </trkpt>
      <trkpt lat="45.71011" lon="-1.19293">
        <ele>14.1</ele>
        <time>2021-09-26T14:29:53.000Z</time>
      </trkpt>
      <trkpt lat="45.71012" lon="-1.19307">
        <ele>14.1</ele>
        <time>2021-09-26T14:29:47.000Z</time>
      </trkpt>
      <trkpt lat="45.71013" lon="-1.19321">
        <ele>14.1</ele>
        <time>2021-09-26T14:29:41.000Z</time>
      </trkpt>
      <trkpt lat="45.71012" lon="-1.19335">
        <ele>14.1</ele>
        <time>2021-09-26T14:29:35.000Z</time>
      </trkpt>
      <trkpt lat="45.71016" lon="-1.1935">
        <ele>14.1</ele>
        <time>2021-09-26T14:29:29.000Z</time>
      </trkpt>
      <trkpt lat="45.71018" lon="-1.19363">
        <ele>14.2</ele>
        <time>2021-09-26T14:29:22.000Z</time>
      </trkpt>
      <trkpt lat="45.71017" lon="-1.19377">
        <ele>14.6</ele>
        <time>2021-09-26T14:29:17.000Z</time>
      </trkpt>
      <trkpt lat="45.71016" lon="-1.19391">
        <ele>14.6</ele>
        <time>2021-09-26T14:29:11.000Z</time>
      </trkpt>
      <trkpt lat="45.71017" lon="-1.19404">
        <ele>14.4</ele>
        <time>2021-09-26T14:29:05.000Z</time>
      </trkpt>
      <trkpt lat="45.71018" lon="-1.19417">
        <ele>14.4</ele>
        <time>2021-09-26T14:29:00.000Z</time>
      </trkpt>
      <trkpt lat="45.71017" lon="-1.19431">
        <ele>15</ele>
        <time>2021-09-26T14:28:53.000Z</time>
      </trkpt>
      <trkpt lat="45.71014" lon="-1.19444">
        <ele>15.9</ele>
        <time>2021-09-26T14:28:48.000Z</time>
      </trkpt>
      <trkpt lat="45.71013" lon="-1.19457">
        <ele>17.4</ele>
        <time>2021-09-26T14:28:42.000Z</time>
      </trkpt>
      <trkpt lat="45.71015" lon="-1.19472">
        <ele>19.7</ele>
        <time>2021-09-26T14:28:35.000Z</time>
      </trkpt>
      <trkpt lat="45.71018" lon="-1.19486">
        <ele>20.6</ele>
        <time>2021-09-26T14:28:28.000Z</time>
      </trkpt>
      <trkpt lat="45.71021" lon="-1.195">
        <ele>20.7</ele>
        <time>2021-09-26T14:28:22.000Z</time>
      </trkpt>
      <trkpt lat="45.7102" lon="-1.19514">
        <ele>19.5</ele>
        <time>2021-09-26T14:28:15.000Z</time>
      </trkpt>
      <trkpt lat="45.71021" lon="-1.19527">
        <ele>18.7</ele>
        <time>2021-09-26T14:28:12.000Z</time>
      </trkpt>
      <trkpt lat="45.71022" lon="-1.19543">
        <ele>17.7</ele>
        <time>2021-09-26T14:28:09.000Z</time>
      </trkpt>
      <trkpt lat="45.71023" lon="-1.19558">
        <ele>16.8</ele>
        <time>2021-09-26T14:28:06.000Z</time>
      </trkpt>
      <trkpt lat="45.71023" lon="-1.19573">
        <ele>16.1</ele>
        <time>2021-09-26T14:28:03.000Z</time>
      </trkpt>
      <trkpt lat="45.71023" lon="-1.19589">
        <ele>15.4</ele>
        <time>2021-09-26T14:28:00.000Z</time>
      </trkpt>
      <trkpt lat="45.71025" lon="-1.19604">
        <ele>15</ele>
        <time>2021-09-26T14:27:57.000Z</time>
      </trkpt>
      <trkpt lat="45.71025" lon="-1.1962">
        <ele>15</ele>
        <time>2021-09-26T14:27:52.000Z</time>
      </trkpt>
      <trkpt lat="45.71026" lon="-1.19634">
        <ele>14.6</ele>
        <time>2021-09-26T14:27:45.000Z</time>
      </trkpt>
      <trkpt lat="45.71024" lon="-1.19647">
        <ele>14.6</ele>
        <time>2021-09-26T14:27:39.000Z</time>
      </trkpt>
      <trkpt lat="45.71024" lon="-1.19662">
        <ele>14.7</ele>
        <time>2021-09-26T14:27:33.000Z</time>
      </trkpt>
      <trkpt lat="45.71026" lon="-1.19676">
        <ele>14.5</ele>
        <time>2021-09-26T14:27:26.000Z</time>
      </trkpt>
      <trkpt lat="45.71026" lon="-1.19689">
        <ele>14.6</ele>
        <time>2021-09-26T14:27:20.000Z</time>
      </trkpt>
      <trkpt lat="45.71026" lon="-1.19702">
        <ele>14.9</ele>
        <time>2021-09-26T14:27:14.000Z</time>
      </trkpt>
      <trkpt lat="45.71027" lon="-1.19716">
        <ele>15.2</ele>
        <time>2021-09-26T14:27:08.000Z</time>
      </trkpt>
      <trkpt lat="45.71028" lon="-1.1973">
        <ele>15.3</ele>
        <time>2021-09-26T14:27:02.000Z</time>
      </trkpt>
      <trkpt lat="45.71029" lon="-1.19744">
        <ele>15.1</ele>
        <time>2021-09-26T14:26:55.000Z</time>
      </trkpt>
      <trkpt lat="45.71028" lon="-1.19757">
        <ele>15</ele>
        <time>2021-09-26T14:26:49.000Z</time>
      </trkpt>
      <trkpt lat="45.71024" lon="-1.19771">
        <ele>15</ele>
        <time>2021-09-26T14:26:43.000Z</time>
      </trkpt>
      <trkpt lat="45.71023" lon="-1.19784">
        <ele>15.2</ele>
        <time>2021-09-26T14:26:37.000Z</time>
      </trkpt>
      <trkpt lat="45.71026" lon="-1.19797">
        <ele>15.3</ele>
        <time>2021-09-26T14:26:31.000Z</time>
      </trkpt>
      <trkpt lat="45.71035" lon="-1.19803">
        <ele>14.9</ele>
        <time>2021-09-26T14:24:55.000Z</time>
      </trkpt>
      <trkpt lat="45.71034" lon="-1.19816">
        <ele>14.9</ele>
        <time>2021-09-26T14:24:49.000Z</time>
      </trkpt>
      <trkpt lat="45.71032" lon="-1.19829">
        <ele>14.8</ele>
        <time>2021-09-26T14:24:44.000Z</time>
      </trkpt>
      <trkpt lat="45.71033" lon="-1.19843">
        <ele>14.8</ele>
        <time>2021-09-26T14:24:37.000Z</time>
      </trkpt>
      <trkpt lat="45.7103" lon="-1.19855">
        <ele>14.8</ele>
        <time>2021-09-26T14:24:31.000Z</time>
      </trkpt>
      <trkpt lat="45.71028" lon="-1.1987">
        <ele>14.8</ele>
        <time>2021-09-26T14:24:24.000Z</time>
      </trkpt>
      <trkpt lat="45.7103" lon="-1.19884">
        <ele>14.9</ele>
        <time>2021-09-26T14:24:18.000Z</time>
      </trkpt>
      <trkpt lat="45.7103" lon="-1.19897">
        <ele>15.1</ele>
        <time>2021-09-26T14:24:11.000Z</time>
      </trkpt>
      <trkpt lat="45.71035" lon="-1.19909">
        <ele>14.9</ele>
        <time>2021-09-26T14:23:53.000Z</time>
      </trkpt>
      <trkpt lat="45.71038" lon="-1.19922">
        <ele>14.9</ele>
        <time>2021-09-26T14:23:40.000Z</time>
      </trkpt>
      <trkpt lat="45.71039" lon="-1.19936">
        <ele>15</ele>
        <time>2021-09-26T14:23:33.000Z</time>
      </trkpt>
      <trkpt lat="45.71039" lon="-1.1995">
        <ele>15.4</ele>
        <time>2021-09-26T14:23:27.000Z</time>
      </trkpt>
      <trkpt lat="45.71038" lon="-1.19964">
        <ele>15.5</ele>
        <time>2021-09-26T14:23:21.000Z</time>
      </trkpt>
      <trkpt lat="45.71039" lon="-1.19978">
        <ele>15.3</ele>
        <time>2021-09-26T14:23:15.000Z</time>
      </trkpt>
      <trkpt lat="45.7104" lon="-1.19991">
        <ele>15.2</ele>
        <time>2021-09-26T14:23:09.000Z</time>
      </trkpt>
      <trkpt lat="45.71039" lon="-1.20005">
        <ele>15.7</ele>
        <time>2021-09-26T14:23:03.000Z</time>
      </trkpt>
      <trkpt lat="45.71037" lon="-1.20019">
        <ele>15.7</ele>
        <time>2021-09-26T14:22:57.000Z</time>
      </trkpt>
      <trkpt lat="45.71036" lon="-1.20032">
        <ele>15.7</ele>
        <time>2021-09-26T14:22:52.000Z</time>
      </trkpt>
      <trkpt lat="45.71035" lon="-1.20046">
        <ele>15.7</ele>
        <time>2021-09-26T14:22:47.000Z</time>
      </trkpt>
      <trkpt lat="45.71039" lon="-1.20058">
        <ele>15.7</ele>
        <time>2021-09-26T14:22:40.000Z</time>
      </trkpt>
      <trkpt lat="45.7104" lon="-1.20072">
        <ele>15.7</ele>
        <time>2021-09-26T14:22:34.000Z</time>
      </trkpt>
      <trkpt lat="45.71043" lon="-1.20086">
        <ele>16</ele>
        <time>2021-09-26T14:22:27.000Z</time>
      </trkpt>
      <trkpt lat="45.71042" lon="-1.201">
        <ele>17.1</ele>
        <time>2021-09-26T14:22:20.000Z</time>
      </trkpt>
      <trkpt lat="45.71041" lon="-1.20116">
        <ele>17.1</ele>
        <time>2021-09-26T14:22:14.000Z</time>
      </trkpt>
      <trkpt lat="45.71043" lon="-1.20129">
        <ele>16.8</ele>
        <time>2021-09-26T14:22:09.000Z</time>
      </trkpt>
      <trkpt lat="45.71046" lon="-1.20144">
        <ele>16.7</ele>
        <time>2021-09-26T14:22:02.000Z</time>
      </trkpt>
      <trkpt lat="45.71046" lon="-1.20158">
        <ele>16.4</ele>
        <time>2021-09-26T14:21:56.000Z</time>
      </trkpt>
      <trkpt lat="45.71045" lon="-1.20172">
        <ele>15.4</ele>
        <time>2021-09-26T14:21:51.000Z</time>
      </trkpt>
      <trkpt lat="45.71045" lon="-1.20187">
        <ele>15.4</ele>
        <time>2021-09-26T14:21:45.000Z</time>
      </trkpt>
      <trkpt lat="45.71047" lon="-1.202">
        <ele>15.7</ele>
        <time>2021-09-26T14:21:38.000Z</time>
      </trkpt>
      <trkpt lat="45.71049" lon="-1.20215">
        <ele>16.7</ele>
        <time>2021-09-26T14:21:32.000Z</time>
      </trkpt>
      <trkpt lat="45.71047" lon="-1.2023">
        <ele>17.3</ele>
        <time>2021-09-26T14:21:26.000Z</time>
      </trkpt>
      <trkpt lat="45.71048" lon="-1.20243">
        <ele>17.8</ele>
        <time>2021-09-26T14:21:19.000Z</time>
      </trkpt>
      <trkpt lat="45.71047" lon="-1.20256">
        <ele>18</ele>
        <time>2021-09-26T14:21:13.000Z</time>
      </trkpt>
      <trkpt lat="45.71045" lon="-1.20269">
        <ele>17.9</ele>
        <time>2021-09-26T14:21:08.000Z</time>
      </trkpt>
      <trkpt lat="45.71043" lon="-1.20282">
        <ele>17.4</ele>
        <time>2021-09-26T14:21:03.000Z</time>
      </trkpt>
      <trkpt lat="45.71041" lon="-1.20295">
        <ele>16.7</ele>
        <time>2021-09-26T14:20:55.000Z</time>
      </trkpt>
      <trkpt lat="45.71038" lon="-1.2031">
        <ele>15.4</ele>
        <time>2021-09-26T14:20:49.000Z</time>
      </trkpt>
      <trkpt lat="45.71035" lon="-1.20322">
        <ele>15</ele>
        <time>2021-09-26T14:20:45.000Z</time>
      </trkpt>
      <trkpt lat="45.71026" lon="-1.20334">
        <ele>14.7</ele>
        <time>2021-09-26T14:20:37.000Z</time>
      </trkpt>
      <trkpt lat="45.71018" lon="-1.20343">
        <ele>15.4</ele>
        <time>2021-09-26T14:19:59.000Z</time>
      </trkpt>
      <trkpt lat="45.7101" lon="-1.20349">
        <ele>15.4</ele>
        <time>2021-09-26T14:19:51.000Z</time>
      </trkpt>
      <trkpt lat="45.71002" lon="-1.20357">
        <ele>15.4</ele>
        <time>2021-09-26T14:19:46.000Z</time>
      </trkpt>
      <trkpt lat="45.70992" lon="-1.20359">
        <ele>15.4</ele>
        <time>2021-09-26T14:19:36.000Z</time>
      </trkpt>
      <trkpt lat="45.70986" lon="-1.20369">
        <ele>15.4</ele>
        <time>2021-09-26T14:19:31.000Z</time>
      </trkpt>
      <trkpt lat="45.70976" lon="-1.20383">
        <ele>15.3</ele>
        <time>2021-09-26T14:19:22.000Z</time>
      </trkpt>
      <trkpt lat="45.70968" lon="-1.20393">
        <ele>15.2</ele>
        <time>2021-09-26T14:19:17.000Z</time>
      </trkpt>
      <trkpt lat="45.7096" lon="-1.204">
        <ele>14.8</ele>
        <time>2021-09-26T14:19:09.000Z</time>
      </trkpt>
      <trkpt lat="45.70954" lon="-1.2041">
        <ele>14.8</ele>
        <time>2021-09-26T14:19:05.000Z</time>
      </trkpt>
      <trkpt lat="45.70947" lon="-1.2042">
        <ele>14.8</ele>
        <time>2021-09-26T14:18:58.000Z</time>
      </trkpt>
      <trkpt lat="45.7094" lon="-1.20428">
        <ele>14.8</ele>
        <time>2021-09-26T14:18:52.000Z</time>
      </trkpt>
      <trkpt lat="45.70934" lon="-1.20438">
        <ele>14.8</ele>
        <time>2021-09-26T14:18:46.000Z</time>
      </trkpt>
      <trkpt lat="45.70928" lon="-1.2045">
        <ele>14.9</ele>
        <time>2021-09-26T14:18:41.000Z</time>
      </trkpt>
      <trkpt lat="45.70921" lon="-1.20458">
        <ele>15.3</ele>
        <time>2021-09-26T14:18:36.000Z</time>
      </trkpt>
      <trkpt lat="45.70915" lon="-1.20469">
        <ele>15.3</ele>
        <time>2021-09-26T14:18:30.000Z</time>
      </trkpt>
      <trkpt lat="45.70908" lon="-1.20479">
        <ele>15.3</ele>
        <time>2021-09-26T14:18:26.000Z</time>
      </trkpt>
      <trkpt lat="45.70901" lon="-1.2049">
        <ele>15.3</ele>
        <time>2021-09-26T14:18:18.000Z</time>
      </trkpt>
      <trkpt lat="45.70891" lon="-1.20498">
        <ele>15.4</ele>
        <time>2021-09-26T14:18:09.000Z</time>
      </trkpt>
      <trkpt lat="45.70884" lon="-1.20505">
        <ele>15.4</ele>
        <time>2021-09-26T14:18:03.000Z</time>
      </trkpt>
      <trkpt lat="45.70877" lon="-1.20514">
        <ele>15.4</ele>
        <time>2021-09-26T14:17:59.000Z</time>
      </trkpt>
      <trkpt lat="45.70871" lon="-1.20526">
        <ele>15.5</ele>
        <time>2021-09-26T14:17:56.000Z</time>
      </trkpt>
      <trkpt lat="45.70865" lon="-1.2054">
        <ele>15.5</ele>
        <time>2021-09-26T14:17:53.000Z</time>
      </trkpt>
      <trkpt lat="45.7086" lon="-1.20554">
        <ele>15.6</ele>
        <time>2021-09-26T14:17:50.000Z</time>
      </trkpt>
      <trkpt lat="45.70854" lon="-1.20568">
        <ele>15.6</ele>
        <time>2021-09-26T14:17:48.000Z</time>
      </trkpt>
      <trkpt lat="45.70851" lon="-1.20583">
        <ele>15.8</ele>
        <time>2021-09-26T14:17:45.000Z</time>
      </trkpt>
      <trkpt lat="45.70847" lon="-1.20595">
        <ele>15.8</ele>
        <time>2021-09-26T14:17:42.000Z</time>
      </trkpt>
      <trkpt lat="45.70838" lon="-1.20607">
        <ele>15.4</ele>
        <time>2021-09-26T14:17:38.000Z</time>
      </trkpt>
      <trkpt lat="45.70831" lon="-1.20615">
        <ele>15</ele>
        <time>2021-09-26T14:17:35.000Z</time>
      </trkpt>
      <trkpt lat="45.70821" lon="-1.20626">
        <ele>14.7</ele>
        <time>2021-09-26T14:17:32.000Z</time>
      </trkpt>
      <trkpt lat="45.70813" lon="-1.20634">
        <ele>14.7</ele>
        <time>2021-09-26T14:17:29.000Z</time>
      </trkpt>
      <trkpt lat="45.70806" lon="-1.20645">
        <ele>14.7</ele>
        <time>2021-09-26T14:17:26.000Z</time>
      </trkpt>
      <trkpt lat="45.70801" lon="-1.20659">
        <ele>14.8</ele>
        <time>2021-09-26T14:17:23.000Z</time>
      </trkpt>
      <trkpt lat="45.70796" lon="-1.20676">
        <ele>15</ele>
        <time>2021-09-26T14:17:20.000Z</time>
      </trkpt>
      <trkpt lat="45.70791" lon="-1.20688">
        <ele>15</ele>
        <time>2021-09-26T14:17:17.000Z</time>
      </trkpt>
      <trkpt lat="45.70786" lon="-1.20698">
        <ele>14.9</ele>
        <time>2021-09-26T14:17:13.000Z</time>
      </trkpt>
      <trkpt lat="45.70778" lon="-1.20705">
        <ele>14.7</ele>
        <time>2021-09-26T14:17:08.000Z</time>
      </trkpt>
      <trkpt lat="45.70767" lon="-1.20707">
        <ele>14.5</ele>
        <time>2021-09-26T14:17:03.000Z</time>
      </trkpt>
      <trkpt lat="45.70758" lon="-1.20711">
        <ele>14.3</ele>
        <time>2021-09-26T14:16:56.000Z</time>
      </trkpt>
      <trkpt lat="45.70748" lon="-1.20707">
        <ele>14.3</ele>
        <time>2021-09-26T14:16:49.000Z</time>
      </trkpt>
      <trkpt lat="45.70738" lon="-1.20709">
        <ele>14.3</ele>
        <time>2021-09-26T14:16:43.000Z</time>
      </trkpt>
      <trkpt lat="45.70729" lon="-1.2071">
        <ele>14.2</ele>
        <time>2021-09-26T14:16:37.000Z</time>
      </trkpt>
      <trkpt lat="45.70719" lon="-1.20712">
        <ele>14.2</ele>
        <time>2021-09-26T14:16:31.000Z</time>
      </trkpt>
      <trkpt lat="45.70709" lon="-1.20711">
        <ele>14.2</ele>
        <time>2021-09-26T14:16:24.000Z</time>
      </trkpt>
      <trkpt lat="45.707" lon="-1.20708">
        <ele>14.2</ele>
        <time>2021-09-26T14:16:18.000Z</time>
      </trkpt>
      <trkpt lat="45.7069" lon="-1.20707">
        <ele>14.2</ele>
        <time>2021-09-26T14:16:10.000Z</time>
      </trkpt>
      <trkpt lat="45.7068" lon="-1.2071">
        <ele>14.1</ele>
        <time>2021-09-26T14:16:04.000Z</time>
      </trkpt>
      <trkpt lat="45.70671" lon="-1.20715">
        <ele>14.2</ele>
        <time>2021-09-26T14:15:59.000Z</time>
      </trkpt>
      <trkpt lat="45.70661" lon="-1.20714">
        <ele>14.5</ele>
        <time>2021-09-26T14:15:54.000Z</time>
      </trkpt>
      <trkpt lat="45.70651" lon="-1.20714">
        <ele>15.6</ele>
        <time>2021-09-26T14:15:48.000Z</time>
      </trkpt>
      <trkpt lat="45.70642" lon="-1.20715">
        <ele>15.9</ele>
        <time>2021-09-26T14:15:42.000Z</time>
      </trkpt>
      <trkpt lat="45.70633" lon="-1.20715">
        <ele>15.8</ele>
        <time>2021-09-26T14:15:37.000Z</time>
      </trkpt>
      <trkpt lat="45.70622" lon="-1.20716">
        <ele>15.3</ele>
        <time>2021-09-26T14:15:31.000Z</time>
      </trkpt>
      <trkpt lat="45.70613" lon="-1.20718">
        <ele>15</ele>
        <time>2021-09-26T14:15:25.000Z</time>
      </trkpt>
      <trkpt lat="45.70603" lon="-1.20716">
        <ele>14.8</ele>
        <time>2021-09-26T14:15:19.000Z</time>
      </trkpt>
      <trkpt lat="45.70594" lon="-1.20715">
        <ele>14.9</ele>
        <time>2021-09-26T14:15:14.000Z</time>
      </trkpt>
      <trkpt lat="45.70585" lon="-1.20715">
        <ele>15</ele>
        <time>2021-09-26T14:15:07.000Z</time>
      </trkpt>
      <trkpt lat="45.70575" lon="-1.20718">
        <ele>15.1</ele>
        <time>2021-09-26T14:15:01.000Z</time>
      </trkpt>
      <trkpt lat="45.70565" lon="-1.20717">
        <ele>15.1</ele>
        <time>2021-09-26T14:14:53.000Z</time>
      </trkpt>
      <trkpt lat="45.70556" lon="-1.20713">
        <ele>15.2</ele>
        <time>2021-09-26T14:14:43.000Z</time>
      </trkpt>
      <trkpt lat="45.70552" lon="-1.20725">
        <ele>15.2</ele>
        <time>2021-09-26T14:14:37.000Z</time>
      </trkpt>
      <trkpt lat="45.70545" lon="-1.20739">
        <ele>15.2</ele>
        <time>2021-09-26T14:14:33.000Z</time>
      </trkpt>
      <trkpt lat="45.70546" lon="-1.20754">
        <ele>15.3</ele>
        <time>2021-09-26T14:14:29.000Z</time>
      </trkpt>
      <trkpt lat="45.70545" lon="-1.20767">
        <ele>15.3</ele>
        <time>2021-09-26T14:14:25.000Z</time>
      </trkpt>
      <trkpt lat="45.70541" lon="-1.20781">
        <ele>15.3</ele>
        <time>2021-09-26T14:14:22.000Z</time>
      </trkpt>
      <trkpt lat="45.70538" lon="-1.20793">
        <ele>15.3</ele>
        <time>2021-09-26T14:14:20.000Z</time>
      </trkpt>
      <trkpt lat="45.70536" lon="-1.2081">
        <ele>15.3</ele>
        <time>2021-09-26T14:14:17.000Z</time>
      </trkpt>
      <trkpt lat="45.70533" lon="-1.20824">
        <ele>15.3</ele>
        <time>2021-09-26T14:14:15.000Z</time>
      </trkpt>
      <trkpt lat="45.70533" lon="-1.20838">
        <ele>15.3</ele>
        <time>2021-09-26T14:14:08.000Z</time>
      </trkpt>
      <trkpt lat="45.70533" lon="-1.20852">
        <ele>15.3</ele>
        <time>2021-09-26T14:14:01.000Z</time>
      </trkpt>
      <trkpt lat="45.70529" lon="-1.20865">
        <ele>15.3</ele>
        <time>2021-09-26T14:13:57.000Z</time>
      </trkpt>
      <trkpt lat="45.7053" lon="-1.20878">
        <ele>15.3</ele>
        <time>2021-09-26T14:13:51.000Z</time>
      </trkpt>
      <trkpt lat="45.70536" lon="-1.20888">
        <ele>15.6</ele>
        <time>2021-09-26T14:13:45.000Z</time>
      </trkpt>
      <trkpt lat="45.70537" lon="-1.20902">
        <ele>16.8</ele>
        <time>2021-09-26T14:13:40.000Z</time>
      </trkpt>
      <trkpt lat="45.70534" lon="-1.20915">
        <ele>17</ele>
        <time>2021-09-26T14:13:36.000Z</time>
      </trkpt>
      <trkpt lat="45.70533" lon="-1.20929">
        <ele>17.6</ele>
        <time>2021-09-26T14:13:28.000Z</time>
      </trkpt>
      <trkpt lat="45.70536" lon="-1.20943">
        <ele>18.3</ele>
        <time>2021-09-26T14:13:21.000Z</time>
      </trkpt>
      <trkpt lat="45.70536" lon="-1.20958">
        <ele>19.8</ele>
        <time>2021-09-26T14:13:14.000Z</time>
      </trkpt>
      <trkpt lat="45.70536" lon="-1.20972">
        <ele>20.8</ele>
        <time>2021-09-26T14:13:08.000Z</time>
      </trkpt>
      <trkpt lat="45.70538" lon="-1.20986">
        <ele>22.2</ele>
        <time>2021-09-26T14:13:02.000Z</time>
      </trkpt>
      <trkpt lat="45.70537" lon="-1.21">
        <ele>23.4</ele>
        <time>2021-09-26T14:12:57.000Z</time>
      </trkpt>
      <trkpt lat="45.70537" lon="-1.21016">
        <ele>24.9</ele>
        <time>2021-09-26T14:12:51.000Z</time>
      </trkpt>
      <trkpt lat="45.70537" lon="-1.2103">
        <ele>25.7</ele>
        <time>2021-09-26T14:12:45.000Z</time>
      </trkpt>
      <trkpt lat="45.70535" lon="-1.21045">
        <ele>26.2</ele>
        <time>2021-09-26T14:12:39.000Z</time>
      </trkpt>
      <trkpt lat="45.7054" lon="-1.21057">
        <ele>25.8</ele>
        <time>2021-09-26T14:12:31.000Z</time>
      </trkpt>
      <trkpt lat="45.70541" lon="-1.21071">
        <ele>25.4</ele>
        <time>2021-09-26T14:12:25.000Z</time>
      </trkpt>
      <trkpt lat="45.7054" lon="-1.21086">
        <ele>24.8</ele>
        <time>2021-09-26T14:12:21.000Z</time>
      </trkpt>
      <trkpt lat="45.70543" lon="-1.21099">
        <ele>24.1</ele>
        <time>2021-09-26T14:12:18.000Z</time>
      </trkpt>
      <trkpt lat="45.70542" lon="-1.21114">
        <ele>23</ele>
        <time>2021-09-26T14:12:15.000Z</time>
      </trkpt>
      <trkpt lat="45.70542" lon="-1.21129">
        <ele>22.4</ele>
        <time>2021-09-26T14:12:12.000Z</time>
      </trkpt>
      <trkpt lat="45.70542" lon="-1.21144">
        <ele>22</ele>
        <time>2021-09-26T14:12:09.000Z</time>
      </trkpt>
      <trkpt lat="45.70544" lon="-1.21161">
        <ele>21.6</ele>
        <time>2021-09-26T14:12:06.000Z</time>
      </trkpt>
      <trkpt lat="45.70544" lon="-1.21179">
        <ele>20.9</ele>
        <time>2021-09-26T14:12:03.000Z</time>
      </trkpt>
      <trkpt lat="45.70542" lon="-1.21193">
        <ele>20.7</ele>
        <time>2021-09-26T14:12:01.000Z</time>
      </trkpt>
      <trkpt lat="45.70541" lon="-1.21212">
        <ele>20.6</ele>
        <time>2021-09-26T14:11:58.000Z</time>
      </trkpt>
      <trkpt lat="45.7054" lon="-1.21227">
        <ele>20.7</ele>
        <time>2021-09-26T14:11:55.000Z</time>
      </trkpt>
      <trkpt lat="45.70537" lon="-1.21245">
        <ele>21.1</ele>
        <time>2021-09-26T14:11:50.000Z</time>
      </trkpt>
      <trkpt lat="45.70536" lon="-1.21259">
        <ele>21.8</ele>
        <time>2021-09-26T14:11:45.000Z</time>
      </trkpt>
      <trkpt lat="45.70534" lon="-1.21274">
        <ele>21.9</ele>
        <time>2021-09-26T14:11:39.000Z</time>
      </trkpt>
      <trkpt lat="45.70533" lon="-1.21288">
        <ele>21.9</ele>
        <time>2021-09-26T14:11:33.000Z</time>
      </trkpt>
      <trkpt lat="45.70534" lon="-1.21301">
        <ele>21.9</ele>
        <time>2021-09-26T14:11:27.000Z</time>
      </trkpt>
      <trkpt lat="45.70535" lon="-1.21315">
        <ele>21.8</ele>
        <time>2021-09-26T14:11:21.000Z</time>
      </trkpt>
      <trkpt lat="45.70535" lon="-1.21328">
        <ele>21.3</ele>
        <time>2021-09-26T14:11:15.000Z</time>
      </trkpt>
      <trkpt lat="45.70538" lon="-1.21343">
        <ele>20.9</ele>
        <time>2021-09-26T14:11:09.000Z</time>
      </trkpt>
      <trkpt lat="45.70543" lon="-1.21357">
        <ele>20.1</ele>
        <time>2021-09-26T14:10:59.000Z</time>
      </trkpt>
      <trkpt lat="45.7055" lon="-1.21365">
        <ele>19.5</ele>
        <time>2021-09-26T14:10:54.000Z</time>
      </trkpt>
      <trkpt lat="45.70553" lon="-1.21377">
        <ele>18.3</ele>
        <time>2021-09-26T14:10:48.000Z</time>
      </trkpt>
      <trkpt lat="45.7055" lon="-1.21391">
        <ele>17.4</ele>
        <time>2021-09-26T14:10:42.000Z</time>
      </trkpt>
      <trkpt lat="45.70547" lon="-1.21403">
        <ele>17.2</ele>
        <time>2021-09-26T14:10:38.000Z</time>
      </trkpt>
      <trkpt lat="45.70543" lon="-1.21417">
        <ele>17.2</ele>
        <time>2021-09-26T14:10:35.000Z</time>
      </trkpt>
      <trkpt lat="45.70547" lon="-1.21429">
        <ele>17.2</ele>
        <time>2021-09-26T14:10:29.000Z</time>
      </trkpt>
      <trkpt lat="45.70547" lon="-1.21443">
        <ele>17.7</ele>
        <time>2021-09-26T14:10:22.000Z</time>
      </trkpt>
      <trkpt lat="45.70545" lon="-1.21457">
        <ele>17.6</ele>
        <time>2021-09-26T14:10:18.000Z</time>
      </trkpt>
      <trkpt lat="45.70548" lon="-1.21473">
        <ele>17.4</ele>
        <time>2021-09-26T14:10:09.000Z</time>
      </trkpt>
      <trkpt lat="45.70547" lon="-1.21486">
        <ele>17.3</ele>
        <time>2021-09-26T14:10:04.000Z</time>
      </trkpt>
      <trkpt lat="45.70546" lon="-1.21499">
        <ele>17.1</ele>
        <time>2021-09-26T14:09:59.000Z</time>
      </trkpt>
      <trkpt lat="45.70547" lon="-1.21513">
        <ele>16</ele>
        <time>2021-09-26T14:09:51.000Z</time>
      </trkpt>
      <trkpt lat="45.70548" lon="-1.21528">
        <ele>15.8</ele>
        <time>2021-09-26T14:09:44.000Z</time>
      </trkpt>
      <trkpt lat="45.70547" lon="-1.21543">
        <ele>15.1</ele>
        <time>2021-09-26T14:09:35.000Z</time>
      </trkpt>
      <trkpt lat="45.70545" lon="-1.21556">
        <ele>14.7</ele>
        <time>2021-09-26T14:09:29.000Z</time>
      </trkpt>
      <trkpt lat="45.70545" lon="-1.21571">
        <ele>14.7</ele>
        <time>2021-09-26T14:09:24.000Z</time>
      </trkpt>
      <trkpt lat="45.70551" lon="-1.21582">
        <ele>14.7</ele>
        <time>2021-09-26T14:09:20.000Z</time>
      </trkpt>
      <trkpt lat="45.70551" lon="-1.21596">
        <ele>14.8</ele>
        <time>2021-09-26T14:09:14.000Z</time>
      </trkpt>
      <trkpt lat="45.70549" lon="-1.21613">
        <ele>15</ele>
        <time>2021-09-26T14:09:09.000Z</time>
      </trkpt>
      <trkpt lat="45.7055" lon="-1.21627">
        <ele>15.8</ele>
        <time>2021-09-26T14:09:02.000Z</time>
      </trkpt>
      <trkpt lat="45.7055" lon="-1.21641">
        <ele>16.8</ele>
        <time>2021-09-26T14:08:54.000Z</time>
      </trkpt>
      <trkpt lat="45.70552" lon="-1.21654">
        <ele>17.7</ele>
        <time>2021-09-26T14:08:48.000Z</time>
      </trkpt>
      <trkpt lat="45.70551" lon="-1.21667">
        <ele>18.6</ele>
        <time>2021-09-26T14:08:43.000Z</time>
      </trkpt>
      <trkpt lat="45.70551" lon="-1.21681">
        <ele>19.7</ele>
        <time>2021-09-26T14:08:37.000Z</time>
      </trkpt>
      <trkpt lat="45.70553" lon="-1.21695">
        <ele>18.9</ele>
        <time>2021-09-26T14:08:29.000Z</time>
      </trkpt>
      <trkpt lat="45.70554" lon="-1.2171">
        <ele>17.9</ele>
        <time>2021-09-26T14:08:25.000Z</time>
      </trkpt>
      <trkpt lat="45.70553" lon="-1.21723">
        <ele>17.4</ele>
        <time>2021-09-26T14:08:23.000Z</time>
      </trkpt>
      <trkpt lat="45.70551" lon="-1.21742">
        <ele>16.6</ele>
        <time>2021-09-26T14:08:20.000Z</time>
      </trkpt>
      <trkpt lat="45.70554" lon="-1.2176">
        <ele>15.6</ele>
        <time>2021-09-26T14:08:17.000Z</time>
      </trkpt>
      <trkpt lat="45.70551" lon="-1.21774">
        <ele>14.7</ele>
        <time>2021-09-26T14:08:14.000Z</time>
      </trkpt>
      <trkpt lat="45.70547" lon="-1.2179">
        <ele>14.3</ele>
        <time>2021-09-26T14:08:12.000Z</time>
      </trkpt>
      <trkpt lat="45.7054" lon="-1.21803">
        <ele>14.1</ele>
        <time>2021-09-26T14:08:06.000Z</time>
      </trkpt>
      <trkpt lat="45.70532" lon="-1.21811">
        <ele>14.8</ele>
        <time>2021-09-26T14:07:58.000Z</time>
      </trkpt>
      <trkpt lat="45.70525" lon="-1.21822">
        <ele>15.4</ele>
        <time>2021-09-26T14:07:52.000Z</time>
      </trkpt>
      <trkpt lat="45.70518" lon="-1.21835">
        <ele>16.2</ele>
        <time>2021-09-26T14:07:46.000Z</time>
      </trkpt>
      <trkpt lat="45.70509" lon="-1.21845">
        <ele>17</ele>
        <time>2021-09-26T14:07:40.000Z</time>
      </trkpt>
      <trkpt lat="45.70503" lon="-1.21855">
        <ele>16.9</ele>
        <time>2021-09-26T14:07:36.000Z</time>
      </trkpt>
      <trkpt lat="45.70496" lon="-1.21864">
        <ele>16.2</ele>
        <time>2021-09-26T14:07:30.000Z</time>
      </trkpt>
      <trkpt lat="45.70488" lon="-1.21874">
        <ele>16.1</ele>
        <time>2021-09-26T14:07:19.000Z</time>
      </trkpt>
      <trkpt lat="45.70482" lon="-1.21885">
        <ele>16.1</ele>
        <time>2021-09-26T14:07:13.000Z</time>
      </trkpt>
      <trkpt lat="45.70476" lon="-1.21894">
        <ele>16.3</ele>
        <time>2021-09-26T14:07:07.000Z</time>
      </trkpt>
      <trkpt lat="45.70469" lon="-1.21904">
        <ele>16.2</ele>
        <time>2021-09-26T14:07:02.000Z</time>
      </trkpt>
      <trkpt lat="45.70462" lon="-1.21914">
        <ele>16.2</ele>
        <time>2021-09-26T14:06:57.000Z</time>
      </trkpt>
      <trkpt lat="45.70455" lon="-1.21922">
        <ele>16</ele>
        <time>2021-09-26T14:06:50.000Z</time>
      </trkpt>
      <trkpt lat="45.70448" lon="-1.21931">
        <ele>15.9</ele>
        <time>2021-09-26T14:06:44.000Z</time>
      </trkpt>
      <trkpt lat="45.70442" lon="-1.21941">
        <ele>15.5</ele>
        <time>2021-09-26T14:06:39.000Z</time>
      </trkpt>
      <trkpt lat="45.70434" lon="-1.21956">
        <ele>15</ele>
        <time>2021-09-26T14:06:31.000Z</time>
      </trkpt>
      <trkpt lat="45.70428" lon="-1.21965">
        <ele>14.5</ele>
        <time>2021-09-26T14:06:25.000Z</time>
      </trkpt>
      <trkpt lat="45.70419" lon="-1.21975">
        <ele>13.9</ele>
        <time>2021-09-26T14:06:18.000Z</time>
      </trkpt>
      <trkpt lat="45.70412" lon="-1.21984">
        <ele>13.7</ele>
        <time>2021-09-26T14:06:10.000Z</time>
      </trkpt>
      <trkpt lat="45.70407" lon="-1.21995">
        <ele>13.6</ele>
        <time>2021-09-26T14:06:02.000Z</time>
      </trkpt>
      <trkpt lat="45.70403" lon="-1.22007">
        <ele>13.6</ele>
        <time>2021-09-26T14:05:55.000Z</time>
      </trkpt>
      <trkpt lat="45.70397" lon="-1.22018">
        <ele>13.7</ele>
        <time>2021-09-26T14:05:44.000Z</time>
      </trkpt>
      <trkpt lat="45.70389" lon="-1.22025">
        <ele>13.8</ele>
        <time>2021-09-26T14:05:37.000Z</time>
      </trkpt>
      <trkpt lat="45.7038" lon="-1.22027">
        <ele>14.4</ele>
        <time>2021-09-26T14:05:32.000Z</time>
      </trkpt>
      <trkpt lat="45.70371" lon="-1.22024">
        <ele>14.7</ele>
        <time>2021-09-26T14:05:26.000Z</time>
      </trkpt>
      <trkpt lat="45.70361" lon="-1.22024">
        <ele>15.8</ele>
        <time>2021-09-26T14:05:19.000Z</time>
      </trkpt>
      <trkpt lat="45.70352" lon="-1.22023">
        <ele>17</ele>
        <time>2021-09-26T14:05:13.000Z</time>
      </trkpt>
      <trkpt lat="45.70342" lon="-1.22025">
        <ele>18.9</ele>
        <time>2021-09-26T14:05:07.000Z</time>
      </trkpt>
      <trkpt lat="45.70331" lon="-1.22026">
        <ele>21.5</ele>
        <time>2021-09-26T14:04:59.000Z</time>
      </trkpt>
      <trkpt lat="45.7032" lon="-1.2203">
        <ele>21.7</ele>
        <time>2021-09-26T14:04:53.000Z</time>
      </trkpt>
      <trkpt lat="45.70311" lon="-1.22031">
        <ele>21.6</ele>
        <time>2021-09-26T14:04:47.000Z</time>
      </trkpt>
      <trkpt lat="45.70302" lon="-1.22031">
        <ele>21.5</ele>
        <time>2021-09-26T14:04:43.000Z</time>
      </trkpt>
      <trkpt lat="45.70291" lon="-1.22033">
        <ele>21.4</ele>
        <time>2021-09-26T14:04:40.000Z</time>
      </trkpt>
      <trkpt lat="45.70279" lon="-1.22036">
        <ele>21.3</ele>
        <time>2021-09-26T14:04:37.000Z</time>
      </trkpt>
      <trkpt lat="45.7027" lon="-1.22036">
        <ele>21</ele>
        <time>2021-09-26T14:04:34.000Z</time>
      </trkpt>
      <trkpt lat="45.7026" lon="-1.22034">
        <ele>20.6</ele>
        <time>2021-09-26T14:04:31.000Z</time>
      </trkpt>
      <trkpt lat="45.7025" lon="-1.22035">
        <ele>20.4</ele>
        <time>2021-09-26T14:04:28.000Z</time>
      </trkpt>
      <trkpt lat="45.7024" lon="-1.22038">
        <ele>20.2</ele>
        <time>2021-09-26T14:04:25.000Z</time>
      </trkpt>
      <trkpt lat="45.70229" lon="-1.22039">
        <ele>20.2</ele>
        <time>2021-09-26T14:04:22.000Z</time>
      </trkpt>
      <trkpt lat="45.7022" lon="-1.22039">
        <ele>20.2</ele>
        <time>2021-09-26T14:04:19.000Z</time>
      </trkpt>
      <trkpt lat="45.70208" lon="-1.22041">
        <ele>20.2</ele>
        <time>2021-09-26T14:04:15.000Z</time>
      </trkpt>
      <trkpt lat="45.702" lon="-1.22036">
        <ele>20.4</ele>
        <time>2021-09-26T14:04:08.000Z</time>
      </trkpt>
      <trkpt lat="45.7019" lon="-1.22035">
        <ele>20.8</ele>
        <time>2021-09-26T14:04:01.000Z</time>
      </trkpt>
      <trkpt lat="45.7018" lon="-1.22036">
        <ele>21.1</ele>
        <time>2021-09-26T14:03:55.000Z</time>
      </trkpt>
      <trkpt lat="45.70171" lon="-1.22039">
        <ele>21.5</ele>
        <time>2021-09-26T14:03:51.000Z</time>
      </trkpt>
      <trkpt lat="45.70159" lon="-1.22041">
        <ele>21.7</ele>
        <time>2021-09-26T14:03:44.000Z</time>
      </trkpt>
      <trkpt lat="45.7015" lon="-1.22038">
        <ele>21.7</ele>
        <time>2021-09-26T14:03:38.000Z</time>
      </trkpt>
      <trkpt lat="45.7014" lon="-1.22035">
        <ele>21.6</ele>
        <time>2021-09-26T14:03:32.000Z</time>
      </trkpt>
      <trkpt lat="45.70131" lon="-1.22039">
        <ele>21.4</ele>
        <time>2021-09-26T14:03:28.000Z</time>
      </trkpt>
      <trkpt lat="45.70121" lon="-1.22038">
        <ele>21.1</ele>
        <time>2021-09-26T14:03:21.000Z</time>
      </trkpt>
      <trkpt lat="45.70111" lon="-1.22039">
        <ele>20.6</ele>
        <time>2021-09-26T14:03:15.000Z</time>
      </trkpt>
      <trkpt lat="45.70101" lon="-1.22042">
        <ele>19.3</ele>
        <time>2021-09-26T14:03:07.000Z</time>
      </trkpt>
      <trkpt lat="45.70092" lon="-1.22041">
        <ele>18.4</ele>
        <time>2021-09-26T14:03:00.000Z</time>
      </trkpt>
      <trkpt lat="45.70082" lon="-1.22042">
        <ele>17.5</ele>
        <time>2021-09-26T14:02:53.000Z</time>
      </trkpt>
      <trkpt lat="45.70073" lon="-1.22045">
        <ele>17.6</ele>
        <time>2021-09-26T14:02:48.000Z</time>
      </trkpt>
      <trkpt lat="45.70064" lon="-1.22041">
        <ele>17.6</ele>
        <time>2021-09-26T14:02:41.000Z</time>
      </trkpt>
      <trkpt lat="45.70055" lon="-1.22043">
        <ele>17.9</ele>
        <time>2021-09-26T14:02:34.000Z</time>
      </trkpt>
      <trkpt lat="45.70045" lon="-1.22044">
        <ele>18.1</ele>
        <time>2021-09-26T14:02:28.000Z</time>
      </trkpt>
      <trkpt lat="45.70036" lon="-1.22044">
        <ele>18.1</ele>
        <time>2021-09-26T14:02:22.000Z</time>
      </trkpt>
      <trkpt lat="45.70025" lon="-1.22044">
        <ele>18.4</ele>
        <time>2021-09-26T14:02:16.000Z</time>
      </trkpt>
      <trkpt lat="45.70015" lon="-1.22048">
        <ele>18.6</ele>
        <time>2021-09-26T14:02:11.000Z</time>
      </trkpt>
      <trkpt lat="45.70005" lon="-1.22046">
        <ele>18.7</ele>
        <time>2021-09-26T14:02:05.000Z</time>
      </trkpt>
      <trkpt lat="45.69995" lon="-1.22048">
        <ele>18.8</ele>
        <time>2021-09-26T14:01:58.000Z</time>
      </trkpt>
      <trkpt lat="45.69985" lon="-1.22047">
        <ele>18.8</ele>
        <time>2021-09-26T14:01:51.000Z</time>
      </trkpt>
      <trkpt lat="45.69975" lon="-1.22047">
        <ele>18.9</ele>
        <time>2021-09-26T14:01:46.000Z</time>
      </trkpt>
      <trkpt lat="45.69966" lon="-1.22048">
        <ele>19.5</ele>
        <time>2021-09-26T14:01:40.000Z</time>
      </trkpt>
      <trkpt lat="45.69957" lon="-1.2205">
        <ele>20.1</ele>
        <time>2021-09-26T14:01:35.000Z</time>
      </trkpt>
      <trkpt lat="45.69947" lon="-1.22049">
        <ele>19.8</ele>
        <time>2021-09-26T14:01:29.000Z</time>
      </trkpt>
      <trkpt lat="45.69937" lon="-1.22046">
        <ele>18.2</ele>
        <time>2021-09-26T14:01:22.000Z</time>
      </trkpt>
      <trkpt lat="45.69926" lon="-1.22046">
        <ele>15.1</ele>
        <time>2021-09-26T14:01:18.000Z</time>
      </trkpt>
      <trkpt lat="45.69917" lon="-1.22047">
        <ele>13.6</ele>
        <time>2021-09-26T14:01:16.000Z</time>
      </trkpt>
      <trkpt lat="45.69905" lon="-1.22052">
        <ele>12.8</ele>
        <time>2021-09-26T14:01:12.000Z</time>
      </trkpt>
      <trkpt lat="45.69895" lon="-1.22052">
        <ele>12.7</ele>
        <time>2021-09-26T14:01:06.000Z</time>
      </trkpt>
      <trkpt lat="45.69886" lon="-1.2205">
        <ele>12.5</ele>
        <time>2021-09-26T14:01:00.000Z</time>
      </trkpt>
      <trkpt lat="45.69877" lon="-1.22049">
        <ele>12.4</ele>
        <time>2021-09-26T14:00:53.000Z</time>
      </trkpt>
      <trkpt lat="45.69867" lon="-1.22049">
        <ele>12.4</ele>
        <time>2021-09-26T14:00:45.000Z</time>
      </trkpt>
      <trkpt lat="45.69858" lon="-1.22042">
        <ele>12.6</ele>
        <time>2021-09-26T14:00:33.000Z</time>
      </trkpt>
      <trkpt lat="45.69848" lon="-1.22047">
        <ele>13</ele>
        <time>2021-09-26T13:58:40.000Z</time>
      </trkpt>
      <trkpt lat="45.69839" lon="-1.22047">
        <ele>13.7</ele>
        <time>2021-09-26T13:58:33.000Z</time>
      </trkpt>
      <trkpt lat="45.69829" lon="-1.22051">
        <ele>14.4</ele>
        <time>2021-09-26T13:58:23.000Z</time>
      </trkpt>
      <trkpt lat="45.6982" lon="-1.22056">
        <ele>15.2</ele>
        <time>2021-09-26T13:58:08.000Z</time>
      </trkpt>
      <trkpt lat="45.6981" lon="-1.22057">
        <ele>15.1</ele>
        <time>2021-09-26T13:58:02.000Z</time>
      </trkpt>
      <trkpt lat="45.69801" lon="-1.22058">
        <ele>14.5</ele>
        <time>2021-09-26T13:57:56.000Z</time>
      </trkpt>
      <trkpt lat="45.69792" lon="-1.2206">
        <ele>14.1</ele>
        <time>2021-09-26T13:57:50.000Z</time>
      </trkpt>
      <trkpt lat="45.69783" lon="-1.22058">
        <ele>14.7</ele>
        <time>2021-09-26T13:57:43.000Z</time>
      </trkpt>
      <trkpt lat="45.69775" lon="-1.22063">
        <ele>15</ele>
        <time>2021-09-26T13:57:39.000Z</time>
      </trkpt>
      <trkpt lat="45.69764" lon="-1.22066">
        <ele>14.9</ele>
        <time>2021-09-26T13:57:33.000Z</time>
      </trkpt>
      <trkpt lat="45.69755" lon="-1.22067">
        <ele>14.4</ele>
        <time>2021-09-26T13:57:28.000Z</time>
      </trkpt>
      <trkpt lat="45.69745" lon="-1.22065">
        <ele>13.2</ele>
        <time>2021-09-26T13:57:20.000Z</time>
      </trkpt>
      <trkpt lat="45.69736" lon="-1.22061">
        <ele>13.3</ele>
        <time>2021-09-26T13:57:12.000Z</time>
      </trkpt>
      <trkpt lat="45.69726" lon="-1.22065">
        <ele>13.9</ele>
        <time>2021-09-26T13:57:01.000Z</time>
      </trkpt>
      <trkpt lat="45.69721" lon="-1.22077">
        <ele>13.5</ele>
        <time>2021-09-26T13:56:57.000Z</time>
      </trkpt>
      <trkpt lat="45.69715" lon="-1.22088">
        <ele>12.8</ele>
        <time>2021-09-26T13:56:51.000Z</time>
      </trkpt>
      <trkpt lat="45.69707" lon="-1.22094">
        <ele>13.5</ele>
        <time>2021-09-26T13:56:44.000Z</time>
      </trkpt>
      <trkpt lat="45.69697" lon="-1.22099">
        <ele>14.5</ele>
        <time>2021-09-26T13:56:36.000Z</time>
      </trkpt>
      <trkpt lat="45.69689" lon="-1.22107">
        <ele>16.5</ele>
        <time>2021-09-26T13:56:26.000Z</time>
      </trkpt>
      <trkpt lat="45.69681" lon="-1.22114">
        <ele>16.9</ele>
        <time>2021-09-26T13:56:17.000Z</time>
      </trkpt>
      <trkpt lat="45.69674" lon="-1.22122">
        <ele>16.9</ele>
        <time>2021-09-26T13:56:11.000Z</time>
      </trkpt>
      <trkpt lat="45.69666" lon="-1.22129">
        <ele>16.9</ele>
        <time>2021-09-26T13:56:06.000Z</time>
      </trkpt>
      <trkpt lat="45.69656" lon="-1.2213">
        <ele>17</ele>
        <time>2021-09-26T13:56:01.000Z</time>
      </trkpt>
      <trkpt lat="45.69646" lon="-1.22129">
        <ele>16.9</ele>
        <time>2021-09-26T13:55:56.000Z</time>
      </trkpt>
      <trkpt lat="45.69636" lon="-1.22126">
        <ele>16.7</ele>
        <time>2021-09-26T13:55:50.000Z</time>
      </trkpt>
      <trkpt lat="45.69626" lon="-1.22119">
        <ele>16.1</ele>
        <time>2021-09-26T13:55:44.000Z</time>
      </trkpt>
      <trkpt lat="45.69617" lon="-1.22113">
        <ele>14.6</ele>
        <time>2021-09-26T13:55:35.000Z</time>
      </trkpt>
      <trkpt lat="45.69608" lon="-1.2211">
        <ele>12.9</ele>
        <time>2021-09-26T13:55:30.000Z</time>
      </trkpt>
      <trkpt lat="45.69597" lon="-1.22107">
        <ele>10.3</ele>
        <time>2021-09-26T13:55:24.000Z</time>
      </trkpt>
      <trkpt lat="45.69588" lon="-1.2211">
        <ele>10.3</ele>
        <time>2021-09-26T13:55:16.000Z</time>
      </trkpt>
      <trkpt lat="45.69584" lon="-1.22122">
        <ele>10.3</ele>
        <time>2021-09-26T13:55:10.000Z</time>
      </trkpt>
      <trkpt lat="45.69584" lon="-1.22135">
        <ele>10.3</ele>
        <time>2021-09-26T13:55:03.000Z</time>
      </trkpt>
      <trkpt lat="45.69582" lon="-1.22147">
        <ele>10.2</ele>
        <time>2021-09-26T13:54:58.000Z</time>
      </trkpt>
      <trkpt lat="45.6958" lon="-1.22161">
        <ele>10.1</ele>
        <time>2021-09-26T13:54:51.000Z</time>
      </trkpt>
      <trkpt lat="45.69576" lon="-1.22173">
        <ele>10.1</ele>
        <time>2021-09-26T13:54:47.000Z</time>
      </trkpt>
      <trkpt lat="45.69571" lon="-1.22187">
        <ele>10.1</ele>
        <time>2021-09-26T13:54:42.000Z</time>
      </trkpt>
      <trkpt lat="45.69568" lon="-1.222">
        <ele>10.1</ele>
        <time>2021-09-26T13:54:36.000Z</time>
      </trkpt>
      <trkpt lat="45.69565" lon="-1.22213">
        <ele>10.1</ele>
        <time>2021-09-26T13:54:30.000Z</time>
      </trkpt>
      <trkpt lat="45.69566" lon="-1.22226">
        <ele>10.1</ele>
        <time>2021-09-26T13:54:22.000Z</time>
      </trkpt>
      <trkpt lat="45.69562" lon="-1.22239">
        <ele>10.1</ele>
        <time>2021-09-26T13:54:15.000Z</time>
      </trkpt>
      <trkpt lat="45.69559" lon="-1.22253">
        <ele>9.9</ele>
        <time>2021-09-26T13:54:09.000Z</time>
      </trkpt>
      <trkpt lat="45.69557" lon="-1.22267">
        <ele>9.8</ele>
        <time>2021-09-26T13:54:03.000Z</time>
      </trkpt>
      <trkpt lat="45.69554" lon="-1.2228">
        <ele>9.7</ele>
        <time>2021-09-26T13:53:58.000Z</time>
      </trkpt>
      <trkpt lat="45.69551" lon="-1.22296">
        <ele>9.7</ele>
        <time>2021-09-26T13:53:52.000Z</time>
      </trkpt>
      <trkpt lat="45.69547" lon="-1.22307">
        <ele>9.7</ele>
        <time>2021-09-26T13:53:47.000Z</time>
      </trkpt>
      <trkpt lat="45.69542" lon="-1.22321">
        <ele>9.7</ele>
        <time>2021-09-26T13:53:41.000Z</time>
      </trkpt>
      <trkpt lat="45.69537" lon="-1.22331">
        <ele>9.7</ele>
        <time>2021-09-26T13:53:38.000Z</time>
      </trkpt>
      <trkpt lat="45.69534" lon="-1.22345">
        <ele>9.7</ele>
        <time>2021-09-26T13:53:31.000Z</time>
      </trkpt>
      <trkpt lat="45.69533" lon="-1.22358">
        <ele>9.7</ele>
        <time>2021-09-26T13:53:23.000Z</time>
      </trkpt>
      <trkpt lat="45.69532" lon="-1.22371">
        <ele>9.8</ele>
        <time>2021-09-26T13:53:16.000Z</time>
      </trkpt>
      <trkpt lat="45.69529" lon="-1.22383">
        <ele>9.7</ele>
        <time>2021-09-26T13:53:10.000Z</time>
      </trkpt>
      <trkpt lat="45.69529" lon="-1.22396">
        <ele>9.6</ele>
        <time>2021-09-26T13:53:04.000Z</time>
      </trkpt>
      <trkpt lat="45.69526" lon="-1.2241">
        <ele>9.6</ele>
        <time>2021-09-26T13:52:58.000Z</time>
      </trkpt>
      <trkpt lat="45.69522" lon="-1.22422">
        <ele>9.6</ele>
        <time>2021-09-26T13:52:53.000Z</time>
      </trkpt>
      <trkpt lat="45.69518" lon="-1.22434">
        <ele>9.6</ele>
        <time>2021-09-26T13:52:47.000Z</time>
      </trkpt>
      <trkpt lat="45.69513" lon="-1.22446">
        <ele>9.6</ele>
        <time>2021-09-26T13:52:41.000Z</time>
      </trkpt>
      <trkpt lat="45.69508" lon="-1.22459">
        <ele>9.6</ele>
        <time>2021-09-26T13:52:34.000Z</time>
      </trkpt>
      <trkpt lat="45.69503" lon="-1.2247">
        <ele>9.5</ele>
        <time>2021-09-26T13:52:28.000Z</time>
      </trkpt>
      <trkpt lat="45.69499" lon="-1.22483">
        <ele>9.4</ele>
        <time>2021-09-26T13:52:22.000Z</time>
      </trkpt>
      <trkpt lat="45.69496" lon="-1.22498">
        <ele>9.4</ele>
        <time>2021-09-26T13:52:16.000Z</time>
      </trkpt>
      <trkpt lat="45.69496" lon="-1.22514">
        <ele>9.4</ele>
        <time>2021-09-26T13:52:10.000Z</time>
      </trkpt>
      <trkpt lat="45.69493" lon="-1.22528">
        <ele>9.4</ele>
        <time>2021-09-26T13:52:04.000Z</time>
      </trkpt>
      <trkpt lat="45.6949" lon="-1.22541">
        <ele>9.4</ele>
        <time>2021-09-26T13:51:58.000Z</time>
      </trkpt>
      <trkpt lat="45.69488" lon="-1.22555">
        <ele>9.4</ele>
        <time>2021-09-26T13:51:53.000Z</time>
      </trkpt>
      <trkpt lat="45.69485" lon="-1.22568">
        <ele>9.4</ele>
        <time>2021-09-26T13:51:46.000Z</time>
      </trkpt>
      <trkpt lat="45.69481" lon="-1.22581">
        <ele>9.4</ele>
        <time>2021-09-26T13:51:40.000Z</time>
      </trkpt>
      <trkpt lat="45.69478" lon="-1.22593">
        <ele>9.5</ele>
        <time>2021-09-26T13:51:35.000Z</time>
      </trkpt>
      <trkpt lat="45.69473" lon="-1.22607">
        <ele>9.5</ele>
        <time>2021-09-26T13:51:29.000Z</time>
      </trkpt>
      <trkpt lat="45.69469" lon="-1.22619">
        <ele>9.5</ele>
        <time>2021-09-26T13:51:23.000Z</time>
      </trkpt>
      <trkpt lat="45.69464" lon="-1.22632">
        <ele>9.5</ele>
        <time>2021-09-26T13:51:16.000Z</time>
      </trkpt>
      <trkpt lat="45.6946" lon="-1.22645">
        <ele>9.5</ele>
        <time>2021-09-26T13:51:09.000Z</time>
      </trkpt>
      <trkpt lat="45.69457" lon="-1.22658">
        <ele>9.5</ele>
        <time>2021-09-26T13:51:03.000Z</time>
      </trkpt>
      <trkpt lat="45.69453" lon="-1.22669">
        <ele>9.4</ele>
        <time>2021-09-26T13:50:57.000Z</time>
      </trkpt>
      <trkpt lat="45.69451" lon="-1.22684">
        <ele>9.5</ele>
        <time>2021-09-26T13:50:50.000Z</time>
      </trkpt>
      <trkpt lat="45.6945" lon="-1.22697">
        <ele>10</ele>
        <time>2021-09-26T13:50:44.000Z</time>
      </trkpt>
      <trkpt lat="45.69448" lon="-1.22711">
        <ele>10</ele>
        <time>2021-09-26T13:50:38.000Z</time>
      </trkpt>
      <trkpt lat="45.69445" lon="-1.22726">
        <ele>9.6</ele>
        <time>2021-09-26T13:50:32.000Z</time>
      </trkpt>
      <trkpt lat="45.69442" lon="-1.2274">
        <ele>9.4</ele>
        <time>2021-09-26T13:50:26.000Z</time>
      </trkpt>
      <trkpt lat="45.69439" lon="-1.22753">
        <ele>10.2</ele>
        <time>2021-09-26T13:50:20.000Z</time>
      </trkpt>
      <trkpt lat="45.69436" lon="-1.22767">
        <ele>10.2</ele>
        <time>2021-09-26T13:50:14.000Z</time>
      </trkpt>
      <trkpt lat="45.69432" lon="-1.22779">
        <ele>10</ele>
        <time>2021-09-26T13:50:09.000Z</time>
      </trkpt>
      <trkpt lat="45.69428" lon="-1.22792">
        <ele>10.1</ele>
        <time>2021-09-26T13:50:03.000Z</time>
      </trkpt>
      <trkpt lat="45.69428" lon="-1.22806">
        <ele>10.1</ele>
        <time>2021-09-26T13:49:56.000Z</time>
      </trkpt>
      <trkpt lat="45.69424" lon="-1.22819">
        <ele>9.9</ele>
        <time>2021-09-26T13:49:49.000Z</time>
      </trkpt>
      <trkpt lat="45.6942" lon="-1.22831">
        <ele>9.8</ele>
        <time>2021-09-26T13:49:43.000Z</time>
      </trkpt>
      <trkpt lat="45.69416" lon="-1.22844">
        <ele>9.9</ele>
        <time>2021-09-26T13:49:37.000Z</time>
      </trkpt>
      <trkpt lat="45.69412" lon="-1.22856">
        <ele>10</ele>
        <time>2021-09-26T13:49:31.000Z</time>
      </trkpt>
      <trkpt lat="45.69406" lon="-1.22868">
        <ele>10</ele>
        <time>2021-09-26T13:49:25.000Z</time>
      </trkpt>
      <trkpt lat="45.69402" lon="-1.22881">
        <ele>10</ele>
        <time>2021-09-26T13:49:19.000Z</time>
      </trkpt>
      <trkpt lat="45.694" lon="-1.22896">
        <ele>9.9</ele>
        <time>2021-09-26T13:49:12.000Z</time>
      </trkpt>
      <trkpt lat="45.69396" lon="-1.22908">
        <ele>9.7</ele>
        <time>2021-09-26T13:49:06.000Z</time>
      </trkpt>
      <trkpt lat="45.69395" lon="-1.22921">
        <ele>10.1</ele>
        <time>2021-09-26T13:49:00.000Z</time>
      </trkpt>
      <trkpt lat="45.69391" lon="-1.22933">
        <ele>10.1</ele>
        <time>2021-09-26T13:48:55.000Z</time>
      </trkpt>
      <trkpt lat="45.69386" lon="-1.22945">
        <ele>10.1</ele>
        <time>2021-09-26T13:48:49.000Z</time>
      </trkpt>
      <trkpt lat="45.69383" lon="-1.22958">
        <ele>10.1</ele>
        <time>2021-09-26T13:48:43.000Z</time>
      </trkpt>
      <trkpt lat="45.69378" lon="-1.22972">
        <ele>10.1</ele>
        <time>2021-09-26T13:48:36.000Z</time>
      </trkpt>
      <trkpt lat="45.69374" lon="-1.22985">
        <ele>10.1</ele>
        <time>2021-09-26T13:48:30.000Z</time>
      </trkpt>
      <trkpt lat="45.69368" lon="-1.22996">
        <ele>10.1</ele>
        <time>2021-09-26T13:48:24.000Z</time>
      </trkpt>
      <trkpt lat="45.6936" lon="-1.23006">
        <ele>9.8</ele>
        <time>2021-09-26T13:48:17.000Z</time>
      </trkpt>
      <trkpt lat="45.69352" lon="-1.23014">
        <ele>10</ele>
        <time>2021-09-26T13:48:11.000Z</time>
      </trkpt>
      <trkpt lat="45.69344" lon="-1.23023">
        <ele>10.2</ele>
        <time>2021-09-26T13:48:05.000Z</time>
      </trkpt>
      <trkpt lat="45.69338" lon="-1.23032">
        <ele>10.5</ele>
        <time>2021-09-26T13:47:59.000Z</time>
      </trkpt>
      <trkpt lat="45.69336" lon="-1.23046">
        <ele>10.4</ele>
        <time>2021-09-26T13:47:53.000Z</time>
      </trkpt>
      <trkpt lat="45.69334" lon="-1.23059">
        <ele>10.4</ele>
        <time>2021-09-26T13:47:47.000Z</time>
      </trkpt>
      <trkpt lat="45.69333" lon="-1.23074">
        <ele>10.3</ele>
        <time>2021-09-26T13:47:41.000Z</time>
      </trkpt>
      <trkpt lat="45.69333" lon="-1.23088">
        <ele>10.5</ele>
        <time>2021-09-26T13:47:35.000Z</time>
      </trkpt>
      <trkpt lat="45.69331" lon="-1.23102">
        <ele>10.6</ele>
        <time>2021-09-26T13:47:29.000Z</time>
      </trkpt>
      <trkpt lat="45.69327" lon="-1.23113">
        <ele>10.4</ele>
        <time>2021-09-26T13:47:23.000Z</time>
      </trkpt>
      <trkpt lat="45.69324" lon="-1.23128">
        <ele>10.3</ele>
        <time>2021-09-26T13:47:17.000Z</time>
      </trkpt>
      <trkpt lat="45.69321" lon="-1.23142">
        <ele>10</ele>
        <time>2021-09-26T13:47:11.000Z</time>
      </trkpt>
      <trkpt lat="45.69314" lon="-1.23153">
        <ele>10</ele>
        <time>2021-09-26T13:47:06.000Z</time>
      </trkpt>
      <trkpt lat="45.6931" lon="-1.23165">
        <ele>10.2</ele>
        <time>2021-09-26T13:47:00.000Z</time>
      </trkpt>
      <trkpt lat="45.69305" lon="-1.23177">
        <ele>10.6</ele>
        <time>2021-09-26T13:46:54.000Z</time>
      </trkpt>
      <trkpt lat="45.693" lon="-1.23189">
        <ele>10.6</ele>
        <time>2021-09-26T13:46:48.000Z</time>
      </trkpt>
      <trkpt lat="45.69295" lon="-1.232">
        <ele>10.6</ele>
        <time>2021-09-26T13:46:42.000Z</time>
      </trkpt>
      <trkpt lat="45.69291" lon="-1.23211">
        <ele>10.6</ele>
        <time>2021-09-26T13:46:35.000Z</time>
      </trkpt>
      <trkpt lat="45.69287" lon="-1.23226">
        <ele>10.9</ele>
        <time>2021-09-26T13:46:28.000Z</time>
      </trkpt>
      <trkpt lat="45.69283" lon="-1.23239">
        <ele>11.2</ele>
        <time>2021-09-26T13:46:21.000Z</time>
      </trkpt>
      <trkpt lat="45.69279" lon="-1.23251">
        <ele>11.2</ele>
        <time>2021-09-26T13:46:15.000Z</time>
      </trkpt>
      <trkpt lat="45.69275" lon="-1.23264">
        <ele>11.2</ele>
        <time>2021-09-26T13:46:09.000Z</time>
      </trkpt>
      <trkpt lat="45.69271" lon="-1.23275">
        <ele>11.5</ele>
        <time>2021-09-26T13:46:03.000Z</time>
      </trkpt>
      <trkpt lat="45.69265" lon="-1.23286">
        <ele>13.4</ele>
        <time>2021-09-26T13:45:57.000Z</time>
      </trkpt>
      <trkpt lat="45.69262" lon="-1.23299">
        <ele>14.3</ele>
        <time>2021-09-26T13:45:51.000Z</time>
      </trkpt>
      <trkpt lat="45.6926" lon="-1.23313">
        <ele>15.4</ele>
        <time>2021-09-26T13:45:44.000Z</time>
      </trkpt>
      <trkpt lat="45.69259" lon="-1.23326">
        <ele>16.4</ele>
        <time>2021-09-26T13:45:38.000Z</time>
      </trkpt>
      <trkpt lat="45.69261" lon="-1.2334">
        <ele>16.3</ele>
        <time>2021-09-26T13:45:31.000Z</time>
      </trkpt>
      <trkpt lat="45.6926" lon="-1.23353">
        <ele>15.7</ele>
        <time>2021-09-26T13:45:24.000Z</time>
      </trkpt>
      <trkpt lat="45.69257" lon="-1.23366">
        <ele>15</ele>
        <time>2021-09-26T13:45:16.000Z</time>
      </trkpt>
      <trkpt lat="45.69253" lon="-1.23379">
        <ele>14</ele>
        <time>2021-09-26T13:45:09.000Z</time>
      </trkpt>
      <trkpt lat="45.6925" lon="-1.23393">
        <ele>12</ele>
        <time>2021-09-26T13:45:03.000Z</time>
      </trkpt>
      <trkpt lat="45.69252" lon="-1.23408">
        <ele>11.5</ele>
        <time>2021-09-26T13:44:58.000Z</time>
      </trkpt>
      <trkpt lat="45.69257" lon="-1.2342">
        <ele>10.3</ele>
        <time>2021-09-26T13:44:52.000Z</time>
      </trkpt>
      <trkpt lat="45.69258" lon="-1.23432">
        <ele>9.9</ele>
        <time>2021-09-26T13:44:46.000Z</time>
      </trkpt>
      <trkpt lat="45.69262" lon="-1.23445">
        <ele>10.3</ele>
        <time>2021-09-26T13:44:40.000Z</time>
      </trkpt>
      <trkpt lat="45.69266" lon="-1.23458">
        <ele>10.2</ele>
        <time>2021-09-26T13:44:34.000Z</time>
      </trkpt>
      <trkpt lat="45.69269" lon="-1.2347">
        <ele>9.8</ele>
        <time>2021-09-26T13:44:28.000Z</time>
      </trkpt>
      <trkpt lat="45.69272" lon="-1.23483">
        <ele>9.5</ele>
        <time>2021-09-26T13:44:22.000Z</time>
      </trkpt>
      <trkpt lat="45.69277" lon="-1.23495">
        <ele>8.9</ele>
        <time>2021-09-26T13:44:16.000Z</time>
      </trkpt>
      <trkpt lat="45.69282" lon="-1.23507">
        <ele>8.8</ele>
        <time>2021-09-26T13:44:10.000Z</time>
      </trkpt>
      <trkpt lat="45.69286" lon="-1.2352">
        <ele>9.2</ele>
        <time>2021-09-26T13:44:04.000Z</time>
      </trkpt>
      <trkpt lat="45.6929" lon="-1.23532">
        <ele>8.6</ele>
        <time>2021-09-26T13:43:58.000Z</time>
      </trkpt>
      <trkpt lat="45.69293" lon="-1.23545">
        <ele>8.6</ele>
        <time>2021-09-26T13:43:52.000Z</time>
      </trkpt>
      <trkpt lat="45.69298" lon="-1.23557">
        <ele>8</ele>
        <time>2021-09-26T13:43:46.000Z</time>
      </trkpt>
      <trkpt lat="45.69304" lon="-1.23567">
        <ele>7.5</ele>
        <time>2021-09-26T13:43:37.000Z</time>
      </trkpt>
      <trkpt lat="45.69311" lon="-1.23578">
        <ele>6.6</ele>
        <time>2021-09-26T13:43:31.000Z</time>
      </trkpt>
      <trkpt lat="45.69318" lon="-1.23586">
        <ele>6.8</ele>
        <time>2021-09-26T13:43:25.000Z</time>
      </trkpt>
      <trkpt lat="45.69323" lon="-1.23597">
        <ele>7.7</ele>
        <time>2021-09-26T13:43:17.000Z</time>
      </trkpt>
      <trkpt lat="45.69332" lon="-1.23605">
        <ele>7.9</ele>
        <time>2021-09-26T13:43:10.000Z</time>
      </trkpt>
      <trkpt lat="45.69341" lon="-1.23609">
        <ele>8.6</ele>
        <time>2021-09-26T13:43:03.000Z</time>
      </trkpt>
      <trkpt lat="45.6935" lon="-1.23615">
        <ele>8.2</ele>
        <time>2021-09-26T13:42:57.000Z</time>
      </trkpt>
      <trkpt lat="45.69359" lon="-1.23622">
        <ele>7.4</ele>
        <time>2021-09-26T13:42:53.000Z</time>
      </trkpt>
      <trkpt lat="45.69368" lon="-1.23631">
        <ele>7</ele>
        <time>2021-09-26T13:42:49.000Z</time>
      </trkpt>
      <trkpt lat="45.69377" lon="-1.23636">
        <ele>7.1</ele>
        <time>2021-09-26T13:42:46.000Z</time>
      </trkpt>
      <trkpt lat="45.69386" lon="-1.23641">
        <ele>7.4</ele>
        <time>2021-09-26T13:42:43.000Z</time>
      </trkpt>
      <trkpt lat="45.69396" lon="-1.23644">
        <ele>7.9</ele>
        <time>2021-09-26T13:42:40.000Z</time>
      </trkpt>
      <trkpt lat="45.69405" lon="-1.23649">
        <ele>7.7</ele>
        <time>2021-09-26T13:42:37.000Z</time>
      </trkpt>
      <trkpt lat="45.69414" lon="-1.23652">
        <ele>8.4</ele>
        <time>2021-09-26T13:42:34.000Z</time>
      </trkpt>
      <trkpt lat="45.69424" lon="-1.23653">
        <ele>8</ele>
        <time>2021-09-26T13:42:31.000Z</time>
      </trkpt>
      <trkpt lat="45.69436" lon="-1.23655">
        <ele>7.8</ele>
        <time>2021-09-26T13:42:27.000Z</time>
      </trkpt>
      <trkpt lat="45.69447" lon="-1.23654">
        <ele>7.5</ele>
        <time>2021-09-26T13:42:24.000Z</time>
      </trkpt>
      <trkpt lat="45.69456" lon="-1.23655">
        <ele>7.1</ele>
        <time>2021-09-26T13:42:21.000Z</time>
      </trkpt>
      <trkpt lat="45.69466" lon="-1.23655">
        <ele>7.5</ele>
        <time>2021-09-26T13:42:18.000Z</time>
      </trkpt>
      <trkpt lat="45.69475" lon="-1.23655">
        <ele>7.9</ele>
        <time>2021-09-26T13:42:15.000Z</time>
      </trkpt>
      <trkpt lat="45.69484" lon="-1.23657">
        <ele>7.8</ele>
        <time>2021-09-26T13:42:10.000Z</time>
      </trkpt>
      <trkpt lat="45.69494" lon="-1.23662">
        <ele>7</ele>
        <time>2021-09-26T13:42:04.000Z</time>
      </trkpt>
      <trkpt lat="45.69504" lon="-1.23662">
        <ele>6.9</ele>
        <time>2021-09-26T13:41:58.000Z</time>
      </trkpt>
      <trkpt lat="45.69513" lon="-1.23661">
        <ele>6.9</ele>
        <time>2021-09-26T13:41:53.000Z</time>
      </trkpt>
      <trkpt lat="45.69523" lon="-1.23662">
        <ele>7</ele>
        <time>2021-09-26T13:41:47.000Z</time>
      </trkpt>
      <trkpt lat="45.69532" lon="-1.23663">
        <ele>7</ele>
        <time>2021-09-26T13:41:41.000Z</time>
      </trkpt>
      <trkpt lat="45.69542" lon="-1.23662">
        <ele>7.2</ele>
        <time>2021-09-26T13:41:35.000Z</time>
      </trkpt>
      <trkpt lat="45.69551" lon="-1.23661">
        <ele>7.2</ele>
        <time>2021-09-26T13:41:29.000Z</time>
      </trkpt>
      <trkpt lat="45.69561" lon="-1.2366">
        <ele>7.2</ele>
        <time>2021-09-26T13:41:23.000Z</time>
      </trkpt>
      <trkpt lat="45.6957" lon="-1.23658">
        <ele>7.5</ele>
        <time>2021-09-26T13:41:17.000Z</time>
      </trkpt>
      <trkpt lat="45.6958" lon="-1.23659">
        <ele>7.5</ele>
        <time>2021-09-26T13:41:11.000Z</time>
      </trkpt>
      <trkpt lat="45.69589" lon="-1.23661">
        <ele>7.5</ele>
        <time>2021-09-26T13:41:05.000Z</time>
      </trkpt>
      <trkpt lat="45.69598" lon="-1.23662">
        <ele>7.4</ele>
        <time>2021-09-26T13:40:59.000Z</time>
      </trkpt>
      <trkpt lat="45.69608" lon="-1.23664">
        <ele>7.2</ele>
        <time>2021-09-26T13:40:53.000Z</time>
      </trkpt>
      <trkpt lat="45.69618" lon="-1.23665">
        <ele>7.2</ele>
        <time>2021-09-26T13:40:46.000Z</time>
      </trkpt>
      <trkpt lat="45.69628" lon="-1.23667">
        <ele>7.1</ele>
        <time>2021-09-26T13:40:40.000Z</time>
      </trkpt>
      <trkpt lat="45.69638" lon="-1.23665">
        <ele>7.4</ele>
        <time>2021-09-26T13:40:34.000Z</time>
      </trkpt>
      <trkpt lat="45.69647" lon="-1.23666">
        <ele>7.8</ele>
        <time>2021-09-26T13:40:28.000Z</time>
      </trkpt>
      <trkpt lat="45.69656" lon="-1.23668">
        <ele>7.8</ele>
        <time>2021-09-26T13:40:22.000Z</time>
      </trkpt>
      <trkpt lat="45.69666" lon="-1.23667">
        <ele>7.8</ele>
        <time>2021-09-26T13:40:16.000Z</time>
      </trkpt>
      <trkpt lat="45.69675" lon="-1.23666">
        <ele>7.5</ele>
        <time>2021-09-26T13:40:08.000Z</time>
      </trkpt>
      <trkpt lat="45.69685" lon="-1.23666">
        <ele>7.5</ele>
        <time>2021-09-26T13:40:01.000Z</time>
      </trkpt>
      <trkpt lat="45.69694" lon="-1.2367">
        <ele>7.5</ele>
        <time>2021-09-26T13:39:55.000Z</time>
      </trkpt>
      <trkpt lat="45.69703" lon="-1.23673">
        <ele>7.5</ele>
        <time>2021-09-26T13:39:49.000Z</time>
      </trkpt>
      <trkpt lat="45.69712" lon="-1.23676">
        <ele>7.6</ele>
        <time>2021-09-26T13:39:43.000Z</time>
      </trkpt>
      <trkpt lat="45.69721" lon="-1.23679">
        <ele>7.6</ele>
        <time>2021-09-26T13:39:37.000Z</time>
      </trkpt>
      <trkpt lat="45.69731" lon="-1.23681">
        <ele>7.4</ele>
        <time>2021-09-26T13:39:31.000Z</time>
      </trkpt>
      <trkpt lat="45.69741" lon="-1.23684">
        <ele>7.1</ele>
        <time>2021-09-26T13:39:25.000Z</time>
      </trkpt>
      <trkpt lat="45.6975" lon="-1.23689">
        <ele>7.5</ele>
        <time>2021-09-26T13:39:19.000Z</time>
      </trkpt>
      <trkpt lat="45.69759" lon="-1.23695">
        <ele>7.5</ele>
        <time>2021-09-26T13:39:13.000Z</time>
      </trkpt>
      <trkpt lat="45.69768" lon="-1.237">
        <ele>7.5</ele>
        <time>2021-09-26T13:39:07.000Z</time>
      </trkpt>
      <trkpt lat="45.69778" lon="-1.23702">
        <ele>7.8</ele>
        <time>2021-09-26T13:39:01.000Z</time>
      </trkpt>
      <trkpt lat="45.69788" lon="-1.23703">
        <ele>7.4</ele>
        <time>2021-09-26T13:38:55.000Z</time>
      </trkpt>
      <trkpt lat="45.69798" lon="-1.23704">
        <ele>6.8</ele>
        <time>2021-09-26T13:38:49.000Z</time>
      </trkpt>
      <trkpt lat="45.69808" lon="-1.23705">
        <ele>7.9</ele>
        <time>2021-09-26T13:38:43.000Z</time>
      </trkpt>
      <trkpt lat="45.69817" lon="-1.23706">
        <ele>7.9</ele>
        <time>2021-09-26T13:38:37.000Z</time>
      </trkpt>
      <trkpt lat="45.69827" lon="-1.23707">
        <ele>7.9</ele>
        <time>2021-09-26T13:38:31.000Z</time>
      </trkpt>
      <trkpt lat="45.69837" lon="-1.23709">
        <ele>7.7</ele>
        <time>2021-09-26T13:38:25.000Z</time>
      </trkpt>
      <trkpt lat="45.69847" lon="-1.23712">
        <ele>8</ele>
        <time>2021-09-26T13:38:19.000Z</time>
      </trkpt>
      <trkpt lat="45.69856" lon="-1.23716">
        <ele>7.8</ele>
        <time>2021-09-26T13:38:13.000Z</time>
      </trkpt>
      <trkpt lat="45.69866" lon="-1.2372">
        <ele>7.5</ele>
        <time>2021-09-26T13:38:07.000Z</time>
      </trkpt>
      <trkpt lat="45.69875" lon="-1.23723">
        <ele>7</ele>
        <time>2021-09-26T13:38:01.000Z</time>
      </trkpt>
      <trkpt lat="45.69885" lon="-1.23726">
        <ele>7</ele>
        <time>2021-09-26T13:37:55.000Z</time>
      </trkpt>
      <trkpt lat="45.69894" lon="-1.23727">
        <ele>7</ele>
        <time>2021-09-26T13:37:49.000Z</time>
      </trkpt>
      <trkpt lat="45.69904" lon="-1.23729">
        <ele>7.1</ele>
        <time>2021-09-26T13:37:43.000Z</time>
      </trkpt>
      <trkpt lat="45.69914" lon="-1.23731">
        <ele>7.1</ele>
        <time>2021-09-26T13:37:37.000Z</time>
      </trkpt>
      <trkpt lat="45.69924" lon="-1.23735">
        <ele>7</ele>
        <time>2021-09-26T13:37:31.000Z</time>
      </trkpt>
      <trkpt lat="45.69933" lon="-1.2374">
        <ele>7</ele>
        <time>2021-09-26T13:37:25.000Z</time>
      </trkpt>
      <trkpt lat="45.69942" lon="-1.23741">
        <ele>7.2</ele>
        <time>2021-09-26T13:37:19.000Z</time>
      </trkpt>
      <trkpt lat="45.69952" lon="-1.23744">
        <ele>7.2</ele>
        <time>2021-09-26T13:37:13.000Z</time>
      </trkpt>
      <trkpt lat="45.69961" lon="-1.23744">
        <ele>7.1</ele>
        <time>2021-09-26T13:37:07.000Z</time>
      </trkpt>
      <trkpt lat="45.6997" lon="-1.23743">
        <ele>7.1</ele>
        <time>2021-09-26T13:37:01.000Z</time>
      </trkpt>
      <trkpt lat="45.6998" lon="-1.23745">
        <ele>7</ele>
        <time>2021-09-26T13:36:55.000Z</time>
      </trkpt>
      <trkpt lat="45.69989" lon="-1.23746">
        <ele>7</ele>
        <time>2021-09-26T13:36:49.000Z</time>
      </trkpt>
      <trkpt lat="45.69999" lon="-1.23748">
        <ele>6.9</ele>
        <time>2021-09-26T13:36:43.000Z</time>
      </trkpt>
      <trkpt lat="45.70009" lon="-1.2375">
        <ele>6.9</ele>
        <time>2021-09-26T13:36:37.000Z</time>
      </trkpt>
      <trkpt lat="45.70019" lon="-1.23751">
        <ele>7</ele>
        <time>2021-09-26T13:36:31.000Z</time>
      </trkpt>
      <trkpt lat="45.70029" lon="-1.23753">
        <ele>7.2</ele>
        <time>2021-09-26T13:36:25.000Z</time>
      </trkpt>
      <trkpt lat="45.70039" lon="-1.23757">
        <ele>7.3</ele>
        <time>2021-09-26T13:36:19.000Z</time>
      </trkpt>
      <trkpt lat="45.70049" lon="-1.2376">
        <ele>7.1</ele>
        <time>2021-09-26T13:36:13.000Z</time>
      </trkpt>
      <trkpt lat="45.70059" lon="-1.23763">
        <ele>6.3</ele>
        <time>2021-09-26T13:36:07.000Z</time>
      </trkpt>
      <trkpt lat="45.70069" lon="-1.23765">
        <ele>7</ele>
        <time>2021-09-26T13:36:01.000Z</time>
      </trkpt>
      <trkpt lat="45.70079" lon="-1.23768">
        <ele>7</ele>
        <time>2021-09-26T13:35:55.000Z</time>
      </trkpt>
      <trkpt lat="45.70089" lon="-1.23771">
        <ele>7.2</ele>
        <time>2021-09-26T13:35:49.000Z</time>
      </trkpt>
      <trkpt lat="45.70099" lon="-1.23773">
        <ele>7.2</ele>
        <time>2021-09-26T13:35:43.000Z</time>
      </trkpt>
      <trkpt lat="45.70109" lon="-1.23776">
        <ele>7.3</ele>
        <time>2021-09-26T13:35:37.000Z</time>
      </trkpt>
      <trkpt lat="45.70119" lon="-1.23778">
        <ele>7.4</ele>
        <time>2021-09-26T13:35:31.000Z</time>
      </trkpt>
      <trkpt lat="45.70129" lon="-1.2378">
        <ele>7.4</ele>
        <time>2021-09-26T13:35:25.000Z</time>
      </trkpt>
      <trkpt lat="45.70139" lon="-1.23784">
        <ele>7.3</ele>
        <time>2021-09-26T13:35:19.000Z</time>
      </trkpt>
      <trkpt lat="45.70149" lon="-1.23784">
        <ele>6.7</ele>
        <time>2021-09-26T13:35:13.000Z</time>
      </trkpt>
      <trkpt lat="45.70158" lon="-1.23786">
        <ele>6.7</ele>
        <time>2021-09-26T13:35:07.000Z</time>
      </trkpt>
      <trkpt lat="45.70168" lon="-1.23789">
        <ele>6.8</ele>
        <time>2021-09-26T13:35:01.000Z</time>
      </trkpt>
      <trkpt lat="45.70177" lon="-1.2379">
        <ele>7.1</ele>
        <time>2021-09-26T13:34:55.000Z</time>
      </trkpt>
      <trkpt lat="45.70187" lon="-1.23792">
        <ele>6.9</ele>
        <time>2021-09-26T13:34:49.000Z</time>
      </trkpt>
      <trkpt lat="45.70197" lon="-1.23796">
        <ele>6.7</ele>
        <time>2021-09-26T13:34:43.000Z</time>
      </trkpt>
      <trkpt lat="45.70207" lon="-1.23798">
        <ele>6.8</ele>
        <time>2021-09-26T13:34:37.000Z</time>
      </trkpt>
      <trkpt lat="45.70217" lon="-1.23798">
        <ele>6.8</ele>
        <time>2021-09-26T13:34:31.000Z</time>
      </trkpt>
      <trkpt lat="45.70227" lon="-1.238">
        <ele>7</ele>
        <time>2021-09-26T13:34:25.000Z</time>
      </trkpt>
      <trkpt lat="45.70237" lon="-1.23801">
        <ele>7.1</ele>
        <time>2021-09-26T13:34:19.000Z</time>
      </trkpt>
      <trkpt lat="45.70247" lon="-1.23803">
        <ele>7.1</ele>
        <time>2021-09-26T13:34:13.000Z</time>
      </trkpt>
      <trkpt lat="45.70256" lon="-1.23805">
        <ele>7.3</ele>
        <time>2021-09-26T13:34:07.000Z</time>
      </trkpt>
      <trkpt lat="45.70267" lon="-1.23807">
        <ele>7.3</ele>
        <time>2021-09-26T13:34:01.000Z</time>
      </trkpt>
      <trkpt lat="45.70277" lon="-1.23808">
        <ele>7.1</ele>
        <time>2021-09-26T13:33:55.000Z</time>
      </trkpt>
      <trkpt lat="45.70287" lon="-1.23808">
        <ele>6.7</ele>
        <time>2021-09-26T13:33:49.000Z</time>
      </trkpt>
      <trkpt lat="45.70296" lon="-1.23809">
        <ele>6.7</ele>
        <time>2021-09-26T13:33:44.000Z</time>
      </trkpt>
      <trkpt lat="45.70306" lon="-1.23811">
        <ele>6.6</ele>
        <time>2021-09-26T13:33:38.000Z</time>
      </trkpt>
      <trkpt lat="45.70316" lon="-1.23812">
        <ele>6.5</ele>
        <time>2021-09-26T13:33:32.000Z</time>
      </trkpt>
      <trkpt lat="45.70326" lon="-1.23814">
        <ele>6.5</ele>
        <time>2021-09-26T13:33:26.000Z</time>
      </trkpt>
      <trkpt lat="45.70336" lon="-1.23815">
        <ele>6.6</ele>
        <time>2021-09-26T13:33:20.000Z</time>
      </trkpt>
      <trkpt lat="45.70346" lon="-1.23815">
        <ele>7.2</ele>
        <time>2021-09-26T13:33:14.000Z</time>
      </trkpt>
      <trkpt lat="45.70356" lon="-1.23816">
        <ele>7.6</ele>
        <time>2021-09-26T13:33:08.000Z</time>
      </trkpt>
      <trkpt lat="45.70366" lon="-1.23819">
        <ele>7.6</ele>
        <time>2021-09-26T13:33:02.000Z</time>
      </trkpt>
      <trkpt lat="45.70376" lon="-1.23821">
        <ele>7.6</ele>
        <time>2021-09-26T13:32:56.000Z</time>
      </trkpt>
      <trkpt lat="45.70386" lon="-1.23823">
        <ele>7.7</ele>
        <time>2021-09-26T13:32:50.000Z</time>
      </trkpt>
      <trkpt lat="45.70396" lon="-1.23825">
        <ele>7.7</ele>
        <time>2021-09-26T13:32:44.000Z</time>
      </trkpt>
      <trkpt lat="45.70406" lon="-1.23827">
        <ele>7.7</ele>
        <time>2021-09-26T13:32:38.000Z</time>
      </trkpt>
      <trkpt lat="45.70416" lon="-1.23829">
        <ele>7.7</ele>
        <time>2021-09-26T13:32:32.000Z</time>
      </trkpt>
      <trkpt lat="45.70425" lon="-1.23831">
        <ele>7.6</ele>
        <time>2021-09-26T13:32:26.000Z</time>
      </trkpt>
      <trkpt lat="45.70435" lon="-1.23834">
        <ele>7.5</ele>
        <time>2021-09-26T13:32:20.000Z</time>
      </trkpt>
      <trkpt lat="45.70444" lon="-1.23832">
        <ele>7.2</ele>
        <time>2021-09-26T13:32:14.000Z</time>
      </trkpt>
      <trkpt lat="45.70455" lon="-1.23832">
        <ele>7.7</ele>
        <time>2021-09-26T13:32:08.000Z</time>
      </trkpt>
      <trkpt lat="45.70465" lon="-1.23835">
        <ele>7.7</ele>
        <time>2021-09-26T13:32:02.000Z</time>
      </trkpt>
      <trkpt lat="45.70474" lon="-1.23836">
        <ele>7.7</ele>
        <time>2021-09-26T13:31:56.000Z</time>
      </trkpt>
      <trkpt lat="45.70484" lon="-1.23834">
        <ele>7.7</ele>
        <time>2021-09-26T13:31:50.000Z</time>
      </trkpt>
      <trkpt lat="45.70494" lon="-1.23833">
        <ele>7.7</ele>
        <time>2021-09-26T13:31:44.000Z</time>
      </trkpt>
      <trkpt lat="45.70504" lon="-1.23832">
        <ele>7.9</ele>
        <time>2021-09-26T13:31:38.000Z</time>
      </trkpt>
      <trkpt lat="45.70514" lon="-1.23834">
        <ele>7.9</ele>
        <time>2021-09-26T13:31:32.000Z</time>
      </trkpt>
      <trkpt lat="45.70523" lon="-1.23841">
        <ele>8.1</ele>
        <time>2021-09-26T13:31:26.000Z</time>
      </trkpt>
      <trkpt lat="45.70529" lon="-1.23853">
        <ele>8.1</ele>
        <time>2021-09-26T13:31:20.000Z</time>
      </trkpt>
      <trkpt lat="45.70534" lon="-1.23865">
        <ele>8.1</ele>
        <time>2021-09-26T13:31:14.000Z</time>
      </trkpt>
      <trkpt lat="45.70541" lon="-1.23875">
        <ele>8.3</ele>
        <time>2021-09-26T13:31:08.000Z</time>
      </trkpt>
      <trkpt lat="45.7055" lon="-1.23882">
        <ele>8.2</ele>
        <time>2021-09-26T13:31:02.000Z</time>
      </trkpt>
      <trkpt lat="45.7056" lon="-1.23887">
        <ele>7.9</ele>
        <time>2021-09-26T13:30:56.000Z</time>
      </trkpt>
      <trkpt lat="45.70569" lon="-1.23893">
        <ele>7.9</ele>
        <time>2021-09-26T13:30:50.000Z</time>
      </trkpt>
      <trkpt lat="45.70579" lon="-1.23896">
        <ele>8.7</ele>
        <time>2021-09-26T13:30:44.000Z</time>
      </trkpt>
      <trkpt lat="45.70588" lon="-1.23898">
        <ele>8.1</ele>
        <time>2021-09-26T13:30:38.000Z</time>
      </trkpt>
      <trkpt lat="45.70598" lon="-1.239">
        <ele>7.9</ele>
        <time>2021-09-26T13:30:32.000Z</time>
      </trkpt>
      <trkpt lat="45.70607" lon="-1.23901">
        <ele>7.9</ele>
        <time>2021-09-26T13:30:26.000Z</time>
      </trkpt>
      <trkpt lat="45.70618" lon="-1.23902">
        <ele>7.9</ele>
        <time>2021-09-26T13:30:20.000Z</time>
      </trkpt>
      <trkpt lat="45.70627" lon="-1.23902">
        <ele>7.9</ele>
        <time>2021-09-26T13:30:14.000Z</time>
      </trkpt>
      <trkpt lat="45.70637" lon="-1.23899">
        <ele>8</ele>
        <time>2021-09-26T13:30:08.000Z</time>
      </trkpt>
      <trkpt lat="45.70647" lon="-1.23898">
        <ele>7.9</ele>
        <time>2021-09-26T13:30:02.000Z</time>
      </trkpt>
      <trkpt lat="45.70656" lon="-1.23895">
        <ele>7.9</ele>
        <time>2021-09-26T13:29:56.000Z</time>
      </trkpt>
      <trkpt lat="45.70665" lon="-1.2389">
        <ele>7.8</ele>
        <time>2021-09-26T13:29:50.000Z</time>
      </trkpt>
      <trkpt lat="45.70673" lon="-1.23882">
        <ele>7.6</ele>
        <time>2021-09-26T13:29:44.000Z</time>
      </trkpt>
      <trkpt lat="45.70682" lon="-1.23876">
        <ele>7.2</ele>
        <time>2021-09-26T13:29:36.000Z</time>
      </trkpt>
      <trkpt lat="45.70692" lon="-1.2388">
        <ele>7.9</ele>
        <time>2021-09-26T13:29:29.000Z</time>
      </trkpt>
      <trkpt lat="45.70702" lon="-1.23881">
        <ele>8.2</ele>
        <time>2021-09-26T13:29:24.000Z</time>
      </trkpt>
      <trkpt lat="45.70713" lon="-1.23881">
        <ele>7.9</ele>
        <time>2021-09-26T13:29:21.000Z</time>
      </trkpt>
      <trkpt lat="45.70724" lon="-1.23882">
        <ele>8.3</ele>
        <time>2021-09-26T13:29:18.000Z</time>
      </trkpt>
      <trkpt lat="45.70736" lon="-1.23883">
        <ele>7.7</ele>
        <time>2021-09-26T13:29:15.000Z</time>
      </trkpt>
      <trkpt lat="45.70748" lon="-1.23884">
        <ele>7.5</ele>
        <time>2021-09-26T13:29:12.000Z</time>
      </trkpt>
      <trkpt lat="45.70759" lon="-1.23884">
        <ele>7.9</ele>
        <time>2021-09-26T13:29:09.000Z</time>
      </trkpt>
      <trkpt lat="45.7077" lon="-1.23884">
        <ele>7.8</ele>
        <time>2021-09-26T13:29:06.000Z</time>
      </trkpt>
      <trkpt lat="45.70783" lon="-1.23884">
        <ele>7.7</ele>
        <time>2021-09-26T13:29:03.000Z</time>
      </trkpt>
      <trkpt lat="45.70793" lon="-1.23882">
        <ele>7.4</ele>
        <time>2021-09-26T13:29:00.000Z</time>
      </trkpt>
      <trkpt lat="45.70805" lon="-1.2388">
        <ele>7.5</ele>
        <time>2021-09-26T13:28:57.000Z</time>
      </trkpt>
      <trkpt lat="45.70816" lon="-1.2388">
        <ele>8.6</ele>
        <time>2021-09-26T13:28:54.000Z</time>
      </trkpt>
      <trkpt lat="45.70828" lon="-1.23881">
        <ele>8.3</ele>
        <time>2021-09-26T13:28:51.000Z</time>
      </trkpt>
      <trkpt lat="45.70839" lon="-1.23883">
        <ele>8.2</ele>
        <time>2021-09-26T13:28:48.000Z</time>
      </trkpt>
      <trkpt lat="45.70851" lon="-1.23886">
        <ele>8.5</ele>
        <time>2021-09-26T13:28:45.000Z</time>
      </trkpt>
      <trkpt lat="45.70862" lon="-1.23887">
        <ele>8.6</ele>
        <time>2021-09-26T13:28:42.000Z</time>
      </trkpt>
      <trkpt lat="45.70874" lon="-1.23889">
        <ele>8.7</ele>
        <time>2021-09-26T13:28:39.000Z</time>
      </trkpt>
      <trkpt lat="45.70887" lon="-1.2389">
        <ele>9</ele>
        <time>2021-09-26T13:28:36.000Z</time>
      </trkpt>
      <trkpt lat="45.709" lon="-1.2389">
        <ele>9</ele>
        <time>2021-09-26T13:28:33.000Z</time>
      </trkpt>
      <trkpt lat="45.70911" lon="-1.2389">
        <ele>8.3</ele>
        <time>2021-09-26T13:28:30.000Z</time>
      </trkpt>
      <trkpt lat="45.70922" lon="-1.23891">
        <ele>8.4</ele>
        <time>2021-09-26T13:28:26.000Z</time>
      </trkpt>
      <trkpt lat="45.70932" lon="-1.23892">
        <ele>8.4</ele>
        <time>2021-09-26T13:28:20.000Z</time>
      </trkpt>
      <trkpt lat="45.70942" lon="-1.23893">
        <ele>8.4</ele>
        <time>2021-09-26T13:28:14.000Z</time>
      </trkpt>
      <trkpt lat="45.70951" lon="-1.23894">
        <ele>8.4</ele>
        <time>2021-09-26T13:28:08.000Z</time>
      </trkpt>
      <trkpt lat="45.70962" lon="-1.23899">
        <ele>8</ele>
        <time>2021-09-26T13:28:02.000Z</time>
      </trkpt>
      <trkpt lat="45.70971" lon="-1.23903">
        <ele>7.9</ele>
        <time>2021-09-26T13:27:56.000Z</time>
      </trkpt>
      <trkpt lat="45.7098" lon="-1.23907">
        <ele>7.9</ele>
        <time>2021-09-26T13:27:50.000Z</time>
      </trkpt>
      <trkpt lat="45.7099" lon="-1.23911">
        <ele>8.4</ele>
        <time>2021-09-26T13:27:44.000Z</time>
      </trkpt>
      <trkpt lat="45.70999" lon="-1.23915">
        <ele>8.3</ele>
        <time>2021-09-26T13:27:38.000Z</time>
      </trkpt>
      <trkpt lat="45.71008" lon="-1.23915">
        <ele>8.2</ele>
        <time>2021-09-26T13:27:32.000Z</time>
      </trkpt>
      <trkpt lat="45.71018" lon="-1.23916">
        <ele>8</ele>
        <time>2021-09-26T13:27:26.000Z</time>
      </trkpt>
      <trkpt lat="45.71029" lon="-1.23918">
        <ele>7.9</ele>
        <time>2021-09-26T13:27:20.000Z</time>
      </trkpt>
      <trkpt lat="45.71038" lon="-1.23917">
        <ele>7.8</ele>
        <time>2021-09-26T13:27:14.000Z</time>
      </trkpt>
      <trkpt lat="45.71048" lon="-1.2392">
        <ele>7.7</ele>
        <time>2021-09-26T13:27:08.000Z</time>
      </trkpt>
      <trkpt lat="45.71058" lon="-1.23923">
        <ele>7.5</ele>
        <time>2021-09-26T13:27:02.000Z</time>
      </trkpt>
      <trkpt lat="45.71068" lon="-1.23924">
        <ele>7.5</ele>
        <time>2021-09-26T13:26:55.000Z</time>
      </trkpt>
      <trkpt lat="45.71078" lon="-1.23925">
        <ele>7.5</ele>
        <time>2021-09-26T13:26:49.000Z</time>
      </trkpt>
      <trkpt lat="45.71087" lon="-1.23926">
        <ele>7.5</ele>
        <time>2021-09-26T13:26:43.000Z</time>
      </trkpt>
      <trkpt lat="45.71097" lon="-1.23928">
        <ele>7.5</ele>
        <time>2021-09-26T13:26:37.000Z</time>
      </trkpt>
      <trkpt lat="45.71108" lon="-1.23929">
        <ele>7.5</ele>
        <time>2021-09-26T13:26:31.000Z</time>
      </trkpt>
      <trkpt lat="45.71117" lon="-1.23933">
        <ele>7.7</ele>
        <time>2021-09-26T13:26:25.000Z</time>
      </trkpt>
      <trkpt lat="45.71127" lon="-1.23935">
        <ele>7.8</ele>
        <time>2021-09-26T13:26:19.000Z</time>
      </trkpt>
      <trkpt lat="45.71137" lon="-1.23937">
        <ele>7.8</ele>
        <time>2021-09-26T13:26:13.000Z</time>
      </trkpt>
      <trkpt lat="45.71146" lon="-1.23936">
        <ele>7.6</ele>
        <time>2021-09-26T13:26:07.000Z</time>
      </trkpt>
      <trkpt lat="45.71156" lon="-1.23938">
        <ele>7.2</ele>
        <time>2021-09-26T13:26:01.000Z</time>
      </trkpt>
      <trkpt lat="45.71166" lon="-1.23938">
        <ele>7.3</ele>
        <time>2021-09-26T13:25:55.000Z</time>
      </trkpt>
      <trkpt lat="45.71175" lon="-1.2394">
        <ele>8</ele>
        <time>2021-09-26T13:25:48.000Z</time>
      </trkpt>
      <trkpt lat="45.71185" lon="-1.23943">
        <ele>8.3</ele>
        <time>2021-09-26T13:25:42.000Z</time>
      </trkpt>
      <trkpt lat="45.71194" lon="-1.23947">
        <ele>8.1</ele>
        <time>2021-09-26T13:25:36.000Z</time>
      </trkpt>
      <trkpt lat="45.71204" lon="-1.23947">
        <ele>8.1</ele>
        <time>2021-09-26T13:25:29.000Z</time>
      </trkpt>
      <trkpt lat="45.71213" lon="-1.23949">
        <ele>8.3</ele>
        <time>2021-09-26T13:25:23.000Z</time>
      </trkpt>
      <trkpt lat="45.71223" lon="-1.23947">
        <ele>8.4</ele>
        <time>2021-09-26T13:25:16.000Z</time>
      </trkpt>
      <trkpt lat="45.71233" lon="-1.23945">
        <ele>7.9</ele>
        <time>2021-09-26T13:25:10.000Z</time>
      </trkpt>
      <trkpt lat="45.71242" lon="-1.23947">
        <ele>7.9</ele>
        <time>2021-09-26T13:25:04.000Z</time>
      </trkpt>
      <trkpt lat="45.71253" lon="-1.23949">
        <ele>8.5</ele>
        <time>2021-09-26T13:24:57.000Z</time>
      </trkpt>
      <trkpt lat="45.71263" lon="-1.23949">
        <ele>8.5</ele>
        <time>2021-09-26T13:24:51.000Z</time>
      </trkpt>
      <trkpt lat="45.71272" lon="-1.23949">
        <ele>8.3</ele>
        <time>2021-09-26T13:24:45.000Z</time>
      </trkpt>
      <trkpt lat="45.71281" lon="-1.23948">
        <ele>8</ele>
        <time>2021-09-26T13:24:39.000Z</time>
      </trkpt>
      <trkpt lat="45.71291" lon="-1.23948">
        <ele>8.5</ele>
        <time>2021-09-26T13:24:33.000Z</time>
      </trkpt>
      <trkpt lat="45.713" lon="-1.23945">
        <ele>8.4</ele>
        <time>2021-09-26T13:24:27.000Z</time>
      </trkpt>
      <trkpt lat="45.7131" lon="-1.23944">
        <ele>8.1</ele>
        <time>2021-09-26T13:24:21.000Z</time>
      </trkpt>
      <trkpt lat="45.7132" lon="-1.23946">
        <ele>8.4</ele>
        <time>2021-09-26T13:24:15.000Z</time>
      </trkpt>
      <trkpt lat="45.7133" lon="-1.23946">
        <ele>8.6</ele>
        <time>2021-09-26T13:24:09.000Z</time>
      </trkpt>
      <trkpt lat="45.7134" lon="-1.23947">
        <ele>8.7</ele>
        <time>2021-09-26T13:24:03.000Z</time>
      </trkpt>
      <trkpt lat="45.71349" lon="-1.23948">
        <ele>8.7</ele>
        <time>2021-09-26T13:23:57.000Z</time>
      </trkpt>
      <trkpt lat="45.7136" lon="-1.23948">
        <ele>8.5</ele>
        <time>2021-09-26T13:23:51.000Z</time>
      </trkpt>
      <trkpt lat="45.71369" lon="-1.23946">
        <ele>8.6</ele>
        <time>2021-09-26T13:23:45.000Z</time>
      </trkpt>
      <trkpt lat="45.71379" lon="-1.23946">
        <ele>8.9</ele>
        <time>2021-09-26T13:23:39.000Z</time>
      </trkpt>
      <trkpt lat="45.71388" lon="-1.23945">
        <ele>8.6</ele>
        <time>2021-09-26T13:23:33.000Z</time>
      </trkpt>
      <trkpt lat="45.71398" lon="-1.23943">
        <ele>9</ele>
        <time>2021-09-26T13:23:27.000Z</time>
      </trkpt>
      <trkpt lat="45.71408" lon="-1.23943">
        <ele>9</ele>
        <time>2021-09-26T13:23:21.000Z</time>
      </trkpt>
      <trkpt lat="45.71419" lon="-1.23943">
        <ele>9</ele>
        <time>2021-09-26T13:23:15.000Z</time>
      </trkpt>
      <trkpt lat="45.71428" lon="-1.23943">
        <ele>9</ele>
        <time>2021-09-26T13:23:09.000Z</time>
      </trkpt>
      <trkpt lat="45.71438" lon="-1.23944">
        <ele>9</ele>
        <time>2021-09-26T13:23:03.000Z</time>
      </trkpt>
      <trkpt lat="45.71448" lon="-1.23943">
        <ele>8.8</ele>
        <time>2021-09-26T13:22:57.000Z</time>
      </trkpt>
      <trkpt lat="45.71457" lon="-1.23946">
        <ele>8.8</ele>
        <time>2021-09-26T13:22:51.000Z</time>
      </trkpt>
      <trkpt lat="45.71466" lon="-1.23949">
        <ele>8.8</ele>
        <time>2021-09-26T13:22:45.000Z</time>
      </trkpt>
      <trkpt lat="45.71475" lon="-1.2395">
        <ele>8.8</ele>
        <time>2021-09-26T13:22:39.000Z</time>
      </trkpt>
      <trkpt lat="45.71485" lon="-1.23951">
        <ele>8.7</ele>
        <time>2021-09-26T13:22:33.000Z</time>
      </trkpt>
      <trkpt lat="45.71495" lon="-1.23954">
        <ele>8.7</ele>
        <time>2021-09-26T13:22:27.000Z</time>
      </trkpt>
      <trkpt lat="45.71505" lon="-1.23956">
        <ele>8.7</ele>
        <time>2021-09-26T13:22:21.000Z</time>
      </trkpt>
      <trkpt lat="45.71514" lon="-1.23955">
        <ele>8.7</ele>
        <time>2021-09-26T13:22:15.000Z</time>
      </trkpt>
      <trkpt lat="45.71523" lon="-1.23962">
        <ele>8.7</ele>
        <time>2021-09-26T13:22:09.000Z</time>
      </trkpt>
      <trkpt lat="45.71532" lon="-1.23968">
        <ele>8.7</ele>
        <time>2021-09-26T13:22:03.000Z</time>
      </trkpt>
      <trkpt lat="45.71541" lon="-1.23972">
        <ele>8.8</ele>
        <time>2021-09-26T13:21:57.000Z</time>
      </trkpt>
      <trkpt lat="45.71551" lon="-1.23973">
        <ele>8.5</ele>
        <time>2021-09-26T13:21:51.000Z</time>
      </trkpt>
      <trkpt lat="45.71561" lon="-1.23975">
        <ele>8.1</ele>
        <time>2021-09-26T13:21:45.000Z</time>
      </trkpt>
      <trkpt lat="45.71571" lon="-1.23975">
        <ele>8.1</ele>
        <time>2021-09-26T13:21:39.000Z</time>
      </trkpt>
      <trkpt lat="45.71581" lon="-1.23975">
        <ele>8</ele>
        <time>2021-09-26T13:21:33.000Z</time>
      </trkpt>
      <trkpt lat="45.71591" lon="-1.23975">
        <ele>7.8</ele>
        <time>2021-09-26T13:21:27.000Z</time>
      </trkpt>
      <trkpt lat="45.71601" lon="-1.23976">
        <ele>7.8</ele>
        <time>2021-09-26T13:21:21.000Z</time>
      </trkpt>
      <trkpt lat="45.71612" lon="-1.23978">
        <ele>7.6</ele>
        <time>2021-09-26T13:21:15.000Z</time>
      </trkpt>
      <trkpt lat="45.71621" lon="-1.23979">
        <ele>7.8</ele>
        <time>2021-09-26T13:21:10.000Z</time>
      </trkpt>
      <trkpt lat="45.71631" lon="-1.23979">
        <ele>8.6</ele>
        <time>2021-09-26T13:21:04.000Z</time>
      </trkpt>
      <trkpt lat="45.71642" lon="-1.23981">
        <ele>8.4</ele>
        <time>2021-09-26T13:20:58.000Z</time>
      </trkpt>
      <trkpt lat="45.71652" lon="-1.23983">
        <ele>7.7</ele>
        <time>2021-09-26T13:20:52.000Z</time>
      </trkpt>
      <trkpt lat="45.71661" lon="-1.23984">
        <ele>7.8</ele>
        <time>2021-09-26T13:20:47.000Z</time>
      </trkpt>
      <trkpt lat="45.71672" lon="-1.23984">
        <ele>8.2</ele>
        <time>2021-09-26T13:20:41.000Z</time>
      </trkpt>
      <trkpt lat="45.71682" lon="-1.23985">
        <ele>8.5</ele>
        <time>2021-09-26T13:20:35.000Z</time>
      </trkpt>
      <trkpt lat="45.71692" lon="-1.23984">
        <ele>8.5</ele>
        <time>2021-09-26T13:20:29.000Z</time>
      </trkpt>
      <trkpt lat="45.71701" lon="-1.23985">
        <ele>8.4</ele>
        <time>2021-09-26T13:20:23.000Z</time>
      </trkpt>
      <trkpt lat="45.71711" lon="-1.23986">
        <ele>8.1</ele>
        <time>2021-09-26T13:20:17.000Z</time>
      </trkpt>
      <trkpt lat="45.7172" lon="-1.23986">
        <ele>8.4</ele>
        <time>2021-09-26T13:20:11.000Z</time>
      </trkpt>
      <trkpt lat="45.71731" lon="-1.23987">
        <ele>9</ele>
        <time>2021-09-26T13:20:05.000Z</time>
      </trkpt>
      <trkpt lat="45.7174" lon="-1.23987">
        <ele>9.1</ele>
        <time>2021-09-26T13:20:00.000Z</time>
      </trkpt>
      <trkpt lat="45.7175" lon="-1.23987">
        <ele>9.1</ele>
        <time>2021-09-26T13:19:54.000Z</time>
      </trkpt>
      <trkpt lat="45.7176" lon="-1.23988">
        <ele>9</ele>
        <time>2021-09-26T13:19:48.000Z</time>
      </trkpt>
      <trkpt lat="45.7177" lon="-1.23988">
        <ele>8.7</ele>
        <time>2021-09-26T13:19:42.000Z</time>
      </trkpt>
      <trkpt lat="45.7178" lon="-1.23985">
        <ele>8.4</ele>
        <time>2021-09-26T13:19:36.000Z</time>
      </trkpt>
      <trkpt lat="45.71789" lon="-1.23984">
        <ele>8.5</ele>
        <time>2021-09-26T13:19:31.000Z</time>
      </trkpt>
      <trkpt lat="45.71799" lon="-1.23981">
        <ele>8.6</ele>
        <time>2021-09-26T13:19:25.000Z</time>
      </trkpt>
      <trkpt lat="45.71809" lon="-1.23979">
        <ele>8.6</ele>
        <time>2021-09-26T13:19:19.000Z</time>
      </trkpt>
      <trkpt lat="45.71819" lon="-1.2398">
        <ele>8.4</ele>
        <time>2021-09-26T13:19:13.000Z</time>
      </trkpt>
      <trkpt lat="45.71829" lon="-1.23983">
        <ele>8.4</ele>
        <time>2021-09-26T13:19:07.000Z</time>
      </trkpt>
      <trkpt lat="45.71839" lon="-1.23983">
        <ele>8.4</ele>
        <time>2021-09-26T13:19:01.000Z</time>
      </trkpt>
      <trkpt lat="45.71849" lon="-1.23987">
        <ele>8.2</ele>
        <time>2021-09-26T13:18:55.000Z</time>
      </trkpt>
      <trkpt lat="45.71859" lon="-1.2399">
        <ele>8.7</ele>
        <time>2021-09-26T13:18:49.000Z</time>
      </trkpt>
      <trkpt lat="45.71869" lon="-1.23993">
        <ele>8.6</ele>
        <time>2021-09-26T13:18:43.000Z</time>
      </trkpt>
      <trkpt lat="45.71879" lon="-1.23995">
        <ele>8.6</ele>
        <time>2021-09-26T13:18:37.000Z</time>
      </trkpt>
      <trkpt lat="45.71889" lon="-1.23995">
        <ele>8.8</ele>
        <time>2021-09-26T13:18:31.000Z</time>
      </trkpt>
      <trkpt lat="45.71899" lon="-1.23996">
        <ele>8.6</ele>
        <time>2021-09-26T13:18:25.000Z</time>
      </trkpt>
      <trkpt lat="45.71909" lon="-1.23999">
        <ele>8.5</ele>
        <time>2021-09-26T13:18:19.000Z</time>
      </trkpt>
      <trkpt lat="45.71918" lon="-1.24001">
        <ele>8.5</ele>
        <time>2021-09-26T13:18:13.000Z</time>
      </trkpt>
      <trkpt lat="45.71928" lon="-1.24002">
        <ele>8.7</ele>
        <time>2021-09-26T13:18:07.000Z</time>
      </trkpt>
      <trkpt lat="45.71937" lon="-1.24002">
        <ele>8.3</ele>
        <time>2021-09-26T13:18:01.000Z</time>
      </trkpt>
      <trkpt lat="45.71948" lon="-1.24001">
        <ele>8.6</ele>
        <time>2021-09-26T13:17:55.000Z</time>
      </trkpt>
      <trkpt lat="45.71958" lon="-1.24">
        <ele>8.5</ele>
        <time>2021-09-26T13:17:49.000Z</time>
      </trkpt>
      <trkpt lat="45.71967" lon="-1.23999">
        <ele>8.4</ele>
        <time>2021-09-26T13:17:43.000Z</time>
      </trkpt>
      <trkpt lat="45.71976" lon="-1.23998">
        <ele>8.3</ele>
        <time>2021-09-26T13:17:37.000Z</time>
      </trkpt>
      <trkpt lat="45.71986" lon="-1.23996">
        <ele>8.3</ele>
        <time>2021-09-26T13:17:31.000Z</time>
      </trkpt>
      <trkpt lat="45.71996" lon="-1.23995">
        <ele>8.3</ele>
        <time>2021-09-26T13:17:25.000Z</time>
      </trkpt>
      <trkpt lat="45.72006" lon="-1.23992">
        <ele>8.5</ele>
        <time>2021-09-26T13:17:19.000Z</time>
      </trkpt>
      <trkpt lat="45.72016" lon="-1.23991">
        <ele>8.3</ele>
        <time>2021-09-26T13:17:13.000Z</time>
      </trkpt>
      <trkpt lat="45.72026" lon="-1.23991">
        <ele>8.2</ele>
        <time>2021-09-26T13:17:07.000Z</time>
      </trkpt>
      <trkpt lat="45.72035" lon="-1.2399">
        <ele>8.2</ele>
        <time>2021-09-26T13:17:01.000Z</time>
      </trkpt>
      <trkpt lat="45.72045" lon="-1.23991">
        <ele>8.2</ele>
        <time>2021-09-26T13:16:55.000Z</time>
      </trkpt>
      <trkpt lat="45.72055" lon="-1.2399">
        <ele>8.3</ele>
        <time>2021-09-26T13:16:49.000Z</time>
      </trkpt>
      <trkpt lat="45.72064" lon="-1.23991">
        <ele>8</ele>
        <time>2021-09-26T13:16:44.000Z</time>
      </trkpt>
      <trkpt lat="45.72074" lon="-1.23994">
        <ele>8.1</ele>
        <time>2021-09-26T13:16:38.000Z</time>
      </trkpt>
      <trkpt lat="45.72083" lon="-1.23996">
        <ele>8</ele>
        <time>2021-09-26T13:16:32.000Z</time>
      </trkpt>
      <trkpt lat="45.72093" lon="-1.23997">
        <ele>7.7</ele>
        <time>2021-09-26T13:16:26.000Z</time>
      </trkpt>
      <trkpt lat="45.72101" lon="-1.24003">
        <ele>7.7</ele>
        <time>2021-09-26T13:16:16.000Z</time>
      </trkpt>
      <trkpt lat="45.7211" lon="-1.24005">
        <ele>7.8</ele>
        <time>2021-09-26T13:16:10.000Z</time>
      </trkpt>
      <trkpt lat="45.72121" lon="-1.24007">
        <ele>8.2</ele>
        <time>2021-09-26T13:16:04.000Z</time>
      </trkpt>
      <trkpt lat="45.72131" lon="-1.24009">
        <ele>8</ele>
        <time>2021-09-26T13:15:58.000Z</time>
      </trkpt>
      <trkpt lat="45.72141" lon="-1.24011">
        <ele>8.5</ele>
        <time>2021-09-26T13:15:52.000Z</time>
      </trkpt>
      <trkpt lat="45.72151" lon="-1.24012">
        <ele>8.6</ele>
        <time>2021-09-26T13:15:46.000Z</time>
      </trkpt>
      <trkpt lat="45.72161" lon="-1.24013">
        <ele>8.7</ele>
        <time>2021-09-26T13:15:40.000Z</time>
      </trkpt>
      <trkpt lat="45.72171" lon="-1.24014">
        <ele>9.1</ele>
        <time>2021-09-26T13:15:34.000Z</time>
      </trkpt>
      <trkpt lat="45.72181" lon="-1.24015">
        <ele>9.1</ele>
        <time>2021-09-26T13:15:28.000Z</time>
      </trkpt>
      <trkpt lat="45.72191" lon="-1.24015">
        <ele>8.4</ele>
        <time>2021-09-26T13:15:22.000Z</time>
      </trkpt>
      <trkpt lat="45.72201" lon="-1.24016">
        <ele>8.4</ele>
        <time>2021-09-26T13:15:16.000Z</time>
      </trkpt>
      <trkpt lat="45.7221" lon="-1.24017">
        <ele>8.4</ele>
        <time>2021-09-26T13:15:11.000Z</time>
      </trkpt>
      <trkpt lat="45.7222" lon="-1.24017">
        <ele>8.4</ele>
        <time>2021-09-26T13:15:05.000Z</time>
      </trkpt>
      <trkpt lat="45.72229" lon="-1.24018">
        <ele>8.7</ele>
        <time>2021-09-26T13:14:59.000Z</time>
      </trkpt>
      <trkpt lat="45.72239" lon="-1.24018">
        <ele>8.8</ele>
        <time>2021-09-26T13:14:53.000Z</time>
      </trkpt>
      <trkpt lat="45.72249" lon="-1.24018">
        <ele>8.8</ele>
        <time>2021-09-26T13:14:47.000Z</time>
      </trkpt>
      <trkpt lat="45.72259" lon="-1.24021">
        <ele>8.6</ele>
        <time>2021-09-26T13:14:41.000Z</time>
      </trkpt>
      <trkpt lat="45.72268" lon="-1.24022">
        <ele>8.5</ele>
        <time>2021-09-26T13:14:35.000Z</time>
      </trkpt>
      <trkpt lat="45.72277" lon="-1.24024">
        <ele>8.2</ele>
        <time>2021-09-26T13:14:29.000Z</time>
      </trkpt>
      <trkpt lat="45.72287" lon="-1.24024">
        <ele>7.5</ele>
        <time>2021-09-26T13:14:23.000Z</time>
      </trkpt>
      <trkpt lat="45.72296" lon="-1.24025">
        <ele>8</ele>
        <time>2021-09-26T13:14:17.000Z</time>
      </trkpt>
      <trkpt lat="45.72305" lon="-1.24025">
        <ele>8</ele>
        <time>2021-09-26T13:14:11.000Z</time>
      </trkpt>
      <trkpt lat="45.72315" lon="-1.24027">
        <ele>8</ele>
        <time>2021-09-26T13:14:05.000Z</time>
      </trkpt>
      <trkpt lat="45.72324" lon="-1.2403">
        <ele>7.9</ele>
        <time>2021-09-26T13:13:59.000Z</time>
      </trkpt>
      <trkpt lat="45.72334" lon="-1.24034">
        <ele>8.2</ele>
        <time>2021-09-26T13:13:53.000Z</time>
      </trkpt>
      <trkpt lat="45.72344" lon="-1.24037">
        <ele>7.6</ele>
        <time>2021-09-26T13:13:47.000Z</time>
      </trkpt>
      <trkpt lat="45.72353" lon="-1.24039">
        <ele>7.6</ele>
        <time>2021-09-26T13:13:41.000Z</time>
      </trkpt>
      <trkpt lat="45.72363" lon="-1.2404">
        <ele>7.7</ele>
        <time>2021-09-26T13:13:35.000Z</time>
      </trkpt>
      <trkpt lat="45.72373" lon="-1.24043">
        <ele>7.5</ele>
        <time>2021-09-26T13:13:29.000Z</time>
      </trkpt>
      <trkpt lat="45.72383" lon="-1.24046">
        <ele>7.2</ele>
        <time>2021-09-26T13:13:23.000Z</time>
      </trkpt>
      <trkpt lat="45.72392" lon="-1.24049">
        <ele>7.2</ele>
        <time>2021-09-26T13:13:16.000Z</time>
      </trkpt>
      <trkpt lat="45.724" lon="-1.24058">
        <ele>7.6</ele>
        <time>2021-09-26T13:13:08.000Z</time>
      </trkpt>
      <trkpt lat="45.7241" lon="-1.2406">
        <ele>7.9</ele>
        <time>2021-09-26T13:13:01.000Z</time>
      </trkpt>
      <trkpt lat="45.72419" lon="-1.24062">
        <ele>8.1</ele>
        <time>2021-09-26T13:12:54.000Z</time>
      </trkpt>
      <trkpt lat="45.72429" lon="-1.24062">
        <ele>8.2</ele>
        <time>2021-09-26T13:12:47.000Z</time>
      </trkpt>
      <trkpt lat="45.72439" lon="-1.24065">
        <ele>8.1</ele>
        <time>2021-09-26T13:12:37.000Z</time>
      </trkpt>
      <trkpt lat="45.72449" lon="-1.24066">
        <ele>7.8</ele>
        <time>2021-09-26T13:12:31.000Z</time>
      </trkpt>
      <trkpt lat="45.7246" lon="-1.24066">
        <ele>7.9</ele>
        <time>2021-09-26T13:12:25.000Z</time>
      </trkpt>
      <trkpt lat="45.7247" lon="-1.24067">
        <ele>8</ele>
        <time>2021-09-26T13:12:19.000Z</time>
      </trkpt>
      <trkpt lat="45.7248" lon="-1.24067">
        <ele>7.9</ele>
        <time>2021-09-26T13:12:13.000Z</time>
      </trkpt>
      <trkpt lat="45.72489" lon="-1.24068">
        <ele>7.8</ele>
        <time>2021-09-26T13:12:07.000Z</time>
      </trkpt>
      <trkpt lat="45.72499" lon="-1.24069">
        <ele>7.5</ele>
        <time>2021-09-26T13:12:01.000Z</time>
      </trkpt>
      <trkpt lat="45.72509" lon="-1.2407">
        <ele>7.5</ele>
        <time>2021-09-26T13:11:55.000Z</time>
      </trkpt>
      <trkpt lat="45.72519" lon="-1.24073">
        <ele>7.6</ele>
        <time>2021-09-26T13:11:49.000Z</time>
      </trkpt>
      <trkpt lat="45.7253" lon="-1.24075">
        <ele>7.6</ele>
        <time>2021-09-26T13:11:43.000Z</time>
      </trkpt>
      <trkpt lat="45.72539" lon="-1.24078">
        <ele>7.6</ele>
        <time>2021-09-26T13:11:37.000Z</time>
      </trkpt>
      <trkpt lat="45.72549" lon="-1.24077">
        <ele>7.4</ele>
        <time>2021-09-26T13:11:31.000Z</time>
      </trkpt>
      <trkpt lat="45.72559" lon="-1.24078">
        <ele>7.7</ele>
        <time>2021-09-26T13:11:25.000Z</time>
      </trkpt>
      <trkpt lat="45.72569" lon="-1.24078">
        <ele>7.5</ele>
        <time>2021-09-26T13:11:19.000Z</time>
      </trkpt>
      <trkpt lat="45.72579" lon="-1.2408">
        <ele>7.5</ele>
        <time>2021-09-26T13:11:14.000Z</time>
      </trkpt>
      <trkpt lat="45.72589" lon="-1.24079">
        <ele>7.9</ele>
        <time>2021-09-26T13:11:08.000Z</time>
      </trkpt>
      <trkpt lat="45.72599" lon="-1.24079">
        <ele>7.7</ele>
        <time>2021-09-26T13:11:02.000Z</time>
      </trkpt>
      <trkpt lat="45.72609" lon="-1.24076">
        <ele>7.4</ele>
        <time>2021-09-26T13:10:56.000Z</time>
      </trkpt>
      <trkpt lat="45.72618" lon="-1.24076">
        <ele>7.6</ele>
        <time>2021-09-26T13:10:51.000Z</time>
      </trkpt>
      <trkpt lat="45.72627" lon="-1.24075">
        <ele>8</ele>
        <time>2021-09-26T13:10:45.000Z</time>
      </trkpt>
      <trkpt lat="45.72637" lon="-1.24076">
        <ele>7.9</ele>
        <time>2021-09-26T13:10:39.000Z</time>
      </trkpt>
      <trkpt lat="45.72647" lon="-1.24076">
        <ele>7.9</ele>
        <time>2021-09-26T13:10:33.000Z</time>
      </trkpt>
      <trkpt lat="45.72656" lon="-1.24076">
        <ele>7.9</ele>
        <time>2021-09-26T13:10:27.000Z</time>
      </trkpt>
      <trkpt lat="45.72667" lon="-1.24077">
        <ele>7.9</ele>
        <time>2021-09-26T13:10:21.000Z</time>
      </trkpt>
      <trkpt lat="45.72677" lon="-1.24076">
        <ele>8.1</ele>
        <time>2021-09-26T13:10:15.000Z</time>
      </trkpt>
      <trkpt lat="45.72687" lon="-1.24075">
        <ele>8.1</ele>
        <time>2021-09-26T13:10:09.000Z</time>
      </trkpt>
      <trkpt lat="45.72697" lon="-1.24074">
        <ele>7.7</ele>
        <time>2021-09-26T13:10:03.000Z</time>
      </trkpt>
      <trkpt lat="45.72707" lon="-1.24075">
        <ele>7.7</ele>
        <time>2021-09-26T13:09:57.000Z</time>
      </trkpt>
      <trkpt lat="45.72717" lon="-1.24074">
        <ele>7.9</ele>
        <time>2021-09-26T13:09:51.000Z</time>
      </trkpt>
      <trkpt lat="45.72727" lon="-1.24072">
        <ele>7.7</ele>
        <time>2021-09-26T13:09:45.000Z</time>
      </trkpt>
      <trkpt lat="45.72737" lon="-1.24071">
        <ele>7.9</ele>
        <time>2021-09-26T13:09:39.000Z</time>
      </trkpt>
      <trkpt lat="45.72746" lon="-1.24076">
        <ele>7.9</ele>
        <time>2021-09-26T13:09:33.000Z</time>
      </trkpt>
      <trkpt lat="45.72756" lon="-1.24079">
        <ele>8.2</ele>
        <time>2021-09-26T13:09:27.000Z</time>
      </trkpt>
      <trkpt lat="45.72766" lon="-1.24081">
        <ele>7.6</ele>
        <time>2021-09-26T13:09:21.000Z</time>
      </trkpt>
      <trkpt lat="45.72775" lon="-1.24083">
        <ele>7.6</ele>
        <time>2021-09-26T13:09:16.000Z</time>
      </trkpt>
      <trkpt lat="45.72784" lon="-1.24085">
        <ele>7.6</ele>
        <time>2021-09-26T13:09:11.000Z</time>
      </trkpt>
      <trkpt lat="45.72794" lon="-1.24087">
        <ele>7.7</ele>
        <time>2021-09-26T13:09:05.000Z</time>
      </trkpt>
      <trkpt lat="45.72804" lon="-1.24086">
        <ele>7.7</ele>
        <time>2021-09-26T13:08:59.000Z</time>
      </trkpt>
      <trkpt lat="45.72813" lon="-1.2409">
        <ele>7.7</ele>
        <time>2021-09-26T13:08:53.000Z</time>
      </trkpt>
      <trkpt lat="45.72821" lon="-1.24098">
        <ele>7.8</ele>
        <time>2021-09-26T13:08:47.000Z</time>
      </trkpt>
      <trkpt lat="45.72831" lon="-1.24101">
        <ele>7.6</ele>
        <time>2021-09-26T13:08:41.000Z</time>
      </trkpt>
      <trkpt lat="45.72841" lon="-1.24103">
        <ele>7.6</ele>
        <time>2021-09-26T13:08:35.000Z</time>
      </trkpt>
      <trkpt lat="45.72851" lon="-1.24106">
        <ele>7.6</ele>
        <time>2021-09-26T13:08:29.000Z</time>
      </trkpt>
      <trkpt lat="45.72861" lon="-1.2411">
        <ele>7.6</ele>
        <time>2021-09-26T13:08:23.000Z</time>
      </trkpt>
      <trkpt lat="45.72871" lon="-1.24113">
        <ele>7.6</ele>
        <time>2021-09-26T13:08:17.000Z</time>
      </trkpt>
      <trkpt lat="45.72881" lon="-1.24115">
        <ele>7.7</ele>
        <time>2021-09-26T13:08:11.000Z</time>
      </trkpt>
      <trkpt lat="45.7289" lon="-1.24116">
        <ele>7.7</ele>
        <time>2021-09-26T13:08:05.000Z</time>
      </trkpt>
      <trkpt lat="45.72899" lon="-1.24123">
        <ele>7.4</ele>
        <time>2021-09-26T13:07:59.000Z</time>
      </trkpt>
      <trkpt lat="45.72909" lon="-1.24122">
        <ele>8.5</ele>
        <time>2021-09-26T13:07:53.000Z</time>
      </trkpt>
      <trkpt lat="45.72919" lon="-1.2412">
        <ele>8.5</ele>
        <time>2021-09-26T13:07:47.000Z</time>
      </trkpt>
      <trkpt lat="45.72928" lon="-1.24121">
        <ele>8.4</ele>
        <time>2021-09-26T13:07:42.000Z</time>
      </trkpt>
      <trkpt lat="45.72938" lon="-1.24121">
        <ele>8.2</ele>
        <time>2021-09-26T13:07:36.000Z</time>
      </trkpt>
      <trkpt lat="45.72947" lon="-1.24124">
        <ele>8.2</ele>
        <time>2021-09-26T13:07:30.000Z</time>
      </trkpt>
      <trkpt lat="45.72957" lon="-1.24126">
        <ele>7.7</ele>
        <time>2021-09-26T13:07:24.000Z</time>
      </trkpt>
      <trkpt lat="45.72967" lon="-1.24126">
        <ele>7.7</ele>
        <time>2021-09-26T13:07:18.000Z</time>
      </trkpt>
      <trkpt lat="45.72977" lon="-1.24127">
        <ele>7.7</ele>
        <time>2021-09-26T13:07:12.000Z</time>
      </trkpt>
      <trkpt lat="45.72987" lon="-1.24129">
        <ele>7.7</ele>
        <time>2021-09-26T13:07:06.000Z</time>
      </trkpt>
      <trkpt lat="45.72997" lon="-1.24131">
        <ele>7.8</ele>
        <time>2021-09-26T13:07:00.000Z</time>
      </trkpt>
      <trkpt lat="45.73007" lon="-1.24132">
        <ele>8.1</ele>
        <time>2021-09-26T13:06:54.000Z</time>
      </trkpt>
      <trkpt lat="45.73016" lon="-1.24135">
        <ele>7.7</ele>
        <time>2021-09-26T13:06:48.000Z</time>
      </trkpt>
      <trkpt lat="45.73026" lon="-1.24137">
        <ele>7.6</ele>
        <time>2021-09-26T13:06:42.000Z</time>
      </trkpt>
      <trkpt lat="45.73035" lon="-1.24136">
        <ele>7.6</ele>
        <time>2021-09-26T13:06:36.000Z</time>
      </trkpt>
      <trkpt lat="45.73045" lon="-1.24136">
        <ele>7.6</ele>
        <time>2021-09-26T13:06:30.000Z</time>
      </trkpt>
      <trkpt lat="45.73055" lon="-1.24134">
        <ele>7.6</ele>
        <time>2021-09-26T13:06:24.000Z</time>
      </trkpt>
      <trkpt lat="45.73064" lon="-1.24129">
        <ele>7.7</ele>
        <time>2021-09-26T13:06:18.000Z</time>
      </trkpt>
      <trkpt lat="45.73074" lon="-1.24127">
        <ele>7.7</ele>
        <time>2021-09-26T13:06:12.000Z</time>
      </trkpt>
      <trkpt lat="45.73084" lon="-1.24123">
        <ele>7.8</ele>
        <time>2021-09-26T13:06:06.000Z</time>
      </trkpt>
      <trkpt lat="45.73093" lon="-1.24117">
        <ele>7.9</ele>
        <time>2021-09-26T13:06:00.000Z</time>
      </trkpt>
      <trkpt lat="45.73101" lon="-1.24112">
        <ele>8.5</ele>
        <time>2021-09-26T13:05:54.000Z</time>
      </trkpt>
      <trkpt lat="45.73109" lon="-1.24103">
        <ele>8.6</ele>
        <time>2021-09-26T13:05:48.000Z</time>
      </trkpt>
      <trkpt lat="45.73117" lon="-1.24094">
        <ele>8.6</ele>
        <time>2021-09-26T13:05:42.000Z</time>
      </trkpt>
      <trkpt lat="45.73121" lon="-1.24081">
        <ele>8.7</ele>
        <time>2021-09-26T13:04:32.000Z</time>
      </trkpt>
      <trkpt lat="45.7313" lon="-1.24077">
        <ele>8.6</ele>
        <time>2021-09-26T13:04:26.000Z</time>
      </trkpt>
      <trkpt lat="45.7314" lon="-1.24073">
        <ele>8.6</ele>
        <time>2021-09-26T13:04:19.000Z</time>
      </trkpt>
      <trkpt lat="45.73149" lon="-1.24067">
        <ele>8.5</ele>
        <time>2021-09-26T13:04:13.000Z</time>
      </trkpt>
      <trkpt lat="45.73159" lon="-1.24064">
        <ele>8.4</ele>
        <time>2021-09-26T13:04:07.000Z</time>
      </trkpt>
      <trkpt lat="45.73168" lon="-1.24061">
        <ele>8.6</ele>
        <time>2021-09-26T13:04:01.000Z</time>
      </trkpt>
      <trkpt lat="45.73177" lon="-1.24058">
        <ele>8.5</ele>
        <time>2021-09-26T13:03:55.000Z</time>
      </trkpt>
      <trkpt lat="45.73187" lon="-1.24055">
        <ele>8.4</ele>
        <time>2021-09-26T13:03:49.000Z</time>
      </trkpt>
      <trkpt lat="45.73196" lon="-1.24049">
        <ele>8.1</ele>
        <time>2021-09-26T13:03:43.000Z</time>
      </trkpt>
      <trkpt lat="45.73205" lon="-1.24047">
        <ele>7.9</ele>
        <time>2021-09-26T13:03:36.000Z</time>
      </trkpt>
      <trkpt lat="45.73215" lon="-1.24048">
        <ele>7.9</ele>
        <time>2021-09-26T13:03:28.000Z</time>
      </trkpt>
      <trkpt lat="45.73225" lon="-1.24048">
        <ele>8.2</ele>
        <time>2021-09-26T13:03:22.000Z</time>
      </trkpt>
      <trkpt lat="45.73234" lon="-1.24046">
        <ele>8.4</ele>
        <time>2021-09-26T13:03:16.000Z</time>
      </trkpt>
      <trkpt lat="45.73243" lon="-1.24047">
        <ele>8.8</ele>
        <time>2021-09-26T13:03:10.000Z</time>
      </trkpt>
      <trkpt lat="45.73253" lon="-1.24048">
        <ele>9.2</ele>
        <time>2021-09-26T13:03:04.000Z</time>
      </trkpt>
      <trkpt lat="45.73262" lon="-1.2405">
        <ele>8.8</ele>
        <time>2021-09-26T13:02:58.000Z</time>
      </trkpt>
      <trkpt lat="45.73272" lon="-1.24053">
        <ele>8.4</ele>
        <time>2021-09-26T13:02:52.000Z</time>
      </trkpt>
      <trkpt lat="45.73282" lon="-1.24056">
        <ele>9.1</ele>
        <time>2021-09-26T13:02:46.000Z</time>
      </trkpt>
      <trkpt lat="45.73292" lon="-1.24058">
        <ele>9.2</ele>
        <time>2021-09-26T13:02:40.000Z</time>
      </trkpt>
      <trkpt lat="45.73302" lon="-1.24061">
        <ele>9.1</ele>
        <time>2021-09-26T13:02:34.000Z</time>
      </trkpt>
      <trkpt lat="45.73312" lon="-1.24064">
        <ele>9.1</ele>
        <time>2021-09-26T13:02:28.000Z</time>
      </trkpt>
      <trkpt lat="45.73322" lon="-1.24066">
        <ele>9</ele>
        <time>2021-09-26T13:02:22.000Z</time>
      </trkpt>
      <trkpt lat="45.73332" lon="-1.24068">
        <ele>8.7</ele>
        <time>2021-09-26T13:02:16.000Z</time>
      </trkpt>
      <trkpt lat="45.73341" lon="-1.2407">
        <ele>9</ele>
        <time>2021-09-26T13:02:10.000Z</time>
      </trkpt>
      <trkpt lat="45.73351" lon="-1.24073">
        <ele>9</ele>
        <time>2021-09-26T13:02:04.000Z</time>
      </trkpt>
      <trkpt lat="45.7336" lon="-1.24074">
        <ele>8.8</ele>
        <time>2021-09-26T13:01:59.000Z</time>
      </trkpt>
      <trkpt lat="45.7337" lon="-1.24073">
        <ele>8.6</ele>
        <time>2021-09-26T13:01:53.000Z</time>
      </trkpt>
      <trkpt lat="45.73381" lon="-1.24074">
        <ele>8.6</ele>
        <time>2021-09-26T13:01:47.000Z</time>
      </trkpt>
      <trkpt lat="45.73391" lon="-1.24073">
        <ele>8.5</ele>
        <time>2021-09-26T13:01:41.000Z</time>
      </trkpt>
      <trkpt lat="45.734" lon="-1.24069">
        <ele>8.4</ele>
        <time>2021-09-26T13:01:35.000Z</time>
      </trkpt>
      <trkpt lat="45.7341" lon="-1.24065">
        <ele>8.1</ele>
        <time>2021-09-26T13:01:29.000Z</time>
      </trkpt>
      <trkpt lat="45.73419" lon="-1.24061">
        <ele>8.2</ele>
        <time>2021-09-26T13:01:24.000Z</time>
      </trkpt>
      <trkpt lat="45.73429" lon="-1.2406">
        <ele>8.2</ele>
        <time>2021-09-26T13:01:18.000Z</time>
      </trkpt>
      <trkpt lat="45.73439" lon="-1.24062">
        <ele>8.4</ele>
        <time>2021-09-26T13:01:12.000Z</time>
      </trkpt>
      <trkpt lat="45.73447" lon="-1.24069">
        <ele>8.7</ele>
        <time>2021-09-26T13:01:06.000Z</time>
      </trkpt>
      <trkpt lat="45.73454" lon="-1.24078">
        <ele>9</ele>
        <time>2021-09-26T13:01:00.000Z</time>
      </trkpt>
      <trkpt lat="45.73463" lon="-1.24084">
        <ele>8.9</ele>
        <time>2021-09-26T13:00:54.000Z</time>
      </trkpt>
      <trkpt lat="45.73472" lon="-1.24087">
        <ele>8.7</ele>
        <time>2021-09-26T13:00:48.000Z</time>
      </trkpt>
      <trkpt lat="45.73482" lon="-1.2409">
        <ele>8.6</ele>
        <time>2021-09-26T13:00:42.000Z</time>
      </trkpt>
      <trkpt lat="45.73492" lon="-1.2409">
        <ele>8.5</ele>
        <time>2021-09-26T13:00:36.000Z</time>
      </trkpt>
      <trkpt lat="45.73502" lon="-1.24091">
        <ele>8.5</ele>
        <time>2021-09-26T13:00:29.000Z</time>
      </trkpt>
      <trkpt lat="45.73512" lon="-1.24093">
        <ele>8.7</ele>
        <time>2021-09-26T13:00:22.000Z</time>
      </trkpt>
      <trkpt lat="45.73521" lon="-1.24095">
        <ele>9</ele>
        <time>2021-09-26T13:00:16.000Z</time>
      </trkpt>
      <trkpt lat="45.7353" lon="-1.24097">
        <ele>9</ele>
        <time>2021-09-26T13:00:10.000Z</time>
      </trkpt>
      <trkpt lat="45.7354" lon="-1.24099">
        <ele>9</ele>
        <time>2021-09-26T13:00:04.000Z</time>
      </trkpt>
      <trkpt lat="45.73551" lon="-1.24101">
        <ele>9.1</ele>
        <time>2021-09-26T12:59:58.000Z</time>
      </trkpt>
      <trkpt lat="45.73561" lon="-1.241">
        <ele>9</ele>
        <time>2021-09-26T12:59:52.000Z</time>
      </trkpt>
      <trkpt lat="45.73572" lon="-1.24103">
        <ele>8.2</ele>
        <time>2021-09-26T12:59:40.000Z</time>
      </trkpt>
      <trkpt lat="45.73581" lon="-1.24106">
        <ele>8.3</ele>
        <time>2021-09-26T12:59:33.000Z</time>
      </trkpt>
      <trkpt lat="45.7359" lon="-1.24109">
        <ele>8.9</ele>
        <time>2021-09-26T12:59:27.000Z</time>
      </trkpt>
      <trkpt lat="45.736" lon="-1.24111">
        <ele>9.3</ele>
        <time>2021-09-26T12:59:21.000Z</time>
      </trkpt>
      <trkpt lat="45.7361" lon="-1.24112">
        <ele>9.3</ele>
        <time>2021-09-26T12:59:15.000Z</time>
      </trkpt>
      <trkpt lat="45.7362" lon="-1.24105">
        <ele>9.7</ele>
        <time>2021-09-26T12:59:08.000Z</time>
      </trkpt>
      <trkpt lat="45.73628" lon="-1.24099">
        <ele>8.9</ele>
        <time>2021-09-26T12:59:00.000Z</time>
      </trkpt>
      <trkpt lat="45.73639" lon="-1.24098">
        <ele>8.5</ele>
        <time>2021-09-26T12:58:54.000Z</time>
      </trkpt>
      <trkpt lat="45.73649" lon="-1.24098">
        <ele>9.1</ele>
        <time>2021-09-26T12:58:48.000Z</time>
      </trkpt>
      <trkpt lat="45.73659" lon="-1.24099">
        <ele>9.1</ele>
        <time>2021-09-26T12:58:42.000Z</time>
      </trkpt>
      <trkpt lat="45.73668" lon="-1.24099">
        <ele>9.8</ele>
        <time>2021-09-26T12:58:36.000Z</time>
      </trkpt>
      <trkpt lat="45.73678" lon="-1.24098">
        <ele>9.5</ele>
        <time>2021-09-26T12:58:30.000Z</time>
      </trkpt>
      <trkpt lat="45.73687" lon="-1.24098">
        <ele>9</ele>
        <time>2021-09-26T12:58:24.000Z</time>
      </trkpt>
      <trkpt lat="45.73697" lon="-1.24097">
        <ele>9.2</ele>
        <time>2021-09-26T12:58:18.000Z</time>
      </trkpt>
      <trkpt lat="45.73706" lon="-1.24097">
        <ele>9.3</ele>
        <time>2021-09-26T12:58:12.000Z</time>
      </trkpt>
      <trkpt lat="45.73716" lon="-1.24097">
        <ele>9.3</ele>
        <time>2021-09-26T12:58:06.000Z</time>
      </trkpt>
      <trkpt lat="45.73726" lon="-1.24096">
        <ele>9.3</ele>
        <time>2021-09-26T12:58:00.000Z</time>
      </trkpt>
      <trkpt lat="45.73736" lon="-1.24093">
        <ele>9.3</ele>
        <time>2021-09-26T12:57:54.000Z</time>
      </trkpt>
      <trkpt lat="45.73745" lon="-1.24091">
        <ele>9.4</ele>
        <time>2021-09-26T12:57:48.000Z</time>
      </trkpt>
      <trkpt lat="45.73754" lon="-1.24088">
        <ele>9.7</ele>
        <time>2021-09-26T12:57:42.000Z</time>
      </trkpt>
      <trkpt lat="45.73764" lon="-1.24085">
        <ele>9.7</ele>
        <time>2021-09-26T12:57:38.000Z</time>
      </trkpt>
      <trkpt lat="45.73775" lon="-1.24084">
        <ele>9.1</ele>
        <time>2021-09-26T12:57:35.000Z</time>
      </trkpt>
      <trkpt lat="45.73785" lon="-1.24084">
        <ele>9.1</ele>
        <time>2021-09-26T12:57:32.000Z</time>
      </trkpt>
      <trkpt lat="45.73797" lon="-1.24084">
        <ele>10.1</ele>
        <time>2021-09-26T12:57:29.000Z</time>
      </trkpt>
      <trkpt lat="45.73809" lon="-1.24085">
        <ele>10.3</ele>
        <time>2021-09-26T12:57:26.000Z</time>
      </trkpt>
      <trkpt lat="45.73821" lon="-1.24086">
        <ele>10.1</ele>
        <time>2021-09-26T12:57:23.000Z</time>
      </trkpt>
      <trkpt lat="45.73833" lon="-1.24087">
        <ele>9.2</ele>
        <time>2021-09-26T12:57:20.000Z</time>
      </trkpt>
      <trkpt lat="45.73846" lon="-1.24087">
        <ele>8.6</ele>
        <time>2021-09-26T12:57:17.000Z</time>
      </trkpt>
      <trkpt lat="45.73859" lon="-1.24087">
        <ele>8.6</ele>
        <time>2021-09-26T12:57:14.000Z</time>
      </trkpt>
      <trkpt lat="45.73868" lon="-1.24086">
        <ele>8.6</ele>
        <time>2021-09-26T12:57:12.000Z</time>
      </trkpt>
      <trkpt lat="45.73881" lon="-1.24086">
        <ele>9.3</ele>
        <time>2021-09-26T12:57:09.000Z</time>
      </trkpt>
      <trkpt lat="45.7389" lon="-1.24086">
        <ele>9</ele>
        <time>2021-09-26T12:57:07.000Z</time>
      </trkpt>
      <trkpt lat="45.73904" lon="-1.24087">
        <ele>8</ele>
        <time>2021-09-26T12:57:04.000Z</time>
      </trkpt>
      <trkpt lat="45.73917" lon="-1.24088">
        <ele>8.7</ele>
        <time>2021-09-26T12:57:01.000Z</time>
      </trkpt>
      <trkpt lat="45.73927" lon="-1.24088">
        <ele>9</ele>
        <time>2021-09-26T12:56:59.000Z</time>
      </trkpt>
      <trkpt lat="45.73937" lon="-1.24088">
        <ele>9.1</ele>
        <time>2021-09-26T12:56:57.000Z</time>
      </trkpt>
      <trkpt lat="45.73947" lon="-1.24089">
        <ele>9.3</ele>
        <time>2021-09-26T12:56:55.000Z</time>
      </trkpt>
      <trkpt lat="45.73956" lon="-1.24089">
        <ele>9</ele>
        <time>2021-09-26T12:56:53.000Z</time>
      </trkpt>
      <trkpt lat="45.73969" lon="-1.2409">
        <ele>8.9</ele>
        <time>2021-09-26T12:56:50.000Z</time>
      </trkpt>
      <trkpt lat="45.73979" lon="-1.24091">
        <ele>8.9</ele>
        <time>2021-09-26T12:56:48.000Z</time>
      </trkpt>
      <trkpt lat="45.73992" lon="-1.24093">
        <ele>9</ele>
        <time>2021-09-26T12:56:45.000Z</time>
      </trkpt>
      <trkpt lat="45.74001" lon="-1.24094">
        <ele>9</ele>
        <time>2021-09-26T12:56:43.000Z</time>
      </trkpt>
      <trkpt lat="45.74014" lon="-1.24096">
        <ele>9</ele>
        <time>2021-09-26T12:56:40.000Z</time>
      </trkpt>
      <trkpt lat="45.74028" lon="-1.24099">
        <ele>8.9</ele>
        <time>2021-09-26T12:56:37.000Z</time>
      </trkpt>
      <trkpt lat="45.74041" lon="-1.24101">
        <ele>8.9</ele>
        <time>2021-09-26T12:56:34.000Z</time>
      </trkpt>
      <trkpt lat="45.74053" lon="-1.24102">
        <ele>8.8</ele>
        <time>2021-09-26T12:56:31.000Z</time>
      </trkpt>
      <trkpt lat="45.74065" lon="-1.24103">
        <ele>8.7</ele>
        <time>2021-09-26T12:56:28.000Z</time>
      </trkpt>
      <trkpt lat="45.74076" lon="-1.24104">
        <ele>8.7</ele>
        <time>2021-09-26T12:56:25.000Z</time>
      </trkpt>
      <trkpt lat="45.74086" lon="-1.24106">
        <ele>9.1</ele>
        <time>2021-09-26T12:56:22.000Z</time>
      </trkpt>
      <trkpt lat="45.74096" lon="-1.24106">
        <ele>8.1</ele>
        <time>2021-09-26T12:56:19.000Z</time>
      </trkpt>
      <trkpt lat="45.74106" lon="-1.24106">
        <ele>8.4</ele>
        <time>2021-09-26T12:56:14.000Z</time>
      </trkpt>
      <trkpt lat="45.74115" lon="-1.24106">
        <ele>8.4</ele>
        <time>2021-09-26T12:56:08.000Z</time>
      </trkpt>
      <trkpt lat="45.74123" lon="-1.24098">
        <ele>8.7</ele>
        <time>2021-09-26T12:55:40.000Z</time>
      </trkpt>
      <trkpt lat="45.74132" lon="-1.24093">
        <ele>9.3</ele>
        <time>2021-09-26T12:55:33.000Z</time>
      </trkpt>
      <trkpt lat="45.74142" lon="-1.24092">
        <ele>8.5</ele>
        <time>2021-09-26T12:55:27.000Z</time>
      </trkpt>
      <trkpt lat="45.74151" lon="-1.2409">
        <ele>8.2</ele>
        <time>2021-09-26T12:55:21.000Z</time>
      </trkpt>
      <trkpt lat="45.74161" lon="-1.24089">
        <ele>9.1</ele>
        <time>2021-09-26T12:55:16.000Z</time>
      </trkpt>
      <trkpt lat="45.74172" lon="-1.24089">
        <ele>9.2</ele>
        <time>2021-09-26T12:55:12.000Z</time>
      </trkpt>
      <trkpt lat="45.74184" lon="-1.2409">
        <ele>9.3</ele>
        <time>2021-09-26T12:55:09.000Z</time>
      </trkpt>
      <trkpt lat="45.74193" lon="-1.2409">
        <ele>9.3</ele>
        <time>2021-09-26T12:55:07.000Z</time>
      </trkpt>
      <trkpt lat="45.74202" lon="-1.24092">
        <ele>9.7</ele>
        <time>2021-09-26T12:55:05.000Z</time>
      </trkpt>
      <trkpt lat="45.74212" lon="-1.24092">
        <ele>9.6</ele>
        <time>2021-09-26T12:55:03.000Z</time>
      </trkpt>
      <trkpt lat="45.74223" lon="-1.24093">
        <ele>10</ele>
        <time>2021-09-26T12:55:01.000Z</time>
      </trkpt>
      <trkpt lat="45.74233" lon="-1.24093">
        <ele>10.4</ele>
        <time>2021-09-26T12:54:59.000Z</time>
      </trkpt>
      <trkpt lat="45.74243" lon="-1.24094">
        <ele>10.1</ele>
        <time>2021-09-26T12:54:57.000Z</time>
      </trkpt>
      <trkpt lat="45.74253" lon="-1.24095">
        <ele>9.7</ele>
        <time>2021-09-26T12:54:55.000Z</time>
      </trkpt>
      <trkpt lat="45.74262" lon="-1.24095">
        <ele>9.2</ele>
        <time>2021-09-26T12:54:53.000Z</time>
      </trkpt>
      <trkpt lat="45.74272" lon="-1.24097">
        <ele>10</ele>
        <time>2021-09-26T12:54:51.000Z</time>
      </trkpt>
      <trkpt lat="45.74282" lon="-1.24098">
        <ele>10</ele>
        <time>2021-09-26T12:54:49.000Z</time>
      </trkpt>
      <trkpt lat="45.74293" lon="-1.241">
        <ele>10</ele>
        <time>2021-09-26T12:54:47.000Z</time>
      </trkpt>
      <trkpt lat="45.74303" lon="-1.24102">
        <ele>10.5</ele>
        <time>2021-09-26T12:54:45.000Z</time>
      </trkpt>
      <trkpt lat="45.74312" lon="-1.24105">
        <ele>10.6</ele>
        <time>2021-09-26T12:54:43.000Z</time>
      </trkpt>
      <trkpt lat="45.74322" lon="-1.24108">
        <ele>10.2</ele>
        <time>2021-09-26T12:54:41.000Z</time>
      </trkpt>
      <trkpt lat="45.74332" lon="-1.2411">
        <ele>9.9</ele>
        <time>2021-09-26T12:54:39.000Z</time>
      </trkpt>
      <trkpt lat="45.74343" lon="-1.24112">
        <ele>9.9</ele>
        <time>2021-09-26T12:54:37.000Z</time>
      </trkpt>
      <trkpt lat="45.74354" lon="-1.24114">
        <ele>10.2</ele>
        <time>2021-09-26T12:54:35.000Z</time>
      </trkpt>
      <trkpt lat="45.74364" lon="-1.24117">
        <ele>9.9</ele>
        <time>2021-09-26T12:54:33.000Z</time>
      </trkpt>
      <trkpt lat="45.74374" lon="-1.2412">
        <ele>9.7</ele>
        <time>2021-09-26T12:54:31.000Z</time>
      </trkpt>
      <trkpt lat="45.74385" lon="-1.24122">
        <ele>9.9</ele>
        <time>2021-09-26T12:54:29.000Z</time>
      </trkpt>
      <trkpt lat="45.74395" lon="-1.24126">
        <ele>10.3</ele>
        <time>2021-09-26T12:54:27.000Z</time>
      </trkpt>
      <trkpt lat="45.74406" lon="-1.24129">
        <ele>10.1</ele>
        <time>2021-09-26T12:54:24.000Z</time>
      </trkpt>
      <trkpt lat="45.74417" lon="-1.24132">
        <ele>10.2</ele>
        <time>2021-09-26T12:54:21.000Z</time>
      </trkpt>
      <trkpt lat="45.74427" lon="-1.24134">
        <ele>10.5</ele>
        <time>2021-09-26T12:54:18.000Z</time>
      </trkpt>
      <trkpt lat="45.74437" lon="-1.24136">
        <ele>10.3</ele>
        <time>2021-09-26T12:54:15.000Z</time>
      </trkpt>
      <trkpt lat="45.74448" lon="-1.24138">
        <ele>9.9</ele>
        <time>2021-09-26T12:54:11.000Z</time>
      </trkpt>
      <trkpt lat="45.74459" lon="-1.2414">
        <ele>10.4</ele>
        <time>2021-09-26T12:54:06.000Z</time>
      </trkpt>
      <trkpt lat="45.74469" lon="-1.24142">
        <ele>10.2</ele>
        <time>2021-09-26T12:54:00.000Z</time>
      </trkpt>
      <trkpt lat="45.74479" lon="-1.24142">
        <ele>10</ele>
        <time>2021-09-26T12:53:54.000Z</time>
      </trkpt>
      <trkpt lat="45.74489" lon="-1.24143">
        <ele>9</ele>
        <time>2021-09-26T12:53:48.000Z</time>
      </trkpt>
      <trkpt lat="45.74499" lon="-1.24143">
        <ele>9.3</ele>
        <time>2021-09-26T12:53:42.000Z</time>
      </trkpt>
      <trkpt lat="45.74509" lon="-1.24143">
        <ele>9.6</ele>
        <time>2021-09-26T12:53:36.000Z</time>
      </trkpt>
      <trkpt lat="45.74519" lon="-1.24146">
        <ele>9.6</ele>
        <time>2021-09-26T12:53:30.000Z</time>
      </trkpt>
      <trkpt lat="45.74528" lon="-1.24148">
        <ele>9.5</ele>
        <time>2021-09-26T12:53:24.000Z</time>
      </trkpt>
      <trkpt lat="45.74537" lon="-1.24147">
        <ele>9.3</ele>
        <time>2021-09-26T12:53:18.000Z</time>
      </trkpt>
      <trkpt lat="45.74547" lon="-1.24148">
        <ele>9.3</ele>
        <time>2021-09-26T12:53:12.000Z</time>
      </trkpt>
      <trkpt lat="45.74556" lon="-1.24147">
        <ele>9.3</ele>
        <time>2021-09-26T12:53:06.000Z</time>
      </trkpt>
      <trkpt lat="45.74566" lon="-1.24147">
        <ele>9.5</ele>
        <time>2021-09-26T12:53:00.000Z</time>
      </trkpt>
      <trkpt lat="45.74576" lon="-1.24148">
        <ele>9.6</ele>
        <time>2021-09-26T12:52:53.000Z</time>
      </trkpt>
      <trkpt lat="45.74585" lon="-1.24146">
        <ele>9.8</ele>
        <time>2021-09-26T12:52:46.000Z</time>
      </trkpt>
      <trkpt lat="45.74596" lon="-1.24147">
        <ele>9.7</ele>
        <time>2021-09-26T12:52:39.000Z</time>
      </trkpt>
      <trkpt lat="45.74606" lon="-1.24146">
        <ele>9.8</ele>
        <time>2021-09-26T12:52:32.000Z</time>
      </trkpt>
      <trkpt lat="45.74615" lon="-1.24142">
        <ele>10.1</ele>
        <time>2021-09-26T12:52:26.000Z</time>
      </trkpt>
      <trkpt lat="45.74624" lon="-1.2414">
        <ele>9.5</ele>
        <time>2021-09-26T12:52:20.000Z</time>
      </trkpt>
      <trkpt lat="45.74634" lon="-1.24134">
        <ele>8.8</ele>
        <time>2021-09-26T12:52:14.000Z</time>
      </trkpt>
      <trkpt lat="45.74643" lon="-1.24127">
        <ele>9.5</ele>
        <time>2021-09-26T12:52:08.000Z</time>
      </trkpt>
      <trkpt lat="45.7465" lon="-1.24118">
        <ele>9.5</ele>
        <time>2021-09-26T12:52:02.000Z</time>
      </trkpt>
      <trkpt lat="45.74659" lon="-1.24113">
        <ele>9.2</ele>
        <time>2021-09-26T12:51:56.000Z</time>
      </trkpt>
      <trkpt lat="45.74668" lon="-1.24113">
        <ele>9</ele>
        <time>2021-09-26T12:51:50.000Z</time>
      </trkpt>
      <trkpt lat="45.74677" lon="-1.24113">
        <ele>9.1</ele>
        <time>2021-09-26T12:51:44.000Z</time>
      </trkpt>
      <trkpt lat="45.74688" lon="-1.24114">
        <ele>9.8</ele>
        <time>2021-09-26T12:51:37.000Z</time>
      </trkpt>
      <trkpt lat="45.74697" lon="-1.2411">
        <ele>10.2</ele>
        <time>2021-09-26T12:51:30.000Z</time>
      </trkpt>
      <trkpt lat="45.74698" lon="-1.24097">
        <ele>10.3</ele>
        <time>2021-09-26T12:51:20.000Z</time>
      </trkpt>
      <trkpt lat="45.74708" lon="-1.24094">
        <ele>10.3</ele>
        <time>2021-09-26T12:51:13.000Z</time>
      </trkpt>
      <trkpt lat="45.74718" lon="-1.2409">
        <ele>10.5</ele>
        <time>2021-09-26T12:51:06.000Z</time>
      </trkpt>
      <trkpt lat="45.74727" lon="-1.24085">
        <ele>10.8</ele>
        <time>2021-09-26T12:50:59.000Z</time>
      </trkpt>
      <trkpt lat="45.74734" lon="-1.24076">
        <ele>11.4</ele>
        <time>2021-09-26T12:50:53.000Z</time>
      </trkpt>
      <trkpt lat="45.7474" lon="-1.24064">
        <ele>12.4</ele>
        <time>2021-09-26T12:50:46.000Z</time>
      </trkpt>
      <trkpt lat="45.74744" lon="-1.24051">
        <ele>12.7</ele>
        <time>2021-09-26T12:50:39.000Z</time>
      </trkpt>
      <trkpt lat="45.74748" lon="-1.2404">
        <ele>13.2</ele>
        <time>2021-09-26T12:50:33.000Z</time>
      </trkpt>
      <trkpt lat="45.74752" lon="-1.24028">
        <ele>15.3</ele>
        <time>2021-09-26T12:50:26.000Z</time>
      </trkpt>
      <trkpt lat="45.74753" lon="-1.24014">
        <ele>18.3</ele>
        <time>2021-09-26T12:50:17.000Z</time>
      </trkpt>
      <trkpt lat="45.74751" lon="-1.24001">
        <ele>21.5</ele>
        <time>2021-09-26T12:50:09.000Z</time>
      </trkpt>
      <trkpt lat="45.74747" lon="-1.23987">
        <ele>21.7</ele>
        <time>2021-09-26T12:50:01.000Z</time>
      </trkpt>
      <trkpt lat="45.74748" lon="-1.23974">
        <ele>17.7</ele>
        <time>2021-09-26T12:49:54.000Z</time>
      </trkpt>
      <trkpt lat="45.74741" lon="-1.23962">
        <ele>14.8</ele>
        <time>2021-09-26T12:49:51.000Z</time>
      </trkpt>
      <trkpt lat="45.74737" lon="-1.23944">
        <ele>13.1</ele>
        <time>2021-09-26T12:49:48.000Z</time>
      </trkpt>
      <trkpt lat="45.74738" lon="-1.23929">
        <ele>12.1</ele>
        <time>2021-09-26T12:49:45.000Z</time>
      </trkpt>
      <trkpt lat="45.74737" lon="-1.23913">
        <ele>12.6</ele>
        <time>2021-09-26T12:49:40.000Z</time>
      </trkpt>
      <trkpt lat="45.74736" lon="-1.23899">
        <ele>12.9</ele>
        <time>2021-09-26T12:49:34.000Z</time>
      </trkpt>
      <trkpt lat="45.74735" lon="-1.23886">
        <ele>13.3</ele>
        <time>2021-09-26T12:49:28.000Z</time>
      </trkpt>
      <trkpt lat="45.74736" lon="-1.23872">
        <ele>13.4</ele>
        <time>2021-09-26T12:49:22.000Z</time>
      </trkpt>
      <trkpt lat="45.74737" lon="-1.23859">
        <ele>13.6</ele>
        <time>2021-09-26T12:49:16.000Z</time>
      </trkpt>
      <trkpt lat="45.74737" lon="-1.23845">
        <ele>13.2</ele>
        <time>2021-09-26T12:49:10.000Z</time>
      </trkpt>
      <trkpt lat="45.74736" lon="-1.2383">
        <ele>13.5</ele>
        <time>2021-09-26T12:49:04.000Z</time>
      </trkpt>
      <trkpt lat="45.74738" lon="-1.23816">
        <ele>13.9</ele>
        <time>2021-09-26T12:48:58.000Z</time>
      </trkpt>
      <trkpt lat="45.74737" lon="-1.23801">
        <ele>14.8</ele>
        <time>2021-09-26T12:48:51.000Z</time>
      </trkpt>
      <trkpt lat="45.74736" lon="-1.23788">
        <ele>15.2</ele>
        <time>2021-09-26T12:48:46.000Z</time>
      </trkpt>
      <trkpt lat="45.74733" lon="-1.23774">
        <ele>15.5</ele>
        <time>2021-09-26T12:48:39.000Z</time>
      </trkpt>
      <trkpt lat="45.74731" lon="-1.2376">
        <ele>16.8</ele>
        <time>2021-09-26T12:48:31.000Z</time>
      </trkpt>
      <trkpt lat="45.74732" lon="-1.23746">
        <ele>17.2</ele>
        <time>2021-09-26T12:48:25.000Z</time>
      </trkpt>
      <trkpt lat="45.74732" lon="-1.23733">
        <ele>16.3</ele>
        <time>2021-09-26T12:48:20.000Z</time>
      </trkpt>
      <trkpt lat="45.74733" lon="-1.23719">
        <ele>14.7</ele>
        <time>2021-09-26T12:48:17.000Z</time>
      </trkpt>
      <trkpt lat="45.74732" lon="-1.23704">
        <ele>14.7</ele>
        <time>2021-09-26T12:48:10.000Z</time>
      </trkpt>
      <trkpt lat="45.74731" lon="-1.2369">
        <ele>14.7</ele>
        <time>2021-09-26T12:48:04.000Z</time>
      </trkpt>
      <trkpt lat="45.74731" lon="-1.23676">
        <ele>14.9</ele>
        <time>2021-09-26T12:47:59.000Z</time>
      </trkpt>
      <trkpt lat="45.74731" lon="-1.23663">
        <ele>15</ele>
        <time>2021-09-26T12:47:53.000Z</time>
      </trkpt>
      <trkpt lat="45.7473" lon="-1.23648">
        <ele>14.3</ele>
        <time>2021-09-26T12:47:46.000Z</time>
      </trkpt>
      <trkpt lat="45.74731" lon="-1.23633">
        <ele>14.6</ele>
        <time>2021-09-26T12:47:40.000Z</time>
      </trkpt>
      <trkpt lat="45.74733" lon="-1.2362">
        <ele>14.1</ele>
        <time>2021-09-26T12:47:33.000Z</time>
      </trkpt>
      <trkpt lat="45.74742" lon="-1.23613">
        <ele>13.7</ele>
        <time>2021-09-26T12:47:29.000Z</time>
      </trkpt>
      <trkpt lat="45.74751" lon="-1.23607">
        <ele>13.5</ele>
        <time>2021-09-26T12:47:26.000Z</time>
      </trkpt>
      <trkpt lat="45.74763" lon="-1.23602">
        <ele>14.1</ele>
        <time>2021-09-26T12:47:23.000Z</time>
      </trkpt>
      <trkpt lat="45.74773" lon="-1.236">
        <ele>15.4</ele>
        <time>2021-09-26T12:47:20.000Z</time>
      </trkpt>
      <trkpt lat="45.74783" lon="-1.23601">
        <ele>15.1</ele>
        <time>2021-09-26T12:47:17.000Z</time>
      </trkpt>
      <trkpt lat="45.74792" lon="-1.23602">
        <ele>14.6</ele>
        <time>2021-09-26T12:47:14.000Z</time>
      </trkpt>
      <trkpt lat="45.74801" lon="-1.23602">
        <ele>14.6</ele>
        <time>2021-09-26T12:47:11.000Z</time>
      </trkpt>
      <trkpt lat="45.74811" lon="-1.23602">
        <ele>14.6</ele>
        <time>2021-09-26T12:47:07.000Z</time>
      </trkpt>
      <trkpt lat="45.74822" lon="-1.236">
        <ele>14.4</ele>
        <time>2021-09-26T12:47:03.000Z</time>
      </trkpt>
      <trkpt lat="45.7483" lon="-1.2359">
        <ele>14.6</ele>
        <time>2021-09-26T12:47:00.000Z</time>
      </trkpt>
      <trkpt lat="45.74838" lon="-1.23581">
        <ele>14.7</ele>
        <time>2021-09-26T12:46:57.000Z</time>
      </trkpt>
      <trkpt lat="45.74846" lon="-1.23574">
        <ele>14.7</ele>
        <time>2021-09-26T12:46:54.000Z</time>
      </trkpt>
      <trkpt lat="45.74856" lon="-1.23567">
        <ele>14.4</ele>
        <time>2021-09-26T12:46:51.000Z</time>
      </trkpt>
      <trkpt lat="45.74867" lon="-1.23565">
        <ele>14.1</ele>
        <time>2021-09-26T12:46:47.000Z</time>
      </trkpt>
      <trkpt lat="45.74874" lon="-1.23557">
        <ele>14.5</ele>
        <time>2021-09-26T12:46:44.000Z</time>
      </trkpt>
      <trkpt lat="45.74883" lon="-1.23547">
        <ele>14.7</ele>
        <time>2021-09-26T12:46:39.000Z</time>
      </trkpt>
      <trkpt lat="45.7489" lon="-1.23538">
        <ele>14.9</ele>
        <time>2021-09-26T12:46:34.000Z</time>
      </trkpt>
      <trkpt lat="45.749" lon="-1.23534">
        <ele>14.8</ele>
        <time>2021-09-26T12:46:30.000Z</time>
      </trkpt>
      <trkpt lat="45.7491" lon="-1.23527">
        <ele>14.7</ele>
        <time>2021-09-26T12:46:26.000Z</time>
      </trkpt>
      <trkpt lat="45.74921" lon="-1.23521">
        <ele>14.9</ele>
        <time>2021-09-26T12:46:23.000Z</time>
      </trkpt>
      <trkpt lat="45.74931" lon="-1.23514">
        <ele>14.9</ele>
        <time>2021-09-26T12:46:20.000Z</time>
      </trkpt>
      <trkpt lat="45.7494" lon="-1.23507">
        <ele>15</ele>
        <time>2021-09-26T12:46:17.000Z</time>
      </trkpt>
      <trkpt lat="45.74951" lon="-1.23499">
        <ele>15.1</ele>
        <time>2021-09-26T12:46:14.000Z</time>
      </trkpt>
      <trkpt lat="45.74961" lon="-1.23491">
        <ele>14.9</ele>
        <time>2021-09-26T12:46:11.000Z</time>
      </trkpt>
      <trkpt lat="45.74969" lon="-1.23479">
        <ele>15.2</ele>
        <time>2021-09-26T12:46:08.000Z</time>
      </trkpt>
      <trkpt lat="45.74978" lon="-1.23472">
        <ele>15.5</ele>
        <time>2021-09-26T12:46:05.000Z</time>
      </trkpt>
      <trkpt lat="45.74988" lon="-1.23467">
        <ele>15.8</ele>
        <time>2021-09-26T12:46:02.000Z</time>
      </trkpt>
      <trkpt lat="45.74998" lon="-1.23461">
        <ele>16.4</ele>
        <time>2021-09-26T12:45:59.000Z</time>
      </trkpt>
      <trkpt lat="45.7501" lon="-1.2346">
        <ele>16.4</ele>
        <time>2021-09-26T12:45:56.000Z</time>
      </trkpt>
      <trkpt lat="45.7502" lon="-1.23457">
        <ele>16.2</ele>
        <time>2021-09-26T12:45:53.000Z</time>
      </trkpt>
      <trkpt lat="45.75029" lon="-1.23455">
        <ele>15.5</ele>
        <time>2021-09-26T12:45:50.000Z</time>
      </trkpt>
      <trkpt lat="45.75041" lon="-1.23453">
        <ele>14.9</ele>
        <time>2021-09-26T12:45:46.000Z</time>
      </trkpt>
      <trkpt lat="45.75053" lon="-1.23451">
        <ele>15.2</ele>
        <time>2021-09-26T12:45:42.000Z</time>
      </trkpt>
      <trkpt lat="45.75062" lon="-1.23447">
        <ele>14.9</ele>
        <time>2021-09-26T12:45:38.000Z</time>
      </trkpt>
      <trkpt lat="45.75072" lon="-1.23443">
        <ele>15.1</ele>
        <time>2021-09-26T12:45:31.000Z</time>
      </trkpt>
      <trkpt lat="45.75079" lon="-1.23434">
        <ele>15.3</ele>
        <time>2021-09-26T12:45:25.000Z</time>
      </trkpt>
      <trkpt lat="45.75085" lon="-1.23422">
        <ele>15.3</ele>
        <time>2021-09-26T12:45:19.000Z</time>
      </trkpt>
      <trkpt lat="45.75091" lon="-1.23409">
        <ele>15.4</ele>
        <time>2021-09-26T12:45:13.000Z</time>
      </trkpt>
      <trkpt lat="45.75097" lon="-1.23397">
        <ele>15.7</ele>
        <time>2021-09-26T12:45:07.000Z</time>
      </trkpt>
      <trkpt lat="45.75099" lon="-1.23383">
        <ele>15.7</ele>
        <time>2021-09-26T12:45:00.000Z</time>
      </trkpt>
      <trkpt lat="45.751" lon="-1.2337">
        <ele>15.5</ele>
        <time>2021-09-26T12:44:54.000Z</time>
      </trkpt>
      <trkpt lat="45.75102" lon="-1.23355">
        <ele>15.2</ele>
        <time>2021-09-26T12:44:47.000Z</time>
      </trkpt>
      <trkpt lat="45.75105" lon="-1.23341">
        <ele>15.7</ele>
        <time>2021-09-26T12:44:41.000Z</time>
      </trkpt>
      <trkpt lat="45.75103" lon="-1.23328">
        <ele>16.3</ele>
        <time>2021-09-26T12:44:34.000Z</time>
      </trkpt>
      <trkpt lat="45.75104" lon="-1.23313">
        <ele>16.6</ele>
        <time>2021-09-26T12:44:28.000Z</time>
      </trkpt>
      <trkpt lat="45.75106" lon="-1.233">
        <ele>16.9</ele>
        <time>2021-09-26T12:44:23.000Z</time>
      </trkpt>
      <trkpt lat="45.75106" lon="-1.23286">
        <ele>18.2</ele>
        <time>2021-09-26T12:44:17.000Z</time>
      </trkpt>
      <trkpt lat="45.75107" lon="-1.23271">
        <ele>19.4</ele>
        <time>2021-09-26T12:44:10.000Z</time>
      </trkpt>
      <trkpt lat="45.75104" lon="-1.23258">
        <ele>21</ele>
        <time>2021-09-26T12:44:03.000Z</time>
      </trkpt>
      <trkpt lat="45.75104" lon="-1.23243">
        <ele>21.4</ele>
        <time>2021-09-26T12:43:58.000Z</time>
      </trkpt>
      <trkpt lat="45.751" lon="-1.23229">
        <ele>22.2</ele>
        <time>2021-09-26T12:43:50.000Z</time>
      </trkpt>
      <trkpt lat="45.75099" lon="-1.23215">
        <ele>22.3</ele>
        <time>2021-09-26T12:43:45.000Z</time>
      </trkpt>
      <trkpt lat="45.75096" lon="-1.23202">
        <ele>22.3</ele>
        <time>2021-09-26T12:43:38.000Z</time>
      </trkpt>
      <trkpt lat="45.75093" lon="-1.23189">
        <ele>22.3</ele>
        <time>2021-09-26T12:43:31.000Z</time>
      </trkpt>
      <trkpt lat="45.75091" lon="-1.23176">
        <ele>22.2</ele>
        <time>2021-09-26T12:43:26.000Z</time>
      </trkpt>
      <trkpt lat="45.7509" lon="-1.2316">
        <ele>22.1</ele>
        <time>2021-09-26T12:43:20.000Z</time>
      </trkpt>
      <trkpt lat="45.75091" lon="-1.23145">
        <ele>21</ele>
        <time>2021-09-26T12:43:13.000Z</time>
      </trkpt>
      <trkpt lat="45.75091" lon="-1.2313">
        <ele>20.9</ele>
        <time>2021-09-26T12:43:05.000Z</time>
      </trkpt>
      <trkpt lat="45.75094" lon="-1.23116">
        <ele>20.4</ele>
        <time>2021-09-26T12:42:58.000Z</time>
      </trkpt>
      <trkpt lat="45.75096" lon="-1.23101">
        <ele>19.9</ele>
        <time>2021-09-26T12:42:51.000Z</time>
      </trkpt>
      <trkpt lat="45.75098" lon="-1.23087">
        <ele>18.9</ele>
        <time>2021-09-26T12:42:44.000Z</time>
      </trkpt>
      <trkpt lat="45.75103" lon="-1.23074">
        <ele>18.6</ele>
        <time>2021-09-26T12:42:39.000Z</time>
      </trkpt>
      <trkpt lat="45.75108" lon="-1.23062">
        <ele>18.9</ele>
        <time>2021-09-26T12:42:34.000Z</time>
      </trkpt>
      <trkpt lat="45.7511" lon="-1.23049">
        <ele>19.5</ele>
        <time>2021-09-26T12:42:27.000Z</time>
      </trkpt>
      <trkpt lat="45.75109" lon="-1.23035">
        <ele>18.7</ele>
        <time>2021-09-26T12:42:19.000Z</time>
      </trkpt>
      <trkpt lat="45.75111" lon="-1.23021">
        <ele>18.5</ele>
        <time>2021-09-26T12:42:10.000Z</time>
      </trkpt>
      <trkpt lat="45.75114" lon="-1.23006">
        <ele>18.2</ele>
        <time>2021-09-26T12:42:03.000Z</time>
      </trkpt>
      <trkpt lat="45.75118" lon="-1.22994">
        <ele>17.2</ele>
        <time>2021-09-26T12:41:57.000Z</time>
      </trkpt>
      <trkpt lat="45.75121" lon="-1.22979">
        <ele>16.7</ele>
        <time>2021-09-26T12:41:51.000Z</time>
      </trkpt>
      <trkpt lat="45.75118" lon="-1.22966">
        <ele>16.7</ele>
        <time>2021-09-26T12:41:45.000Z</time>
      </trkpt>
      <trkpt lat="45.75113" lon="-1.22956">
        <ele>16.7</ele>
        <time>2021-09-26T12:41:40.000Z</time>
      </trkpt>
      <trkpt lat="45.75108" lon="-1.22945">
        <ele>16.7</ele>
        <time>2021-09-26T12:41:34.000Z</time>
      </trkpt>
      <trkpt lat="45.75102" lon="-1.22933">
        <ele>16.3</ele>
        <time>2021-09-26T12:41:26.000Z</time>
      </trkpt>
      <trkpt lat="45.75097" lon="-1.2292">
        <ele>16.2</ele>
        <time>2021-09-26T12:41:19.000Z</time>
      </trkpt>
      <trkpt lat="45.75091" lon="-1.22908">
        <ele>15.9</ele>
        <time>2021-09-26T12:41:12.000Z</time>
      </trkpt>
      <trkpt lat="45.75086" lon="-1.22895">
        <ele>15.7</ele>
        <time>2021-09-26T12:41:05.000Z</time>
      </trkpt>
      <trkpt lat="45.75082" lon="-1.22884">
        <ele>15.7</ele>
        <time>2021-09-26T12:40:59.000Z</time>
      </trkpt>
      <trkpt lat="45.75077" lon="-1.22872">
        <ele>15.6</ele>
        <time>2021-09-26T12:40:53.000Z</time>
      </trkpt>
      <trkpt lat="45.75072" lon="-1.22861">
        <ele>15.7</ele>
        <time>2021-09-26T12:40:47.000Z</time>
      </trkpt>
      <trkpt lat="45.7507" lon="-1.22848">
        <ele>16.5</ele>
        <time>2021-09-26T12:40:41.000Z</time>
      </trkpt>
      <trkpt lat="45.75069" lon="-1.22834">
        <ele>16.8</ele>
        <time>2021-09-26T12:40:35.000Z</time>
      </trkpt>
      <trkpt lat="45.7507" lon="-1.22821">
        <ele>16.4</ele>
        <time>2021-09-26T12:40:27.000Z</time>
      </trkpt>
      <trkpt lat="45.75069" lon="-1.22808">
        <ele>16.5</ele>
        <time>2021-09-26T12:40:20.000Z</time>
      </trkpt>
      <trkpt lat="45.75069" lon="-1.22794">
        <ele>16.8</ele>
        <time>2021-09-26T12:40:14.000Z</time>
      </trkpt>
      <trkpt lat="45.75068" lon="-1.22778">
        <ele>17.4</ele>
        <time>2021-09-26T12:40:08.000Z</time>
      </trkpt>
      <trkpt lat="45.75068" lon="-1.22764">
        <ele>18.5</ele>
        <time>2021-09-26T12:40:01.000Z</time>
      </trkpt>
      <trkpt lat="45.75067" lon="-1.22751">
        <ele>19.3</ele>
        <time>2021-09-26T12:39:55.000Z</time>
      </trkpt>
      <trkpt lat="45.75068" lon="-1.22736">
        <ele>19.3</ele>
        <time>2021-09-26T12:39:49.000Z</time>
      </trkpt>
      <trkpt lat="45.75065" lon="-1.22722">
        <ele>18.4</ele>
        <time>2021-09-26T12:39:42.000Z</time>
      </trkpt>
      <trkpt lat="45.75065" lon="-1.22709">
        <ele>18</ele>
        <time>2021-09-26T12:39:36.000Z</time>
      </trkpt>
      <trkpt lat="45.75065" lon="-1.22695">
        <ele>17.6</ele>
        <time>2021-09-26T12:39:30.000Z</time>
      </trkpt>
      <trkpt lat="45.75064" lon="-1.22681">
        <ele>17.4</ele>
        <time>2021-09-26T12:39:24.000Z</time>
      </trkpt>
      <trkpt lat="45.75063" lon="-1.22668">
        <ele>17.3</ele>
        <time>2021-09-26T12:39:18.000Z</time>
      </trkpt>
      <trkpt lat="45.75063" lon="-1.22654">
        <ele>17.1</ele>
        <time>2021-09-26T12:39:12.000Z</time>
      </trkpt>
      <trkpt lat="45.75063" lon="-1.22639">
        <ele>17</ele>
        <time>2021-09-26T12:39:05.000Z</time>
      </trkpt>
      <trkpt lat="45.75064" lon="-1.22625">
        <ele>16.6</ele>
        <time>2021-09-26T12:38:59.000Z</time>
      </trkpt>
      <trkpt lat="45.75072" lon="-1.22617">
        <ele>16.8</ele>
        <time>2021-09-26T12:38:53.000Z</time>
      </trkpt>
      <trkpt lat="45.7508" lon="-1.22608">
        <ele>16.8</ele>
        <time>2021-09-26T12:38:47.000Z</time>
      </trkpt>
      <trkpt lat="45.7508" lon="-1.22595">
        <ele>16.8</ele>
        <time>2021-09-26T12:38:41.000Z</time>
      </trkpt>
      <trkpt lat="45.7508" lon="-1.22581">
        <ele>16.8</ele>
        <time>2021-09-26T12:38:35.000Z</time>
      </trkpt>
      <trkpt lat="45.7508" lon="-1.22567">
        <ele>16.8</ele>
        <time>2021-09-26T12:38:28.000Z</time>
      </trkpt>
      <trkpt lat="45.75079" lon="-1.22553">
        <ele>16.6</ele>
        <time>2021-09-26T12:38:22.000Z</time>
      </trkpt>
      <trkpt lat="45.75079" lon="-1.2254">
        <ele>16.5</ele>
        <time>2021-09-26T12:38:16.000Z</time>
      </trkpt>
      <trkpt lat="45.75079" lon="-1.22525">
        <ele>16.5</ele>
        <time>2021-09-26T12:38:10.000Z</time>
      </trkpt>
      <trkpt lat="45.75081" lon="-1.2251">
        <ele>16.5</ele>
        <time>2021-09-26T12:38:04.000Z</time>
      </trkpt>
      <trkpt lat="45.75082" lon="-1.22496">
        <ele>16.1</ele>
        <time>2021-09-26T12:37:57.000Z</time>
      </trkpt>
      <trkpt lat="45.75084" lon="-1.22482">
        <ele>16.7</ele>
        <time>2021-09-26T12:37:51.000Z</time>
      </trkpt>
      <trkpt lat="45.75085" lon="-1.22467">
        <ele>16.8</ele>
        <time>2021-09-26T12:37:45.000Z</time>
      </trkpt>
      <trkpt lat="45.7509" lon="-1.22453">
        <ele>16.8</ele>
        <time>2021-09-26T12:37:38.000Z</time>
      </trkpt>
      <trkpt lat="45.75093" lon="-1.22439">
        <ele>16.8</ele>
        <time>2021-09-26T12:37:31.000Z</time>
      </trkpt>
      <trkpt lat="45.75098" lon="-1.22426">
        <ele>16.8</ele>
        <time>2021-09-26T12:37:23.000Z</time>
      </trkpt>
      <trkpt lat="45.75103" lon="-1.22414">
        <ele>16.9</ele>
        <time>2021-09-26T12:37:18.000Z</time>
      </trkpt>
      <trkpt lat="45.75109" lon="-1.22402">
        <ele>17.2</ele>
        <time>2021-09-26T12:37:11.000Z</time>
      </trkpt>
      <trkpt lat="45.75114" lon="-1.2239">
        <ele>17.5</ele>
        <time>2021-09-26T12:37:05.000Z</time>
      </trkpt>
      <trkpt lat="45.75116" lon="-1.22378">
        <ele>17.2</ele>
        <time>2021-09-26T12:36:59.000Z</time>
      </trkpt>
      <trkpt lat="45.75121" lon="-1.22365">
        <ele>17.2</ele>
        <time>2021-09-26T12:36:53.000Z</time>
      </trkpt>
      <trkpt lat="45.75126" lon="-1.2235">
        <ele>17.3</ele>
        <time>2021-09-26T12:36:48.000Z</time>
      </trkpt>
      <trkpt lat="45.75131" lon="-1.22335">
        <ele>18</ele>
        <time>2021-09-26T12:36:41.000Z</time>
      </trkpt>
      <trkpt lat="45.75132" lon="-1.22322">
        <ele>18.6</ele>
        <time>2021-09-26T12:36:34.000Z</time>
      </trkpt>
      <trkpt lat="45.75131" lon="-1.22307">
        <ele>18.5</ele>
        <time>2021-09-26T12:36:24.000Z</time>
      </trkpt>
      <trkpt lat="45.75133" lon="-1.22294">
        <ele>18.3</ele>
        <time>2021-09-26T12:36:18.000Z</time>
      </trkpt>
      <trkpt lat="45.75138" lon="-1.2228">
        <ele>18.1</ele>
        <time>2021-09-26T12:36:13.000Z</time>
      </trkpt>
      <trkpt lat="45.75143" lon="-1.22268">
        <ele>17.6</ele>
        <time>2021-09-26T12:36:06.000Z</time>
      </trkpt>
      <trkpt lat="45.75148" lon="-1.22256">
        <ele>17.8</ele>
        <time>2021-09-26T12:35:57.000Z</time>
      </trkpt>
      <trkpt lat="45.75154" lon="-1.22245">
        <ele>17.8</ele>
        <time>2021-09-26T12:35:50.000Z</time>
      </trkpt>
      <trkpt lat="45.7516" lon="-1.22232">
        <ele>17.6</ele>
        <time>2021-09-26T12:35:43.000Z</time>
      </trkpt>
      <trkpt lat="45.75165" lon="-1.2222">
        <ele>17.5</ele>
        <time>2021-09-26T12:35:36.000Z</time>
      </trkpt>
      <trkpt lat="45.7517" lon="-1.22207">
        <ele>17.3</ele>
        <time>2021-09-26T12:35:30.000Z</time>
      </trkpt>
      <trkpt lat="45.75177" lon="-1.22196">
        <ele>17.3</ele>
        <time>2021-09-26T12:35:26.000Z</time>
      </trkpt>
      <trkpt lat="45.7518" lon="-1.22183">
        <ele>17.3</ele>
        <time>2021-09-26T12:35:19.000Z</time>
      </trkpt>
      <trkpt lat="45.75181" lon="-1.22169">
        <ele>17.4</ele>
        <time>2021-09-26T12:35:10.000Z</time>
      </trkpt>
      <trkpt lat="45.75184" lon="-1.22156">
        <ele>17.8</ele>
        <time>2021-09-26T12:35:03.000Z</time>
      </trkpt>
      <trkpt lat="45.75191" lon="-1.22145">
        <ele>17.9</ele>
        <time>2021-09-26T12:34:57.000Z</time>
      </trkpt>
      <trkpt lat="45.75199" lon="-1.22137">
        <ele>18.2</ele>
        <time>2021-09-26T12:34:49.000Z</time>
      </trkpt>
      <trkpt lat="45.75206" lon="-1.22128">
        <ele>18.4</ele>
        <time>2021-09-26T12:34:43.000Z</time>
      </trkpt>
      <trkpt lat="45.75213" lon="-1.22116">
        <ele>18.3</ele>
        <time>2021-09-26T12:34:36.000Z</time>
      </trkpt>
      <trkpt lat="45.75218" lon="-1.22103">
        <ele>18.1</ele>
        <time>2021-09-26T12:34:29.000Z</time>
      </trkpt>
      <trkpt lat="45.75223" lon="-1.2209">
        <ele>18.1</ele>
        <time>2021-09-26T12:34:23.000Z</time>
      </trkpt>
      <trkpt lat="45.75229" lon="-1.2208">
        <ele>18.1</ele>
        <time>2021-09-26T12:34:16.000Z</time>
      </trkpt>
      <trkpt lat="45.75233" lon="-1.22066">
        <ele>18.1</ele>
        <time>2021-09-26T12:34:11.000Z</time>
      </trkpt>
      <trkpt lat="45.75234" lon="-1.22052">
        <ele>18.4</ele>
        <time>2021-09-26T12:34:04.000Z</time>
      </trkpt>
      <trkpt lat="45.75234" lon="-1.22039">
        <ele>18.7</ele>
        <time>2021-09-26T12:33:59.000Z</time>
      </trkpt>
      <trkpt lat="45.75233" lon="-1.22024">
        <ele>18.7</ele>
        <time>2021-09-26T12:33:52.000Z</time>
      </trkpt>
      <trkpt lat="45.75235" lon="-1.22011">
        <ele>18.8</ele>
        <time>2021-09-26T12:33:46.000Z</time>
      </trkpt>
      <trkpt lat="45.75236" lon="-1.21997">
        <ele>19.2</ele>
        <time>2021-09-26T12:33:40.000Z</time>
      </trkpt>
      <trkpt lat="45.75236" lon="-1.21983">
        <ele>20</ele>
        <time>2021-09-26T12:33:35.000Z</time>
      </trkpt>
      <trkpt lat="45.75233" lon="-1.2197">
        <ele>20.4</ele>
        <time>2021-09-26T12:33:27.000Z</time>
      </trkpt>
      <trkpt lat="45.75234" lon="-1.21956">
        <ele>20.4</ele>
        <time>2021-09-26T12:33:21.000Z</time>
      </trkpt>
      <trkpt lat="45.75232" lon="-1.21943">
        <ele>20.5</ele>
        <time>2021-09-26T12:33:15.000Z</time>
      </trkpt>
      <trkpt lat="45.75233" lon="-1.21927">
        <ele>20.9</ele>
        <time>2021-09-26T12:33:09.000Z</time>
      </trkpt>
      <trkpt lat="45.75236" lon="-1.21913">
        <ele>21.7</ele>
        <time>2021-09-26T12:33:03.000Z</time>
      </trkpt>
      <trkpt lat="45.75234" lon="-1.21898">
        <ele>22.2</ele>
        <time>2021-09-26T12:32:57.000Z</time>
      </trkpt>
      <trkpt lat="45.75231" lon="-1.21885">
        <ele>23.4</ele>
        <time>2021-09-26T12:32:50.000Z</time>
      </trkpt>
      <trkpt lat="45.75229" lon="-1.2187">
        <ele>24.7</ele>
        <time>2021-09-26T12:32:43.000Z</time>
      </trkpt>
      <trkpt lat="45.75227" lon="-1.21857">
        <ele>25.7</ele>
        <time>2021-09-26T12:32:36.000Z</time>
      </trkpt>
      <trkpt lat="45.7523" lon="-1.21844">
        <ele>25.9</ele>
        <time>2021-09-26T12:32:30.000Z</time>
      </trkpt>
      <trkpt lat="45.75229" lon="-1.21831">
        <ele>26.7</ele>
        <time>2021-09-26T12:32:24.000Z</time>
      </trkpt>
      <trkpt lat="45.75222" lon="-1.21818">
        <ele>27.2</ele>
        <time>2021-09-26T12:32:19.000Z</time>
      </trkpt>
      <trkpt lat="45.7522" lon="-1.21802">
        <ele>27.7</ele>
        <time>2021-09-26T12:32:12.000Z</time>
      </trkpt>
      <trkpt lat="45.75219" lon="-1.21788">
        <ele>28.2</ele>
        <time>2021-09-26T12:32:04.000Z</time>
      </trkpt>
      <trkpt lat="45.75218" lon="-1.21775">
        <ele>28.2</ele>
        <time>2021-09-26T12:31:56.000Z</time>
      </trkpt>
      <trkpt lat="45.75214" lon="-1.21762">
        <ele>28.1</ele>
        <time>2021-09-26T12:31:50.000Z</time>
      </trkpt>
      <trkpt lat="45.75212" lon="-1.21748">
        <ele>28</ele>
        <time>2021-09-26T12:31:42.000Z</time>
      </trkpt>
      <trkpt lat="45.75216" lon="-1.21735">
        <ele>27.8</ele>
        <time>2021-09-26T12:31:33.000Z</time>
      </trkpt>
      <trkpt lat="45.75216" lon="-1.21722">
        <ele>26.7</ele>
        <time>2021-09-26T12:31:25.000Z</time>
      </trkpt>
      <trkpt lat="45.75212" lon="-1.21709">
        <ele>25.1</ele>
        <time>2021-09-26T12:31:17.000Z</time>
      </trkpt>
      <trkpt lat="45.75214" lon="-1.21696">
        <ele>23.2</ele>
        <time>2021-09-26T12:31:06.000Z</time>
      </trkpt>
      <trkpt lat="45.75214" lon="-1.21682">
        <ele>21.6</ele>
        <time>2021-09-26T12:30:58.000Z</time>
      </trkpt>
      <trkpt lat="45.75213" lon="-1.21669">
        <ele>20.8</ele>
        <time>2021-09-26T12:30:53.000Z</time>
      </trkpt>
      <trkpt lat="45.75208" lon="-1.21658">
        <ele>19.3</ele>
        <time>2021-09-26T12:30:17.000Z</time>
      </trkpt>
      <trkpt lat="45.75215" lon="-1.2165">
        <ele>18.5</ele>
        <time>2021-09-26T12:30:02.000Z</time>
      </trkpt>
      <trkpt lat="45.75214" lon="-1.21636">
        <ele>18.2</ele>
        <time>2021-09-26T12:29:52.000Z</time>
      </trkpt>
      <trkpt lat="45.75217" lon="-1.21622">
        <ele>18.2</ele>
        <time>2021-09-26T12:29:43.000Z</time>
      </trkpt>
      <trkpt lat="45.75222" lon="-1.21609">
        <ele>18.2</ele>
        <time>2021-09-26T12:29:32.000Z</time>
      </trkpt>
      <trkpt lat="45.75221" lon="-1.21596">
        <ele>18.2</ele>
        <time>2021-09-26T12:29:24.000Z</time>
      </trkpt>
      <trkpt lat="45.75226" lon="-1.21584">
        <ele>18.1</ele>
        <time>2021-09-26T12:29:06.000Z</time>
      </trkpt>
      <trkpt lat="45.75218" lon="-1.21578">
        <ele>17.8</ele>
        <time>2021-09-26T12:29:00.000Z</time>
      </trkpt>
      <trkpt lat="45.75209" lon="-1.21583">
        <ele>17.8</ele>
        <time>2021-09-26T12:27:17.000Z</time>
      </trkpt>
      <trkpt lat="45.75213" lon="-1.2157">
        <ele>17.5</ele>
        <time>2021-09-26T12:27:01.000Z</time>
      </trkpt>
      <trkpt lat="45.75213" lon="-1.21557">
        <ele>17.6</ele>
        <time>2021-09-26T12:26:52.000Z</time>
      </trkpt>
      <trkpt lat="45.7521" lon="-1.21544">
        <ele>17.7</ele>
        <time>2021-09-26T12:26:26.000Z</time>
      </trkpt>
      <trkpt lat="45.75219" lon="-1.21543">
        <ele>17.7</ele>
        <time>2021-09-26T12:24:30.000Z</time>
      </trkpt>
      <trkpt lat="45.75225" lon="-1.21533">
        <ele>18</ele>
        <time>2021-09-26T12:23:53.000Z</time>
      </trkpt>
      <trkpt lat="45.75219" lon="-1.21544">
        <ele>18</ele>
        <time>2021-09-26T12:23:30.000Z</time>
      </trkpt>
      <trkpt lat="45.75215" lon="-1.21557">
        <ele>18</ele>
        <time>2021-09-26T12:23:26.000Z</time>
      </trkpt>
      <trkpt lat="45.75209" lon="-1.21547">
        <ele>18.2</ele>
        <time>2021-09-26T12:23:08.000Z</time>
      </trkpt>
      <trkpt lat="45.75207" lon="-1.21532">
        <ele>18.3</ele>
        <time>2021-09-26T12:22:02.000Z</time>
      </trkpt>
      <trkpt lat="45.75215" lon="-1.21538">
        <ele>18.3</ele>
        <time>2021-09-26T12:21:40.000Z</time>
      </trkpt>
      <trkpt lat="45.75207" lon="-1.21545">
        <ele>18.7</ele>
        <time>2021-09-26T12:20:59.000Z</time>
      </trkpt>
      <trkpt lat="45.75211" lon="-1.21533">
        <ele>18.8</ele>
        <time>2021-09-26T12:20:21.000Z</time>
      </trkpt>
      <trkpt lat="45.75203" lon="-1.21527">
        <ele>18.8</ele>
        <time>2021-09-26T12:20:05.000Z</time>
      </trkpt>
      <trkpt lat="45.75214" lon="-1.21533">
        <ele>18.7</ele>
        <time>2021-09-26T12:19:22.000Z</time>
      </trkpt>
      <trkpt lat="45.75208" lon="-1.21545">
        <ele>18.5</ele>
        <time>2021-09-26T11:40:10.000Z</time>
      </trkpt>
      <trkpt lat="45.75206" lon="-1.21538">
        <ele>18.1</ele>
        <time>2021-09-26T11:37:45.000Z</time>
      </trkpt>
      <trkpt lat="45.75202" lon="-1.21525">
        <ele>17.8</ele>
        <time>2021-09-26T11:37:36.000Z</time>
      </trkpt>
      <trkpt lat="45.75193" lon="-1.21524">
        <ele>17.8</ele>
        <time>2021-09-26T11:37:07.000Z</time>
      </trkpt>
      <trkpt lat="45.75203" lon="-1.21524">
        <ele>18.2</ele>
        <time>2021-09-26T11:36:57.000Z</time>
      </trkpt>
      <trkpt lat="45.75207" lon="-1.21536">
        <ele>18.8</ele>
        <time>2021-09-26T11:36:17.000Z</time>
      </trkpt>
      <trkpt lat="45.75216" lon="-1.21529">
        <ele>19.8</ele>
        <time>2021-09-26T11:36:01.000Z</time>
      </trkpt>
      <trkpt lat="45.75212" lon="-1.21517">
        <ele>20.1</ele>
        <time>2021-09-26T11:35:56.000Z</time>
      </trkpt>
      <trkpt lat="45.75211" lon="-1.21503">
        <ele>20.7</ele>
        <time>2021-09-26T11:35:49.000Z</time>
      </trkpt>
      <trkpt lat="45.75212" lon="-1.21489">
        <ele>21</ele>
        <time>2021-09-26T11:35:42.000Z</time>
      </trkpt>
      <trkpt lat="45.75215" lon="-1.21477">
        <ele>21.4</ele>
        <time>2021-09-26T11:35:04.000Z</time>
      </trkpt>
      <trkpt lat="45.75224" lon="-1.21474">
        <ele>21.6</ele>
        <time>2021-09-26T11:34:28.000Z</time>
      </trkpt>
      <trkpt lat="45.75233" lon="-1.2147">
        <ele>21.6</ele>
        <time>2021-09-26T11:34:22.000Z</time>
      </trkpt>
      <trkpt lat="45.75242" lon="-1.21466">
        <ele>21.6</ele>
        <time>2021-09-26T11:34:16.000Z</time>
      </trkpt>
      <trkpt lat="45.75251" lon="-1.2146">
        <ele>21.5</ele>
        <time>2021-09-26T11:34:09.000Z</time>
      </trkpt>
      <trkpt lat="45.7526" lon="-1.21456">
        <ele>21.6</ele>
        <time>2021-09-26T11:34:04.000Z</time>
      </trkpt>
      <trkpt lat="45.75269" lon="-1.2145">
        <ele>22.3</ele>
        <time>2021-09-26T11:33:55.000Z</time>
      </trkpt>
      <trkpt lat="45.75278" lon="-1.21447">
        <ele>22.4</ele>
        <time>2021-09-26T11:33:50.000Z</time>
      </trkpt>
      <trkpt lat="45.75287" lon="-1.2144">
        <ele>22.5</ele>
        <time>2021-09-26T11:33:45.000Z</time>
      </trkpt>
      <trkpt lat="45.75297" lon="-1.21435">
        <ele>22.6</ele>
        <time>2021-09-26T11:33:41.000Z</time>
      </trkpt>
      <trkpt lat="45.75306" lon="-1.21427">
        <ele>23.3</ele>
        <time>2021-09-26T11:33:36.000Z</time>
      </trkpt>
      <trkpt lat="45.75314" lon="-1.21423">
        <ele>24.3</ele>
        <time>2021-09-26T11:33:33.000Z</time>
      </trkpt>
      <trkpt lat="45.75323" lon="-1.21418">
        <ele>24.3</ele>
        <time>2021-09-26T11:33:30.000Z</time>
      </trkpt>
      <trkpt lat="45.75333" lon="-1.21412">
        <ele>24.6</ele>
        <time>2021-09-26T11:33:26.000Z</time>
      </trkpt>
      <trkpt lat="45.75343" lon="-1.21399">
        <ele>25.6</ele>
        <time>2021-09-26T11:33:22.000Z</time>
      </trkpt>
      <trkpt lat="45.7535" lon="-1.21391">
        <ele>25.8</ele>
        <time>2021-09-26T11:33:19.000Z</time>
      </trkpt>
      <trkpt lat="45.75356" lon="-1.2138">
        <ele>26.2</ele>
        <time>2021-09-26T11:33:16.000Z</time>
      </trkpt>
      <trkpt lat="45.75363" lon="-1.21371">
        <ele>26.2</ele>
        <time>2021-09-26T11:33:12.000Z</time>
      </trkpt>
      <trkpt lat="45.7537" lon="-1.21361">
        <ele>25.5</ele>
        <time>2021-09-26T11:33:08.000Z</time>
      </trkpt>
      <trkpt lat="45.75377" lon="-1.21347">
        <ele>25.1</ele>
        <time>2021-09-26T11:33:04.000Z</time>
      </trkpt>
      <trkpt lat="45.75379" lon="-1.21333">
        <ele>25.5</ele>
        <time>2021-09-26T11:32:59.000Z</time>
      </trkpt>
      <trkpt lat="45.75382" lon="-1.2132">
        <ele>25.6</ele>
        <time>2021-09-26T11:32:52.000Z</time>
      </trkpt>
      <trkpt lat="45.75387" lon="-1.21307">
        <ele>25.8</ele>
        <time>2021-09-26T11:32:47.000Z</time>
      </trkpt>
      <trkpt lat="45.75389" lon="-1.21293">
        <ele>25.7</ele>
        <time>2021-09-26T11:32:41.000Z</time>
      </trkpt>
      <trkpt lat="45.7539" lon="-1.21278">
        <ele>26.2</ele>
        <time>2021-09-26T11:32:35.000Z</time>
      </trkpt>
      <trkpt lat="45.75395" lon="-1.21264">
        <ele>26.2</ele>
        <time>2021-09-26T11:32:28.000Z</time>
      </trkpt>
      <trkpt lat="45.75397" lon="-1.21252">
        <ele>26</ele>
        <time>2021-09-26T11:32:22.000Z</time>
      </trkpt>
      <trkpt lat="45.754" lon="-1.21238">
        <ele>25.8</ele>
        <time>2021-09-26T11:32:15.000Z</time>
      </trkpt>
      <trkpt lat="45.75404" lon="-1.21223">
        <ele>25.3</ele>
        <time>2021-09-26T11:32:09.000Z</time>
      </trkpt>
      <trkpt lat="45.75408" lon="-1.21208">
        <ele>25.1</ele>
        <time>2021-09-26T11:32:03.000Z</time>
      </trkpt>
      <trkpt lat="45.75412" lon="-1.21195">
        <ele>24.6</ele>
        <time>2021-09-26T11:31:57.000Z</time>
      </trkpt>
      <trkpt lat="45.75416" lon="-1.21184">
        <ele>24.2</ele>
        <time>2021-09-26T11:31:52.000Z</time>
      </trkpt>
      <trkpt lat="45.75421" lon="-1.21169">
        <ele>24.1</ele>
        <time>2021-09-26T11:31:47.000Z</time>
      </trkpt>
      <trkpt lat="45.75424" lon="-1.21155">
        <ele>23.9</ele>
        <time>2021-09-26T11:31:40.000Z</time>
      </trkpt>
      <trkpt lat="45.75427" lon="-1.21141">
        <ele>23.8</ele>
        <time>2021-09-26T11:31:33.000Z</time>
      </trkpt>
      <trkpt lat="45.75431" lon="-1.21127">
        <ele>23.8</ele>
        <time>2021-09-26T11:31:26.000Z</time>
      </trkpt>
      <trkpt lat="45.75435" lon="-1.21114">
        <ele>23.4</ele>
        <time>2021-09-26T11:31:18.000Z</time>
      </trkpt>
      <trkpt lat="45.7544" lon="-1.21102">
        <ele>24.6</ele>
        <time>2021-09-26T11:31:12.000Z</time>
      </trkpt>
      <trkpt lat="45.75446" lon="-1.21091">
        <ele>25.3</ele>
        <time>2021-09-26T11:31:08.000Z</time>
      </trkpt>
      <trkpt lat="45.75451" lon="-1.21079">
        <ele>25.9</ele>
        <time>2021-09-26T11:31:02.000Z</time>
      </trkpt>
      <trkpt lat="45.75456" lon="-1.21067">
        <ele>26.4</ele>
        <time>2021-09-26T11:30:56.000Z</time>
      </trkpt>
      <trkpt lat="45.75461" lon="-1.21055">
        <ele>27.2</ele>
        <time>2021-09-26T11:30:50.000Z</time>
      </trkpt>
      <trkpt lat="45.75468" lon="-1.21048">
        <ele>27.5</ele>
        <time>2021-09-26T11:30:46.000Z</time>
      </trkpt>
      <trkpt lat="45.75475" lon="-1.21035">
        <ele>27.9</ele>
        <time>2021-09-26T11:30:40.000Z</time>
      </trkpt>
      <trkpt lat="45.7548" lon="-1.21023">
        <ele>28.6</ele>
        <time>2021-09-26T11:30:34.000Z</time>
      </trkpt>
      <trkpt lat="45.75486" lon="-1.21013">
        <ele>30</ele>
        <time>2021-09-26T11:30:28.000Z</time>
      </trkpt>
      <trkpt lat="45.75494" lon="-1.21002">
        <ele>30.6</ele>
        <time>2021-09-26T11:30:21.000Z</time>
      </trkpt>
      <trkpt lat="45.755" lon="-1.20992">
        <ele>30.5</ele>
        <time>2021-09-26T11:30:16.000Z</time>
      </trkpt>
      <trkpt lat="45.75509" lon="-1.20984">
        <ele>30.1</ele>
        <time>2021-09-26T11:30:09.000Z</time>
      </trkpt>
      <trkpt lat="45.75516" lon="-1.20974">
        <ele>29.5</ele>
        <time>2021-09-26T11:30:02.000Z</time>
      </trkpt>
      <trkpt lat="45.75523" lon="-1.20962">
        <ele>29.1</ele>
        <time>2021-09-26T11:29:56.000Z</time>
      </trkpt>
      <trkpt lat="45.75528" lon="-1.20948">
        <ele>28.8</ele>
        <time>2021-09-26T11:29:48.000Z</time>
      </trkpt>
      <trkpt lat="45.75531" lon="-1.20935">
        <ele>28.5</ele>
        <time>2021-09-26T11:29:42.000Z</time>
      </trkpt>
      <trkpt lat="45.75534" lon="-1.20922">
        <ele>28.2</ele>
        <time>2021-09-26T11:29:36.000Z</time>
      </trkpt>
      <trkpt lat="45.75538" lon="-1.20911">
        <ele>28</ele>
        <time>2021-09-26T11:29:29.000Z</time>
      </trkpt>
      <trkpt lat="45.75544" lon="-1.20898">
        <ele>27.4</ele>
        <time>2021-09-26T11:29:24.000Z</time>
      </trkpt>
      <trkpt lat="45.75548" lon="-1.20884">
        <ele>26.8</ele>
        <time>2021-09-26T11:29:17.000Z</time>
      </trkpt>
      <trkpt lat="45.7555" lon="-1.20872">
        <ele>26</ele>
        <time>2021-09-26T11:29:11.000Z</time>
      </trkpt>
      <trkpt lat="45.75553" lon="-1.20857">
        <ele>25.3</ele>
        <time>2021-09-26T11:29:04.000Z</time>
      </trkpt>
      <trkpt lat="45.7555" lon="-1.20844">
        <ele>25.2</ele>
        <time>2021-09-26T11:28:59.000Z</time>
      </trkpt>
      <trkpt lat="45.75548" lon="-1.20831">
        <ele>25.2</ele>
        <time>2021-09-26T11:28:54.000Z</time>
      </trkpt>
      <trkpt lat="45.75549" lon="-1.20817">
        <ele>25</ele>
        <time>2021-09-26T11:28:48.000Z</time>
      </trkpt>
      <trkpt lat="45.75551" lon="-1.20803">
        <ele>25.2</ele>
        <time>2021-09-26T11:28:40.000Z</time>
      </trkpt>
      <trkpt lat="45.7555" lon="-1.2079">
        <ele>25.7</ele>
        <time>2021-09-26T11:28:34.000Z</time>
      </trkpt>
      <trkpt lat="45.75543" lon="-1.20781">
        <ele>25.8</ele>
        <time>2021-09-26T11:28:26.000Z</time>
      </trkpt>
      <trkpt lat="45.75534" lon="-1.20776">
        <ele>26.3</ele>
        <time>2021-09-26T11:28:21.000Z</time>
      </trkpt>
      <trkpt lat="45.75523" lon="-1.20772">
        <ele>26.7</ele>
        <time>2021-09-26T11:28:15.000Z</time>
      </trkpt>
      <trkpt lat="45.75514" lon="-1.20767">
        <ele>27.5</ele>
        <time>2021-09-26T11:28:09.000Z</time>
      </trkpt>
      <trkpt lat="45.75505" lon="-1.20763">
        <ele>28.4</ele>
        <time>2021-09-26T11:28:02.000Z</time>
      </trkpt>
      <trkpt lat="45.75496" lon="-1.20759">
        <ele>29.2</ele>
        <time>2021-09-26T11:27:55.000Z</time>
      </trkpt>
      <trkpt lat="45.75487" lon="-1.20753">
        <ele>29.9</ele>
        <time>2021-09-26T11:27:47.000Z</time>
      </trkpt>
      <trkpt lat="45.75479" lon="-1.20746">
        <ele>30.1</ele>
        <time>2021-09-26T11:27:40.000Z</time>
      </trkpt>
      <trkpt lat="45.7547" lon="-1.20747">
        <ele>30.3</ele>
        <time>2021-09-26T11:27:36.000Z</time>
      </trkpt>
      <trkpt lat="45.7546" lon="-1.20745">
        <ele>29.6</ele>
        <time>2021-09-26T11:27:28.000Z</time>
      </trkpt>
      <trkpt lat="45.75449" lon="-1.20745">
        <ele>29.7</ele>
        <time>2021-09-26T11:27:22.000Z</time>
      </trkpt>
      <trkpt lat="45.75439" lon="-1.20745">
        <ele>29.8</ele>
        <time>2021-09-26T11:27:16.000Z</time>
      </trkpt>
      <trkpt lat="45.75429" lon="-1.20745">
        <ele>31</ele>
        <time>2021-09-26T11:27:09.000Z</time>
      </trkpt>
      <trkpt lat="45.75419" lon="-1.20745">
        <ele>30.6</ele>
        <time>2021-09-26T11:27:02.000Z</time>
      </trkpt>
      <trkpt lat="45.7541" lon="-1.20745">
        <ele>31.1</ele>
        <time>2021-09-26T11:26:57.000Z</time>
      </trkpt>
      <trkpt lat="45.75401" lon="-1.20743">
        <ele>30.6</ele>
        <time>2021-09-26T11:26:51.000Z</time>
      </trkpt>
      <trkpt lat="45.75391" lon="-1.20743">
        <ele>29.9</ele>
        <time>2021-09-26T11:26:46.000Z</time>
      </trkpt>
      <trkpt lat="45.75383" lon="-1.2074">
        <ele>28.8</ele>
        <time>2021-09-26T11:26:42.000Z</time>
      </trkpt>
      <trkpt lat="45.75374" lon="-1.20738">
        <ele>27.2</ele>
        <time>2021-09-26T11:26:39.000Z</time>
      </trkpt>
      <trkpt lat="45.75364" lon="-1.20734">
        <ele>25.2</ele>
        <time>2021-09-26T11:26:36.000Z</time>
      </trkpt>
      <trkpt lat="45.75352" lon="-1.20733">
        <ele>23.6</ele>
        <time>2021-09-26T11:26:33.000Z</time>
      </trkpt>
      <trkpt lat="45.7534" lon="-1.20731">
        <ele>22.5</ele>
        <time>2021-09-26T11:26:30.000Z</time>
      </trkpt>
      <trkpt lat="45.75331" lon="-1.20727">
        <ele>22</ele>
        <time>2021-09-26T11:26:27.000Z</time>
      </trkpt>
      <trkpt lat="45.75321" lon="-1.20722">
        <ele>21.9</ele>
        <time>2021-09-26T11:26:23.000Z</time>
      </trkpt>
      <trkpt lat="45.75311" lon="-1.20718">
        <ele>21.8</ele>
        <time>2021-09-26T11:26:19.000Z</time>
      </trkpt>
      <trkpt lat="45.753" lon="-1.20713">
        <ele>21.8</ele>
        <time>2021-09-26T11:26:14.000Z</time>
      </trkpt>
      <trkpt lat="45.75291" lon="-1.20707">
        <ele>22.2</ele>
        <time>2021-09-26T11:26:08.000Z</time>
      </trkpt>
      <trkpt lat="45.75281" lon="-1.20704">
        <ele>23.4</ele>
        <time>2021-09-26T11:26:03.000Z</time>
      </trkpt>
      <trkpt lat="45.75272" lon="-1.20703">
        <ele>23.7</ele>
        <time>2021-09-26T11:25:55.000Z</time>
      </trkpt>
      <trkpt lat="45.75263" lon="-1.20698">
        <ele>23.7</ele>
        <time>2021-09-26T11:25:49.000Z</time>
      </trkpt>
      <trkpt lat="45.75252" lon="-1.20694">
        <ele>23.7</ele>
        <time>2021-09-26T11:25:41.000Z</time>
      </trkpt>
      <trkpt lat="45.75243" lon="-1.20689">
        <ele>23.7</ele>
        <time>2021-09-26T11:25:35.000Z</time>
      </trkpt>
      <trkpt lat="45.75231" lon="-1.20686">
        <ele>24.5</ele>
        <time>2021-09-26T11:25:28.000Z</time>
      </trkpt>
      <trkpt lat="45.75221" lon="-1.20683">
        <ele>24.5</ele>
        <time>2021-09-26T11:25:20.000Z</time>
      </trkpt>
      <trkpt lat="45.75211" lon="-1.20679">
        <ele>24.1</ele>
        <time>2021-09-26T11:25:13.000Z</time>
      </trkpt>
      <trkpt lat="45.75201" lon="-1.20677">
        <ele>22.7</ele>
        <time>2021-09-26T11:25:07.000Z</time>
      </trkpt>
      <trkpt lat="45.75193" lon="-1.2067">
        <ele>22.5</ele>
        <time>2021-09-26T11:25:01.000Z</time>
      </trkpt>
      <trkpt lat="45.75186" lon="-1.20661">
        <ele>22.3</ele>
        <time>2021-09-26T11:24:55.000Z</time>
      </trkpt>
      <trkpt lat="45.75184" lon="-1.20647">
        <ele>21.9</ele>
        <time>2021-09-26T11:24:49.000Z</time>
      </trkpt>
      <trkpt lat="45.75184" lon="-1.20632">
        <ele>21.9</ele>
        <time>2021-09-26T11:24:42.000Z</time>
      </trkpt>
      <trkpt lat="45.75183" lon="-1.20618">
        <ele>22.1</ele>
        <time>2021-09-26T11:24:35.000Z</time>
      </trkpt>
      <trkpt lat="45.75183" lon="-1.20603">
        <ele>22.3</ele>
        <time>2021-09-26T11:24:29.000Z</time>
      </trkpt>
      <trkpt lat="45.75184" lon="-1.20589">
        <ele>22.4</ele>
        <time>2021-09-26T11:24:22.000Z</time>
      </trkpt>
      <trkpt lat="45.75185" lon="-1.20575">
        <ele>22.9</ele>
        <time>2021-09-26T11:24:16.000Z</time>
      </trkpt>
      <trkpt lat="45.75185" lon="-1.20559">
        <ele>24.2</ele>
        <time>2021-09-26T11:24:11.000Z</time>
      </trkpt>
      <trkpt lat="45.75186" lon="-1.20546">
        <ele>24.8</ele>
        <time>2021-09-26T11:24:05.000Z</time>
      </trkpt>
      <trkpt lat="45.75184" lon="-1.20531">
        <ele>25</ele>
        <time>2021-09-26T11:23:59.000Z</time>
      </trkpt>
      <trkpt lat="45.75183" lon="-1.20517">
        <ele>25.4</ele>
        <time>2021-09-26T11:23:52.000Z</time>
      </trkpt>
      <trkpt lat="45.75183" lon="-1.20503">
        <ele>27.4</ele>
        <time>2021-09-26T11:23:46.000Z</time>
      </trkpt>
      <trkpt lat="45.75182" lon="-1.2049">
        <ele>28.5</ele>
        <time>2021-09-26T11:23:40.000Z</time>
      </trkpt>
      <trkpt lat="45.75181" lon="-1.20476">
        <ele>29.8</ele>
        <time>2021-09-26T11:23:34.000Z</time>
      </trkpt>
      <trkpt lat="45.75179" lon="-1.20462">
        <ele>31.4</ele>
        <time>2021-09-26T11:23:27.000Z</time>
      </trkpt>
      <trkpt lat="45.75178" lon="-1.20447">
        <ele>32.3</ele>
        <time>2021-09-26T11:23:21.000Z</time>
      </trkpt>
      <trkpt lat="45.75178" lon="-1.20434">
        <ele>33.4</ele>
        <time>2021-09-26T11:23:15.000Z</time>
      </trkpt>
      <trkpt lat="45.75178" lon="-1.20419">
        <ele>34</ele>
        <time>2021-09-26T11:23:08.000Z</time>
      </trkpt>
      <trkpt lat="45.75179" lon="-1.20405">
        <ele>34.8</ele>
        <time>2021-09-26T11:23:02.000Z</time>
      </trkpt>
      <trkpt lat="45.75178" lon="-1.20391">
        <ele>35.8</ele>
        <time>2021-09-26T11:22:55.000Z</time>
      </trkpt>
      <trkpt lat="45.75177" lon="-1.20376">
        <ele>36.6</ele>
        <time>2021-09-26T11:22:49.000Z</time>
      </trkpt>
      <trkpt lat="45.75177" lon="-1.20363">
        <ele>37.5</ele>
        <time>2021-09-26T11:22:43.000Z</time>
      </trkpt>
      <trkpt lat="45.75178" lon="-1.2035">
        <ele>38.5</ele>
        <time>2021-09-26T11:22:36.000Z</time>
      </trkpt>
      <trkpt lat="45.75177" lon="-1.20335">
        <ele>39.3</ele>
        <time>2021-09-26T11:22:29.000Z</time>
      </trkpt>
      <trkpt lat="45.75178" lon="-1.20321">
        <ele>40.1</ele>
        <time>2021-09-26T11:22:22.000Z</time>
      </trkpt>
      <trkpt lat="45.75178" lon="-1.20307">
        <ele>40.4</ele>
        <time>2021-09-26T11:22:16.000Z</time>
      </trkpt>
      <trkpt lat="45.75178" lon="-1.20294">
        <ele>41</ele>
        <time>2021-09-26T11:22:11.000Z</time>
      </trkpt>
      <trkpt lat="45.75179" lon="-1.20279">
        <ele>41.3</ele>
        <time>2021-09-26T11:22:06.000Z</time>
      </trkpt>
      <trkpt lat="45.75177" lon="-1.20264">
        <ele>41.3</ele>
        <time>2021-09-26T11:22:01.000Z</time>
      </trkpt>
      <trkpt lat="45.75175" lon="-1.20181">
        <ele>38.7</ele>
        <time>2021-09-26T11:21:41.000Z</time>
      </trkpt>
      <trkpt lat="45.75203" lon="-1.20073">
        <ele>23.6</ele>
      </trkpt>
      <trkpt lat="45.75322" lon="-1.1997">
        <ele>17.5</ele>
      </trkpt>
      <trkpt lat="45.75574" lon="-1.19944">
        <ele>11.6</ele>
      </trkpt>
      <trkpt lat="45.75795" lon="-1.19884">
        <ele>16.9</ele>
      </trkpt>
      <trkpt lat="45.76071" lon="-1.19695">
        <ele>10</ele>
      </trkpt>
      <trkpt lat="45.76322" lon="-1.19549">
        <ele>13.9</ele>
      </trkpt>
      <trkpt lat="45.76358" lon="-1.19395">
        <ele>9.5</ele>
      </trkpt>
      <trkpt lat="45.76537" lon="-1.19549">
        <ele>10.8</ele>
      </trkpt>
      <trkpt lat="45.76611" lon="-1.19329">
        <ele>9.9</ele>
      </trkpt>
      <trkpt lat="45.76676" lon="-1.19201">
        <ele>13.1</ele>
      </trkpt>
      <trkpt lat="45.76599" lon="-1.18994">
        <ele>11.9</ele>
      </trkpt>
      <trkpt lat="45.76593" lon="-1.1884">
        <ele>12.9</ele>
      </trkpt>
      <trkpt lat="45.76617" lon="-1.18617">
        <ele>9.9</ele>
      </trkpt>
      <trkpt lat="45.76754" lon="-1.18316">
        <ele>16.8</ele>
      </trkpt>
      <trkpt lat="45.76712" lon="-1.18119">
        <ele>11</ele>
      </trkpt>
      <trkpt lat="45.76802" lon="-1.17981">
        <ele>18.5</ele>
      </trkpt>
      <trkpt lat="45.76934" lon="-1.17732">
        <ele>20</ele>
      </trkpt>
      <trkpt lat="45.77263" lon="-1.17569">
        <ele>17.4</ele>
      </trkpt>
      <trkpt lat="45.77532" lon="-1.18222">
        <ele>14.4</ele>
      </trkpt>
      <trkpt lat="45.77568" lon="-1.18548">
        <ele>21.7</ele>
      </trkpt>
      <trkpt lat="45.77604" lon="-1.18472">
        <ele>21.3</ele>
      </trkpt>
      <trkpt lat="45.78507" lon="-1.18433">
        <ele>10.2</ele>
      </trkpt>
      <trkpt lat="45.78516" lon="-1.1839">
        <ele>10.5</ele>
      </trkpt>
      <trkpt lat="45.78549" lon="-1.18386">
        <ele>11.4</ele>
      </trkpt>
      <trkpt lat="45.78588" lon="-1.18296">
        <ele>9</ele>
      </trkpt>
      <trkpt lat="45.78579" lon="-1.18235">
        <ele>8.4</ele>
      </trkpt>
      <trkpt lat="45.786" lon="-1.18201">
        <ele>8.8</ele>
      </trkpt>
      <trkpt lat="45.78591" lon="-1.18132">
        <ele>12</ele>
      </trkpt>
      <trkpt lat="45.78624" lon="-1.1809">
        <ele>12.8</ele>
      </trkpt>
      <trkpt lat="45.78591" lon="-1.17999">
        <ele>19</ele>
      </trkpt>
      <trkpt lat="45.78612" lon="-1.17914">
        <ele>18.9</ele>
      </trkpt>
      <trkpt lat="45.78618" lon="-1.17772">
        <ele>12.9</ele>
      </trkpt>
      <trkpt lat="45.78642" lon="-1.17729">
        <ele>12.6</ele>
      </trkpt>
      <trkpt lat="45.78695" lon="-1.17733">
        <ele>15</ele>
      </trkpt>
      <trkpt lat="45.78737" lon="-1.17665">
        <ele>12.9</ele>
      </trkpt>
      <trkpt lat="45.78803" lon="-1.17519">
        <ele>10.8</ele>
      </trkpt>
      <trkpt lat="45.78857" lon="-1.17489">
        <ele>11.4</ele>
      </trkpt>
      <trkpt lat="45.78872" lon="-1.17437">
        <ele>9.4</ele>
      </trkpt>
      <trkpt lat="45.78872" lon="-1.1736">
        <ele>9.2</ele>
      </trkpt>
      <trkpt lat="45.78812" lon="-1.17265">
        <ele>18.5</ele>
      </trkpt>
      <trkpt lat="45.78959" lon="-1.17154">
        <ele>13.5</ele>
      </trkpt>
      <trkpt lat="45.78992" lon="-1.17102">
        <ele>10</ele>
      </trkpt>
      <trkpt lat="45.78974" lon="-1.17076">
        <ele>12.8</ele>
      </trkpt>
      <trkpt lat="45.79027" lon="-1.16982">
        <ele>13.4</ele>
      </trkpt>
      <trkpt lat="45.79075" lon="-1.16909">
        <ele>13.5</ele>
      </trkpt>
      <trkpt lat="45.79087" lon="-1.16772">
        <ele>13.8</ele>
      </trkpt>
      <trkpt lat="45.79162" lon="-1.16703">
        <ele>9.5</ele>
      </trkpt>
      <trkpt lat="45.79177" lon="-1.16609">
        <ele>10.6</ele>
      </trkpt>
      <trkpt lat="45.78716" lon="-1.16626">
        <ele>14.8</ele>
      </trkpt>
      <trkpt lat="45.78716" lon="-1.16617">
        <ele>14.8</ele>
      </trkpt>
    </trkseg>
  </trk>
</gpx>